GFSMA_700_rhum_000.txt.gz
RH
44 44 43 42 46 47 47 48 49 51 52 53 52 51 50 50 50 50 48 47 42 36 29 19 14 15 20 23 24 24 25 25 24 23 22 23 25 25 27 27 28 27 27
36 38 42 45 47 47 47 48 48 48 48 48 47 48 49 49 50 50 49 47 47 50 52 42 36 33 26 18 16 18 22 26 27 27 26 25 24 25 26 27 28 29 29
30 31 37 44 47 50 53 58 59 59 53 49 48 48 48 46 45 46 48 45 43 42 46 50 47 40 41 41 39 34 24 24 27 29 30 30 35 43 50 32 27 28 28
32 34 35 37 42 44 46 46 46 45 46 48 47 46 46 42 41 41 41 41 41 40 39 40 49 48 44 42 39 36 37 38 30 30 34 34 33 36 42 48 61 62 47
38 40 42 40 40 39 37 37 37 38 39 39 38 38 38 38 37 36 35 35 34 33 31 31 33 39 49 50 49 47 44 43 42 41 38 39 40 36 40 45 44 42 48
43 41 40 39 39 38 39 40 40 40 41 40 38 36 35 35 35 36 36 35 35 36 37 41 44 45 40 41 50 57 53 51 51 53 55 50 46 46 45 41 45 44 42
37 37 37 37 38 39 41 44 45 44 43 45 42 37 35 31 29 34 28 31 32 32 30 30 72 44 56 73 73 87 92 75 60 60 61 58 58 52 53 54 45 53 43
35 37 39 42 45 46 46 47 48 47 46 48 44 39 30 21 27 33 34 28 32 34 34 51 87 82 72 73 75 93 100 100 100 83 71 78 74 63 60 55 54 56 60
46 48 48 47 48 50 52 51 48 44 37 34 35 40 40 34 27 29 28 30 32 38 41 40 44 49 50 50 47 66 75 97 100 100 100 94 88 86 76 68 58 50 55
46 49 53 56 55 46 38 32 27 26 27 28 29 32 34 40 42 30 31 31 32 35 37 37 39 42 46 48 51 52 51 54 63 68 84 97 99 96 89 90 86 77 66
58 57 46 30 18 15 18 22 25 27 29 32 36 40 42 40 39 38 28 32 33 28 28 24 23 21 20 18 31 47 59 72 81 83 71 75 86 99 99 100 98 90 93
34 30 29 35 18 19 23 25 26 29 33 38 40 40 39 37 34 31 29 28 26 26 24 24 21 18 23 31 17 46 94 84 83 89 97 96 93 100 98 99 92 98 100
37 30 22 19 20 21 24 28 31 34 36 40 41 40 40 39 37 35 33 32 30 29 26 23 18 17 25 30 19 25 8 41 68 83 86 90 95 98 98 99 99 97 96
31 21 20 22 24 25 28 32 34 37 40 42 42 38 28 18 12 10 11 12 11 11 13 21 19 17 24 16 15 14 10 8 26 64 82 87 77 64 77 92 92 94 98
33 26 27 28 29 30 33 32 33 31 22 12 6 5 5 4 5 5 6 9 18 20 12 4 8 10 17 15 14 13 11 10 9 8 23 46 57 54 50 39 37 33 31
36 31 31 30 30 31 28 21 12 8 5 4 4 4 5 6 6 8 10 13 20 30 32 11 9 10 11 16 17 16 13 11 9 9 9 12 20 24 25 18 19 37 40
36 33 32 32 31 21 10 7 5 4 4 4 5 6 7 9 10 12 15 16 16 20 56 14 20 11 12 15 15 16 16 14 11 8 8 7 7 8 9 10 10 9 10
38 35 33 29 16 7 6 5 5 5 5 5 6 7 8 11 14 16 16 15 16 19 86 89 42 21 18 28 64 52 20 23 14 10 8 7 6 6 6 6 6 6 5
36 34 28 14 8 7 5 5 5 4 5 5 5 5 9 14 15 15 14 13 17 43 84 87 78 81 83 80 85 84 90 74 31 21 11 9 7 6 6 18 18 7 4
36 28 14 9 7 5 5 5 5 5 6 6 5 7 9 10 10 10 11 14 43 69 62 92 85 81 76 61 63 53 53 50 78 81 27 27 44 62 48 34 38 29 26
28 15 10 8 6 5 6 6 6 6 6 7 6 7 8 9 10 12 16 20 36 84 92 87 82 81 66 52 52 72 71 54 68 90 85 74 65 82 92 92 81 72 63
16 12 9 7 5 6 6 6 6 7 7 7 7 8 9 10 14 18 24 45 51 100 100 95 80 88 49 52 44 39 88 84 71 54 84 82 79 65 46 66 66 81 82
15 11 8 5 5 6 7 7 7 7 7 8 9 11 12 16 20 25 30 40 100 94 85 97 100 62 48 42 44 51 88 76 58 64 91 48 54 65 75 74 85 82 96
15 10 6 6 6 7 8 7 7 7 7 7 11 14 17 21 27 34 48 90 90 55 54 58 46 50 47 32 54 52 55 62 72 81 100 78 85 87 94 81 91 94 99
13 8 6 7 7 8 8 8 7 6 5 6 13 19 30 36 41 58 100 100 72 38 40 38 42 48 34 35 44 58 59 98 86 91 97 95 96 95 93 96 98 96 96
12 8 8 8 9 8 8 8 7 5 6 12 21 28 35 35 39 100 98 97 59 41 36 34 40 34 32 35 45 78 97 99 100 92 97 95 96 95 83 96 96 96 99

GFSMA_700_rhum_003.txt.gz
RH
44 48 48 47 46 46 48 50 50 46 47 46 45 44 43 43 43 44 44 43 41 42 44 46 47 47 48 47 35 28 20 16 18 22 24 24 24 23 22 21 21 22 23
40 43 47 50 54 55 54 49 47 44 41 38 32 37 37 41 44 45 45 43 42 41 41 43 43 43 44 48 49 41 33 33 32 24 18 19 23 26 26 25 23 23 23
37 42 47 55 53 49 51 51 46 40 35 32 33 34 36 37 37 37 35 34 32 31 30 30 33 36 40 41 46 50 47 42 40 38 37 33 25 25 27 29 30 32 31
42 47 51 52 53 49 43 38 34 32 34 37 36 36 36 36 36 36 36 35 34 32 33 32 31 31 31 32 33 40 50 55 51 45 41 38 39 36 28 29 31 32 36
48 52 54 49 43 40 37 36 36 37 38 40 40 39 36 33 31 29 29 28 27 29 58 35 29 32 33 35 42 45 45 42 49 57 60 58 53 43 45 40 36 36 35
54 51 43 41 40 38 37 38 40 43 43 37 29 25 22 21 21 21 28 18 25 31 44 32 33 95 26 31 27 55 59 96 87 64 56 55 58 61 63 60 56 47 47
39 36 36 35 36 40 44 45 37 28 24 24 20 15 14 12 16 16 21 26 26 29 25 25 54 100 99 44 82 90 99 97 99 100 96 80 85 79 74 72 73 69 60
36 38 42 46 47 41 29 24 20 15 14 13 12 12 10 9 13 16 15 15 17 18 23 37 36 26 27 30 27 30 54 62 67 76 78 97 99 99 94 87 83 79 77
46 45 38 31 27 22 20 15 11 12 12 14 16 19 17 15 13 18 18 20 22 22 22 21 25 25 27 26 26 29 31 34 38 53 58 65 65 98 99 100 99 99 93
30 29 26 22 18 16 18 14 13 14 14 14 14 17 20 25 27 21 22 18 16 15 14 14 16 19 22 25 25 26 27 29 43 41 41 59 75 79 91 99 98 98 98
19 21 18 14 11 12 12 12 13 14 15 16 18 22 24 23 20 17 8 5 4 4 4 4 4 4 8 31 34 81 40 30 39 28 39 57 64 77 91 82 87 100 99
19 20 22 14 11 12 13 14 15 15 15 17 18 17 13 7 5 4 4 4 4 4 4 3 4 5 8 27 79 92 98 99 90 53 54 95 99 99 96 86 78 90 100
26 28 19 15 14 14 14 16 16 16 15 13 9 5 5 5 5 5 5 5 4 4 3 3 4 5 7 14 28 32 74 39 76 83 55 34 55 55 97 98 96 90 90
34 28 20 16 16 17 18 18 16 12 9 7 5 6 6 6 5 5 4 4 3 3 2 2 4 5 10 12 9 9 9 14 18 20 21 21 22 23 19 60 94 87 94
32 25 19 19 20 20 19 15 11 8 7 5 6 6 6 5 5 4 4 5 12 9 3 3 6 7 11 15 25 15 13 13 16 13 11 30 26 15 13 18 39 73 83
32 23 22 23 23 21 16 11 7 6 5 6 6 6 6 5 5 5 5 6 12 20 22 5 6 6 9 16 23 28 16 16 16 30 37 28 25 14 17 13 15 23 43
24 24 26 27 25 19 12 8 5 5 6 6 6 6 6 6 6 6 6 6 8 15 67 8 19 8 8 15 18 32 48 66 51 45 41 76 46 71 33 16 13 10 11
27 29 30 29 22 14 12 7 5 5 6 7 6 6 6 6 6 6 7 8 10 13 41 67 15 17 23 31 55 73 69 64 57 64 61 100 96 65 97 76 22 43 13
32 33 32 25 17 14 10 6 5 6 6 7 7 6 6 6 6 7 8 11 16 22 53 89 49 49 69 81 72 71 58 38 40 43 48 70 71 100 78 88 98 79 88
36 35 29 20 16 14 9 6 5 6 7 7 7 6 6 6 6 7 10 17 40 40 60 96 98 90 93 72 86 80 41 34 30 33 34 34 48 96 86 99 99 100 100
37 34 24 19 18 14 8 6 6 7 8 7 7 6 5 5 6 9 25 42 61 79 73 95 99 100 85 53 48 44 47 37 27 33 41 52 68 94 91 94 94 99 100
39 27 23 22 18 10 7 7 8 8 8 7 7 6 4 5 9 14 24 44 100 100 100 100 100 100 63 49 44 46 52 49 27 28 58 49 72 73 73 71 59 62 61
29 27 26 18 11 9 8 9 9 9 8 8 6 5 6 9 17 24 25 34 87 100 100 100 99 80 74 47 52 48 44 39 39 39 63 54 97 92 100 94 92 81 79
30 28 18 13 11 11 11 10 10 9 9 8 6 7 13 18 24 28 45 82 100 80 70 73 74 52 49 50 60 46 41 39 39 38 72 95 96 93 96 95 96 99 97
28 21 16 15 15 14 13 12 11 10 9 8 8 14 22 25 27 66 100 97 43 40 44 46 48 47 52 54 47 50 39 52 50 66 82 99 90 94 95 94 96 95 92
26 21 20 20 18 16 14 13 12 11 10 10 12 18 25 29 47 96 98 53 48 47 44 39 42 49 50 41 44 63 84 92 94 78 78 91 90 96 90 85 93 96 94

GFSMA_700_rhum_009.txt.gz
RH
28 28 27 29 28 28 28 29 30 30 26 24 25 24 27 30 34 37 38 37 36 34 33 36 65 73 71 61 65 55 53 52 47 49 58 54 54 53 49 42 37 29 22
32 30 32 35 30 29 29 26 24 23 23 24 28 31 35 37 38 38 36 32 28 27 28 27 29 51 63 69 68 73 82 74 66 64 61 60 68 68 64 58 54 48 46
33 32 32 33 31 26 27 27 27 28 29 32 35 37 35 27 16 10 9 10 11 12 12 12 12 18 72 82 88 83 82 85 73 77 73 68 64 60 70 75 74 68 59
35 35 35 30 29 30 30 30 32 34 36 34 24 16 8 7 7 6 6 7 7 7 8 10 12 13 16 15 50 44 50 76 88 89 90 87 78 69 66 68 81 86 88
35 33 31 32 32 32 35 37 38 30 16 9 7 6 6 6 6 6 6 6 7 8 9 9 11 14 17 16 15 14 13 30 68 86 96 98 87 93 89 79 84 82 87
33 32 34 35 38 40 39 31 18 11 8 6 6 5 5 5 5 5 5 6 6 5 6 6 7 7 8 6 4 4 4 4 17 46 46 71 92 88 99 99 100 100 99
34 37 42 43 38 28 18 8 6 7 6 5 5 5 5 4 4 5 5 5 4 4 4 4 3 4 4 4 4 5 5 5 4 4 4 4 29 19 43 63 78 99 100
44 44 38 31 20 8 7 8 8 6 5 5 4 4 5 6 6 6 5 5 5 4 5 5 5 5 5 6 6 6 6 6 6 6 5 5 5 4 4 5 6 44 62
44 37 24 9 6 8 9 8 6 5 5 5 6 6 7 7 7 6 5 5 5 6 6 7 7 7 8 8 8 8 7 7 6 5 5 4 4 4 4 4 5 11 81
36 20 5 5 8 9 9 7 6 6 5 6 7 8 9 9 8 7 7 7 7 8 8 9 9 10 10 10 9 9 8 6 5 4 3 3 3 3 4 9 65 78 84
21 8 5 7 9 10 8 7 7 7 7 8 8 9 9 9 9 9 8 9 10 10 10 11 12 12 12 11 10 8 7 5 4 3 3 3 4 7 7 75 100 99 100
11 7 7 8 9 9 8 8 8 9 9 10 10 11 12 10 10 10 10 10 10 10 11 11 12 11 11 9 8 6 4 2 2 2 2 3 3 10 89 91 73 94 94
14 9 7 9 9 9 9 9 10 12 12 12 13 13 14 13 10 8 7 8 9 10 11 11 10 10 8 6 5 4 3 3 4 3 3 3 14 63 85 96 99 92 91
23 12 10 11 11 11 11 11 13 14 14 14 15 16 17 16 12 8 6 6 7 9 10 10 10 9 7 5 4 5 6 7 7 6 8 9 38 92 99 100 100 100 64
30 20 14 14 13 13 13 13 15 15 16 17 18 20 19 15 10 6 6 8 8 8 9 11 10 9 6 5 6 10 11 12 12 12 10 12 82 99 100 93 80 100 100
33 23 18 15 16 16 15 16 17 18 19 21 21 18 14 10 8 8 8 8 8 8 8 10 8 6 6 6 9 15 21 23 20 20 21 24 94 86 44 43 100 75 77
31 24 20 18 18 17 18 19 20 22 23 22 20 17 13 12 11 11 10 10 9 8 7 9 7 7 7 9 9 14 24 37 38 30 41 33 29 29 27 24 23 26 38
27 25 21 20 19 20 22 22 23 25 25 22 19 17 17 18 18 15 12 11 9 8 10 10 7 9 10 10 17 24 34 36 52 54 53 37 30 27 25 24 29 40 44
30 27 23 23 22 23 23 25 27 25 22 21 22 26 27 24 20 16 13 11 10 10 12 19 16 23 31 66 60 58 46 42 42 40 39 39 36 34 34 31 25 22 33
29 27 26 24 25 24 28 28 25 23 25 30 30 28 25 20 17 14 12 12 13 16 19 30 60 89 97 74 85 67 42 39 36 36 43 46 43 36 33 34 33 29 23
28 28 26 26 27 31 30 26 27 30 32 31 29 25 21 18 15 14 15 15 18 22 39 96 100 98 79 69 60 50 49 44 35 46 44 32 34 34 33 37 41 44 46
28 27 27 28 33 32 30 32 35 34 32 30 28 24 20 17 15 16 18 23 30 75 100 100 100 89 83 60 58 68 78 60 38 41 41 24 48 39 54 63 66 73 82
29 28 30 34 33 33 35 37 36 33 32 29 25 20 17 16 18 18 18 22 41 95 100 100 100 85 57 69 98 89 58 50 43 43 83 53 80 70 74 72 76 84 88
28 30 36 35 36 38 39 36 34 31 26 21 16 14 15 16 19 26 34 55 98 100 99 91 72 62 83 92 71 66 67 91 90 87 98 86 84 74 77 74 84 94 96
33 38 37 38 39 40 36 33 27 20 15 10 11 14 19 22 26 35 88 100 97 79 66 59 54 61 63 63 78 99 99 100 90 88 92 93 86 79 77 64 70 88 97
39 39 40 42 41 36 30 23 16 10 7 8 11 16 21 33 38 84 100 98 70 68 57 54 55 55 69 100 100 100 100 98 97 87 95 98 91 91 66 62 70 89 96

GFSMA_700_rhum_012.txt.gz
RH
30 28 28 29 29 30 30 26 24 25 27 27 28 30 34 36 35 29 23 18 15 13 15 15 15 18 24 29 52 73 79 83 93 91 84 82 79 75 66 60 55 53 52
33 34 34 33 32 31 28 27 28 28 30 33 35 35 32 22 12 7 6 7 7 8 9 9 10 9 10 14 25 51 70 71 73 76 87 85 85 88 86 76 75 75 70
38 39 37 36 32 32 30 29 32 36 37 34 23 13 10 8 7 7 6 6 6 6 7 8 9 9 8 10 14 29 60 75 79 80 78 82 85 84 82 87 85 81 79
42 40 39 36 34 32 32 38 39 35 22 11 8 8 7 6 6 6 6 6 6 6 6 7 8 8 8 7 8 9 10 10 26 78 35 82 83 86 87 87 88 87 81
42 37 37 35 34 39 40 37 25 14 6 6 7 6 6 5 5 5 5 5 5 6 5 5 5 5 5 6 6 6 6 4 4 4 6 15 37 80 87 87 86 84 84
39 39 38 40 43 41 33 22 9 6 8 8 7 6 5 5 4 5 6 6 6 5 5 4 4 4 4 4 4 4 4 4 4 4 4 4 3 7 42 75 90 88 89
36 40 45 44 39 31 14 6 8 8 8 8 6 5 5 5 6 7 7 6 6 6 5 5 5 5 5 5 6 6 6 6 5 5 5 5 5 5 5 4 10 21 65
45 48 46 38 22 6 6 8 9 9 8 6 6 6 6 7 7 8 8 8 7 7 7 7 7 7 7 7 7 8 8 8 8 7 7 7 7 7 6 6 6 5 5
52 48 38 21 6 7 9 10 10 9 8 7 6 6 7 8 8 9 9 9 9 9 8 8 8 8 8 8 9 9 10 10 10 10 10 9 8 8 7 6 6 5 4
49 38 21 10 8 8 9 10 10 9 8 7 8 8 8 9 9 9 10 9 9 9 9 9 9 9 9 9 10 11 12 13 13 12 11 10 9 7 6 5 5 6 9
35 24 16 10 8 8 9 10 10 10 9 9 9 9 10 10 11 12 10 10 10 10 10 10 10 9 9 10 10 12 13 14 14 11 10 8 7 5 4 4 6 61 93
31 24 17 12 10 10 11 11 10 10 10 10 11 12 12 13 12 12 11 11 12 11 11 11 10 10 9 10 10 11 12 12 10 9 9 8 7 4 4 14 76 81 85
35 30 24 17 13 12 12 12 12 12 12 12 14 14 16 16 16 16 14 13 12 11 11 11 11 10 10 10 11 10 9 8 8 7 7 6 5 5 5 7 60 92 98
44 38 27 18 14 14 14 13 13 13 14 16 16 17 16 17 17 18 17 15 12 11 12 14 15 15 14 12 9 8 7 7 7 7 7 8 8 8 11 11 69 100 100
54 46 33 21 17 16 15 14 14 14 16 17 17 17 17 18 18 18 18 18 20 20 14 18 20 19 13 10 9 8 9 9 9 9 12 17 18 18 30 100 84 99 100
62 53 34 23 21 18 17 16 16 18 18 18 18 18 19 19 20 22 25 26 26 23 23 20 22 17 12 10 10 10 11 12 13 14 21 23 22 48 100 100 100 100 97
64 49 28 25 21 19 18 17 18 19 18 18 20 20 21 21 22 24 26 26 24 19 16 22 18 14 12 11 10 12 17 31 42 31 28 27 29 66 66 65 90 100 100
61 34 28 23 21 19 18 19 19 19 18 19 20 21 21 23 26 28 28 26 23 18 16 15 15 13 12 11 12 12 17 26 49 41 34 35 38 34 38 41 35 45 86
41 30 25 22 20 19 20 20 19 19 20 21 21 21 25 28 28 28 26 22 19 17 17 20 16 15 17 41 38 31 33 37 39 36 36 43 42 41 41 39 83 95 71
31 27 23 22 21 21 20 19 20 20 21 20 23 28 29 26 22 19 18 17 18 20 21 26 51 41 76 100 93 78 42 37 35 36 39 35 29 30 32 33 30 29 29
27 24 22 22 22 22 21 20 21 20 20 26 29 24 18 16 13 12 17 19 23 26 49 89 84 96 100 82 71 62 48 42 38 42 34 27 37 40 43 48 44 40 42
26 24 23 22 22 23 24 25 23 23 29 27 19 16 12 7 7 10 15 19 26 77 100 99 100 96 84 77 57 54 56 50 35 35 64 62 79 68 72 72 69 66 64
24 25 24 23 25 26 26 25 29 30 26 19 15 10 7 7 10 12 13 20 36 86 100 100 96 82 60 59 64 63 56 64 74 69 88 78 80 73 76 77 78 74 68
25 24 26 29 29 28 29 33 31 26 20 15 10 7 8 9 12 19 32 68 100 81 79 77 65 62 65 66 71 89 92 90 84 81 98 94 73 77 83 77 78 78 76
26 28 30 30 29 33 36 32 27 20 19 13 8 8 12 17 27 41 98 80 58 60 61 57 56 59 77 96 99 99 93 97 86 78 96 90 78 80 83 71 72 83 86
28 29 30 35 39 39 34 27 21 19 15 9 7 10 22 33 42 82 65 59 58 56 50 49 65 90 100 100 100 100 100 97 93 73 94 96 84 91 85 72 76 84 74

GFSMA_700_rhum_015.txt.gz
RH
37 35 31 31 31 33 32 29 28 28 28 31 34 34 29 18 11 9 9 7 6 7 7 7 7 7 9 14 16 20 24 46 66 79 81 87 86 84 84 80 82 85 79
41 38 34 35 34 34 32 30 28 30 37 36 31 20 11 8 7 7 7 6 6 6 6 6 6 6 6 7 8 10 13 17 33 54 67 79 81 85 90 87 85 86 88
42 38 38 37 34 34 33 30 36 38 32 22 12 8 7 7 6 6 6 6 6 6 5 5 5 6 6 6 7 7 8 10 16 32 41 59 58 70 82 82 79 82 85
43 42 39 36 35 32 34 41 39 32 22 9 7 8 7 7 6 6 6 5 5 5 5 5 5 5 5 5 5 5 5 5 6 7 15 13 17 24 55 68 67 81 80
45 42 35 32 32 38 42 39 32 18 5 7 8 8 7 6 6 5 5 5 6 6 6 6 5 5 5 4 4 4 4 4 4 3 3 3 3 3 19 13 11 73 77
42 37 33 34 42 43 40 29 9 5 7 8 9 8 7 6 5 5 6 7 7 7 7 7 6 6 6 5 5 5 5 5 5 5 5 4 4 4 4 4 3 5 16
39 34 41 46 46 41 25 6 6 8 9 10 10 8 7 6 7 7 7 8 8 8 8 8 8 8 8 7 7 7 6 6 6 6 6 5 6 5 5 5 5 4 4
39 46 49 50 42 23 8 7 8 9 10 11 11 11 10 10 8 9 9 9 9 9 9 9 9 10 10 9 9 9 9 8 8 8 8 8 8 7 7 7 7 7 6
50 54 52 40 23 12 8 8 9 10 11 11 12 12 12 12 12 11 10 11 11 11 10 10 11 11 10 10 10 9 9 9 8 8 9 9 9 9 9 9 9 9 9
55 50 38 28 18 13 10 11 13 14 15 14 13 11 10 10 11 12 13 13 13 12 12 11 10 10 10 9 9 9 9 9 9 9 10 11 11 12 14 14 13 11 11
48 40 32 25 19 16 14 14 16 16 16 15 13 12 11 12 13 13 14 14 13 11 9 8 7 7 8 9 9 10 11 12 12 12 12 11 12 14 15 14 13 12 12
46 45 41 32 25 19 16 17 18 18 17 14 13 13 13 14 14 14 13 12 10 7 6 6 6 7 8 10 12 14 16 17 18 17 15 14 13 12 12 12 12 12 11
57 57 53 44 33 21 17 18 19 19 16 14 14 15 16 16 15 14 12 11 8 6 6 6 8 11 14 16 17 19 20 21 19 17 15 13 11 9 9 10 10 9 10
56 60 61 55 40 22 18 20 20 18 16 16 16 17 16 16 15 16 15 12 7 6 6 7 10 14 18 22 23 22 19 17 16 14 12 11 10 9 9 9 9 9 10
58 61 64 62 42 21 20 21 20 18 17 17 17 17 16 16 15 15 17 19 20 11 6 8 13 17 23 24 22 19 16 14 13 12 11 10 11 11 10 9 8 9 23
62 63 68 65 39 21 22 21 19 18 18 18 18 17 17 15 14 15 18 21 24 23 14 12 14 17 18 18 18 16 17 17 19 21 23 26 20 18 15 15 20 26 46
65 68 71 59 24 24 23 20 20 19 19 19 19 17 15 13 14 18 20 19 18 18 16 13 11 9 8 10 13 18 25 32 55 53 56 39 28 25 28 57 98 96 87
68 71 70 32 25 24 21 21 20 20 19 19 17 15 14 17 18 18 17 17 14 10 10 8 5 4 7 10 14 18 23 48 99 98 58 39 33 34 40 44 37 40 71
72 73 44 27 25 23 22 21 21 21 21 18 16 17 20 20 19 18 17 13 8 6 8 15 11 11 12 20 28 32 51 70 73 62 42 46 48 45 39 32 27 28 49
76 50 29 26 23 23 22 22 22 22 18 19 22 22 22 20 19 17 12 8 7 8 12 16 16 34 55 55 72 94 64 60 50 45 46 41 37 38 48 50 43 34 30
48 30 27 24 23 22 22 22 21 19 20 22 22 24 22 20 16 10 8 8 11 18 26 40 53 79 76 72 73 68 57 46 42 46 66 70 75 71 68 73 76 72 69
29 26 23 23 23 23 23 22 21 20 21 23 25 23 22 16 10 7 10 17 29 60 75 100 94 84 67 67 57 53 58 79 69 70 83 69 81 73 68 72 71 72 71
25 24 24 23 25 24 23 21 20 21 24 26 25 23 16 9 8 12 20 28 61 50 67 87 71 58 56 58 82 90 88 83 73 79 100 72 80 69 74 74 79 82 80
24 24 25 26 24 24 20 21 23 24 27 26 23 15 8 7 15 27 32 46 44 52 58 52 52 63 87 100 100 96 88 84 78 86 100 85 77 77 80 81 87 93 85
24 27 27 25 23 22 23 24 26 28 28 24 17 9 8 18 28 34 42 43 46 48 44 55 80 90 94 97 100 97 90 92 77 77 97 89 81 81 77 79 85 91 88
26 26 25 26 27 24 28 28 30 30 24 19 10 7 17 28 32 38 45 46 42 46 66 72 80 88 98 100 100 100 97 96 94 71 95 95 86 92 80 81 85 88 73

GFSMA_700_rhum_018.txt.gz
RH
39 42 40 37 35 34 32 31 30 29 27 34 35 30 20 12 8 6 7 7 7 7 6 6 6 6 7 7 8 8 8 10 15 23 35 56 80 86 89 91 86 81 77
42 43 43 39 38 35 33 31 28 30 36 36 28 18 8 6 7 7 7 6 6 6 6 6 6 6 6 6 6 6 6 7 8 10 13 20 40 64 76 84 85 92 88
42 42 44 42 39 36 33 29 33 38 35 29 14 5 6 8 8 7 7 6 6 5 5 5 5 5 6 6 5 5 5 5 5 5 7 9 15 22 35 42 59 60 74
39 44 46 44 39 35 32 38 40 37 27 9 5 8 8 9 8 7 6 6 5 5 6 6 7 7 6 6 6 5 5 5 4 4 4 4 4 5 6 10 14 12 31
43 47 46 42 36 37 41 41 39 25 5 5 8 9 10 9 8 7 6 6 6 7 7 8 8 8 8 8 7 7 6 6 6 5 5 5 4 4 4 4 4 4 3
48 48 40 36 40 45 44 41 26 6 6 8 9 10 10 10 9 9 8 8 8 8 8 8 8 9 9 9 9 9 9 8 8 8 7 7 7 6 6 6 5 4 4
51 41 37 45 48 47 41 22 8 7 9 10 11 11 12 12 12 12 11 10 10 10 10 10 10 10 10 10 10 10 10 10 10 9 9 8 8 8 7 6 6 6 6
39 41 48 50 47 36 20 12 9 9 12 15 17 18 18 16 15 14 13 12 12 12 12 13 13 12 12 12 11 11 10 9 8 8 7 7 7 6 6 6 7 7 7
44 48 48 43 33 24 17 14 12 14 16 18 20 20 18 17 17 16 14 13 13 13 14 13 13 12 12 10 9 7 7 6 7 7 7 8 7 7 7 8 8 8 9
47 46 41 36 29 26 20 16 16 17 19 20 21 20 20 18 17 18 17 16 16 15 14 13 11 10 8 7 6 6 6 6 6 6 7 8 8 10 11 11 11 11 10
46 44 47 50 46 37 29 22 17 18 21 22 22 21 18 17 16 16 19 18 15 13 11 8 6 6 6 6 6 6 6 7 7 8 9 11 12 14 15 17 16 14 11
52 54 56 56 55 52 44 30 18 19 22 22 21 19 18 18 17 15 15 14 12 8 6 6 6 6 7 7 8 8 8 9 9 9 11 14 16 19 21 21 20 18 16
52 54 55 54 55 59 58 37 17 20 22 21 19 18 18 17 16 15 14 11 7 6 6 7 7 7 8 9 10 10 10 10 11 11 13 17 21 22 22 21 20 18 17
56 58 59 59 59 63 63 33 17 22 22 20 19 18 17 17 17 17 14 10 7 7 7 7 8 9 10 11 12 10 9 8 6 6 9 13 16 17 17 16 14 14 15
61 62 62 64 64 65 65 22 20 23 21 20 19 18 18 19 18 16 14 14 13 8 8 9 10 11 13 12 9 6 5 6 7 8 9 8 10 12 15 15 19 17 14
66 66 66 67 68 68 53 20 23 22 21 20 19 20 20 18 16 16 16 18 18 18 12 11 11 12 11 6 5 5 6 7 9 14 18 22 30 46 68 42 39 42 48
71 69 68 71 72 71 25 23 22 21 22 21 22 21 19 17 16 18 19 20 20 20 18 9 12 9 5 5 6 10 16 29 41 39 39 45 81 95 98 57 45 57 94
75 72 72 75 73 39 24 23 22 24 22 22 21 19 17 17 18 20 21 21 21 18 11 8 6 5 8 12 16 21 31 39 46 48 51 50 46 48 70 50 99 100 100
79 73 76 74 50 26 25 23 24 22 23 24 20 17 17 18 20 21 21 20 15 9 7 13 13 17 19 24 26 33 42 38 38 40 46 52 61 73 70 63 57 47 38
78 75 73 55 28 26 24 24 23 25 24 22 18 19 21 22 22 20 18 13 8 11 18 24 27 37 40 41 48 42 33 39 55 73 77 76 86 86 85 84 78 71 68
76 74 56 30 26 24 25 24 25 24 21 17 20 21 22 21 20 18 10 8 13 22 25 43 51 50 46 44 41 42 63 68 58 76 85 73 84 76 73 74 74 72 70
75 55 31 26 25 25 24 27 26 21 19 21 20 21 22 21 18 10 8 17 26 32 42 51 45 42 43 54 71 72 74 74 59 73 89 70 86 70 76 86 88 87 84
47 31 26 25 24 25 28 26 23 20 21 21 23 23 23 17 9 8 16 18 25 37 52 48 44 57 73 75 81 81 77 77 75 81 95 72 81 69 82 81 90 100 98
28 26 25 24 26 27 24 23 20 20 22 24 26 24 18 9 8 17 19 23 31 37 37 49 76 79 81 86 93 94 89 85 77 83 98 78 81 77 80 80 98 100 96
24 24 24 28 25 25 22 20 21 22 24 26 25 18 9 8 20 23 27 28 31 35 59 74 80 84 86 92 100 95 92 88 78 76 97 83 79 82 81 97 100 97 82
22 26 29 25 24 20 22 24 25 25 28 25 18 9 9 20 24 26 32 34 37 63 64 67 76 83 91 95 100 100 93 86 90 76 96 87 83 96 75 97 100 96 87

GFSMA_700_rhum_021.txt.gz
RH
45 42 39 40 39 35 34 34 33 32 29 32 35 33 26 15 6 6 7 7 7 7 6 6 6 6 6 6 6 6 7 7 8 9 14 20 26 36 54 74 86 91 92
46 43 40 41 40 36 35 34 32 30 37 37 34 26 11 5 7 8 8 8 7 7 6 6 5 5 5 5 5 6 6 5 6 6 6 8 11 15 21 36 55 77 85
49 43 40 42 39 38 35 32 34 39 39 33 18 5 5 8 9 9 9 8 7 7 6 6 6 6 7 7 7 7 7 6 6 5 5 5 5 5 7 11 18 30 47
47 40 41 41 41 37 33 38 42 41 33 12 5 6 8 10 10 11 10 10 9 8 8 8 7 8 8 8 8 8 9 8 8 8 7 6 5 5 4 4 4 5 6
44 41 42 46 41 35 40 45 42 33 12 6 8 9 10 11 12 13 13 13 12 11 10 9 9 9 9 9 9 9 9 9 9 10 9 9 9 8 7 6 5 5 4
44 40 46 44 36 42 45 42 29 14 8 8 10 12 14 16 17 17 16 15 14 13 12 11 11 10 10 11 11 12 11 11 11 11 11 11 10 9 8 8 8 8 7
40 46 45 38 45 45 39 27 18 12 10 11 14 16 18 19 18 17 16 16 15 14 13 13 12 12 13 13 13 13 12 12 12 11 10 8 7 6 6 6 5 5 5
52 48 40 47 47 37 29 22 19 16 14 14 17 19 20 20 19 20 19 18 16 16 15 14 14 15 14 14 14 13 12 10 9 8 7 6 6 5 6 6 5 5 5
50 41 46 46 39 34 36 35 30 22 16 16 19 22 21 21 21 20 21 20 19 18 17 16 15 14 14 12 10 8 7 6 6 6 6 6 6 6 6 5 5 5 5
41 47 45 43 51 54 54 52 46 33 18 16 19 23 24 24 23 21 20 21 20 18 16 14 13 10 8 6 6 6 7 7 7 7 7 7 7 7 7 7 7 7 7
47 48 49 54 54 53 54 54 55 51 25 13 17 22 24 24 23 23 23 21 19 16 14 10 7 7 7 8 8 9 9 9 8 8 7 7 6 6 7 7 8 8 9
49 51 53 54 55 57 58 56 55 55 25 13 18 23 24 24 24 23 21 18 16 12 8 7 7 8 9 9 10 9 8 7 6 6 6 6 7 7 7 8 8 10 13
50 51 54 57 60 62 62 61 60 59 24 16 21 23 23 22 20 17 16 14 10 8 8 9 9 10 10 10 8 7 6 7 8 8 8 6 5 4 3 3 6 43 84
51 53 58 63 64 64 65 66 64 56 23 20 22 22 22 20 17 16 14 11 8 8 9 10 11 10 9 8 8 9 8 8 6 4 4 4 4 4 4 4 13 20 48
55 60 65 68 67 66 68 69 67 40 23 22 22 22 20 18 18 15 12 10 10 10 12 11 10 9 9 9 8 6 5 6 9 12 12 11 12 12 12 12 13 16 78
59 65 70 72 71 70 71 71 58 29 24 22 23 20 19 18 16 14 12 13 13 13 10 10 8 9 9 6 5 10 14 18 20 20 21 22 23 24 24 31 28 32 54
64 69 74 76 77 73 74 72 37 26 23 23 21 20 20 17 14 14 14 16 17 16 12 6 8 7 5 8 13 23 29 29 24 23 24 26 29 36 38 35 30 30 36
69 74 79 83 80 75 77 49 30 24 24 21 21 19 17 15 14 15 17 18 17 17 14 9 5 5 8 17 22 21 23 26 30 42 58 62 62 60 64 67 69 68 68
73 78 85 85 78 79 60 34 25 24 22 22 20 17 15 13 14 17 19 18 17 13 8 6 8 11 18 19 20 24 31 46 62 66 68 69 72 76 72 72 71 71 70
78 83 85 81 82 69 38 26 24 23 23 20 18 15 14 15 18 20 20 17 12 7 11 17 19 22 22 27 33 49 53 59 65 68 66 69 76 76 76 76 73 72 70
82 84 83 86 79 39 27 25 23 23 20 18 16 15 16 19 22 21 17 11 7 12 18 23 29 28 30 48 59 60 63 62 58 72 68 63 72 66 67 70 76 79 86
84 84 87 76 38 27 25 24 24 20 17 15 15 17 21 23 21 17 10 8 17 21 26 32 29 35 64 67 69 67 68 67 50 63 73 62 78 67 80 82 84 88 86
84 85 59 36 26 26 25 24 19 17 16 16 19 22 22 20 16 10 6 12 17 25 38 38 46 70 70 75 75 70 64 65 51 54 82 61 73 72 84 96 99 92 81
76 44 31 26 26 25 22 19 17 15 16 21 22 22 19 15 8 6 11 17 20 32 38 60 72 76 80 81 86 83 78 71 53 58 96 65 76 77 84 99 98 93 92
37 26 26 26 25 22 19 17 15 18 20 21 20 18 12 6 6 14 20 20 27 41 62 71 80 83 84 86 92 86 86 77 61 62 90 71 74 73 78 98 97 96 96
26 26 26 24 20 18 16 16 20 21 20 16 13 7 6 7 14 22 23 30 41 64 64 65 70 78 84 90 97 100 100 91 87 65 91 75 74 86 57 85 95 97 96

GFSMA_700_rhum_024.txt.gz
RH
46 46 45 41 40 40 36 38 37 34 31 29 36 36 33 24 9 6 7 8 8 8 7 7 7 6 6 5 5 5 5 5 5 6 6 8 10 15 21 30 40 66 87
48 48 46 41 39 41 39 38 35 31 31 36 36 32 15 6 6 8 9 9 9 9 8 8 7 7 7 7 7 7 8 8 7 7 6 6 6 6 7 10 14 20 29
52 48 48 41 39 42 42 37 31 34 39 38 32 13 5 7 9 10 11 11 11 12 11 11 11 10 9 9 9 9 9 9 9 9 9 8 7 6 6 5 5 6 8
53 48 47 40 44 44 40 33 37 39 37 27 12 7 8 10 11 13 14 14 15 16 15 14 14 12 11 10 10 10 10 10 10 10 10 10 10 10 9 7 6 5 4
54 48 45 43 48 44 34 38 40 34 20 11 8 9 11 14 16 17 18 17 17 16 16 15 15 14 14 13 12 12 11 11 11 12 12 12 11 10 10 10 10 10 9
50 50 43 46 47 39 40 40 30 20 15 13 12 12 15 17 19 19 19 18 18 18 18 17 17 16 15 14 14 13 13 13 14 14 14 13 13 12 12 11 10 9 9
52 62 44 49 41 43 42 30 23 21 18 16 15 16 18 20 20 21 20 21 20 20 20 19 19 18 18 17 16 16 15 15 15 14 13 12 11 10 8 7 6 6 5
73 97 55 48 43 46 34 34 42 41 37 29 20 16 18 20 22 22 23 22 22 21 21 21 20 19 18 17 16 15 14 12 10 8 7 6 6 6 6 6 6 6 6
100 74 69 43 49 40 48 51 50 50 50 49 37 16 14 16 20 22 24 23 23 23 22 20 18 16 15 14 12 9 7 6 7 7 8 8 8 8 8 8 8 8 8
98 84 52 49 45 51 50 50 52 52 52 50 46 19 13 16 19 20 20 22 23 23 20 17 15 12 9 8 7 8 8 9 10 11 11 10 10 9 8 8 8 7 7
96 67 49 50 52 50 52 55 57 58 58 57 54 32 18 18 22 24 25 25 23 20 19 16 12 8 8 8 10 11 12 12 11 9 8 6 5 5 4 4 5 5 5
64 49 50 52 52 54 58 60 61 61 61 61 55 37 23 22 24 26 26 23 21 18 15 11 9 10 11 12 12 11 9 7 6 5 4 4 3 4 4 5 6 7 9
51 51 52 54 57 61 63 64 63 62 64 64 52 35 23 24 25 25 22 19 17 13 10 10 11 13 12 10 8 7 5 4 4 3 3 3 3 3 3 3 4 7 10
49 53 55 58 63 67 68 67 65 64 67 66 46 29 23 24 24 20 18 16 12 10 11 12 12 11 10 7 6 5 4 4 3 3 3 5 8 8 8 8 7 10 20
51 56 60 66 69 71 73 73 70 69 70 62 38 24 24 24 20 18 15 12 11 12 13 12 11 10 9 7 6 5 4 4 7 10 12 11 13 15 15 15 14 13 16
57 61 66 69 72 76 79 79 75 72 72 51 29 23 24 20 18 15 12 11 10 10 12 11 10 9 8 7 5 6 8 12 12 13 14 20 27 30 31 32 31 28 24
61 65 69 72 76 79 83 83 76 76 66 36 24 24 20 18 14 13 12 10 11 11 9 7 8 8 6 5 7 14 20 16 14 25 40 48 51 49 49 51 48 49 50
65 67 70 75 78 82 85 83 80 80 43 24 24 20 18 15 13 12 11 12 12 12 11 6 7 5 5 8 15 21 18 25 44 44 51 57 53 52 58 56 59 61 55
67 70 74 78 82 86 87 84 87 49 26 24 21 18 15 13 12 12 14 13 13 12 10 6 3 4 7 14 19 19 38 51 53 54 58 65 58 64 63 65 68 65 61
70 75 79 87 88 89 87 89 52 27 24 22 18 16 14 12 14 14 13 13 13 9 6 4 8 10 12 21 28 49 50 56 55 60 54 51 52 58 62 69 69 68 71
76 81 94 90 91 91 87 51 26 24 22 18 17 14 13 15 14 14 14 11 7 5 6 15 17 19 23 32 55 58 57 56 48 61 58 39 49 58 66 68 72 77 73
84 97 93 93 93 81 46 25 24 22 18 16 13 14 14 12 12 10 6 5 5 8 15 20 22 29 42 60 65 63 63 56 45 55 71 38 65 59 72 73 81 73 74
97 96 97 94 67 35 25 24 21 18 15 13 15 14 13 12 6 4 4 5 7 16 23 27 31 55 67 74 78 70 63 66 60 63 80 44 65 60 72 84 86 80 89
98 98 76 52 27 25 24 20 18 14 14 15 14 14 8 4 4 4 4 6 15 21 30 42 65 70 80 83 86 84 76 70 58 69 94 64 64 64 65 94 96 97 100
89 56 33 25 24 23 19 16 14 14 14 13 12 5 4 4 5 5 9 16 18 27 51 69 73 82 85 89 93 90 84 81 75 68 87 79 62 65 63 80 95 88 85
40 25 26 24 21 19 15 14 15 15 13 10 5 4 5 5 6 14 20 21 26 55 66 68 72 80 86 85 90 97 100 92 87 70 88 74 64 78 52 62 70 83 79

GFSMA_700_rhum_030.txt.gz
RH
49 48 47 48 48 45 39 37 34 35 35 33 30 28 32 32 31 27 16 6 6 8 9 10 11 11 12 12 13 13 12 11 10 10 9 9 8 8 8 7 6 6 6
50 50 49 50 50 49 43 38 36 35 35 32 28 31 31 28 21 13 8 8 10 11 13 14 15 16 16 16 15 15 15 14 14 13 13 12 11 10 10 10 10 9 8
48 48 49 50 51 51 46 40 36 35 34 29 31 29 21 13 9 8 10 12 15 17 18 18 17 16 16 16 16 16 16 16 15 15 15 14 14 13 13 13 12 11 11
52 50 51 49 50 54 47 40 35 35 32 32 29 20 14 11 10 11 12 15 18 19 19 18 18 18 19 19 19 19 18 18 17 17 16 16 16 15 15 14 14 14 14
53 54 53 52 50 52 47 40 37 35 32 32 23 21 23 21 17 14 13 14 17 19 20 20 21 21 21 21 21 20 20 19 19 18 17 17 17 17 17 17 17 17 16
58 60 59 51 49 51 47 42 39 35 34 28 34 35 35 34 34 33 28 19 16 17 19 21 22 22 22 22 22 21 21 20 19 19 18 18 17 17 16 15 14 14 14
61 66 63 57 51 56 49 46 39 39 32 39 36 37 38 42 40 38 32 26 21 17 15 16 18 19 20 21 21 21 21 20 19 18 17 15 13 11 10 8 7 7 6
66 67 73 61 58 69 60 48 42 38 42 40 42 45 45 45 48 48 46 42 37 30 23 20 21 23 24 24 22 21 19 18 16 13 11 9 8 8 8 9 9 10 10
66 70 76 67 75 85 86 50 45 42 44 46 50 51 51 50 50 52 52 50 42 30 24 24 25 25 23 21 20 18 16 14 11 10 10 11 12 13 13 13 12 11 10
69 67 70 76 86 75 97 55 48 48 46 51 55 55 54 53 53 53 55 53 44 29 25 25 25 22 20 18 15 12 11 11 13 14 14 13 11 10 8 8 7 7 6
60 65 76 85 84 98 96 55 52 51 53 58 58 56 55 55 55 55 55 56 45 27 26 25 22 20 18 14 12 14 15 15 13 11 9 8 7 7 7 6 5 4 4
60 69 86 92 84 99 95 58 55 54 59 63 62 60 61 60 59 60 61 59 39 27 25 22 19 15 13 14 15 16 15 12 10 9 8 8 7 6 4 4 3 2 2
62 72 92 94 96 93 86 56 56 57 62 65 66 67 66 65 63 65 66 47 28 26 23 19 14 14 15 17 15 12 10 8 8 7 6 5 4 3 2 2 2 3 4
69 84 99 80 100 97 66 58 59 61 64 66 68 71 72 70 68 70 56 28 26 23 19 14 15 16 16 13 9 8 7 7 6 4 3 3 2 2 3 4 5 6 7
86 100 94 97 95 82 60 61 62 64 66 68 71 73 74 73 73 66 30 26 22 18 15 16 18 15 11 8 6 6 5 4 3 3 2 3 4 6 7 9 12 21 31
94 96 84 93 78 69 62 65 67 67 67 70 73 76 76 76 74 35 26 21 16 15 18 16 13 9 7 6 5 4 3 3 3 4 6 8 10 24 34 35 39 41 41
79 97 100 98 68 63 66 69 70 70 72 74 79 78 80 78 39 26 21 16 15 15 14 12 8 6 5 4 4 3 3 4 6 8 12 21 40 45 46 48 46 42 39
96 86 84 95 68 69 70 73 72 72 75 78 83 82 82 39 25 20 16 16 14 12 9 7 6 5 4 4 4 4 6 10 12 17 40 43 52 51 52 48 44 41 40
99 99 97 92 100 76 71 73 74 80 78 86 87 83 36 25 19 16 16 14 11 8 6 5 4 4 4 4 5 9 12 14 30 46 51 53 56 55 53 50 48 50 43
100 99 100 100 100 74 75 82 93 91 91 93 85 29 25 18 16 16 13 10 7 6 5 4 4 4 5 8 12 16 23 46 44 52 52 53 58 54 54 54 58 55 51
100 100 100 98 82 77 88 98 94 96 97 82 26 23 17 16 15 13 9 7 6 5 4 4 4 5 10 13 34 51 52 51 50 55 53 51 49 53 48 60 65 63 59
99 96 100 96 95 97 97 97 98 98 59 26 20 17 17 14 12 8 7 6 4 4 4 5 7 12 16 50 61 62 65 59 48 56 56 48 62 54 55 64 63 69 62
100 99 98 98 92 96 97 98 92 30 25 18 17 16 14 11 8 7 6 5 4 4 5 11 14 26 54 63 64 68 72 66 59 61 69 51 64 53 56 56 64 74 72
99 90 89 91 94 98 97 53 27 21 18 18 16 14 10 8 7 6 5 4 4 5 11 15 34 61 65 69 74 75 69 68 62 66 74 58 64 50 50 48 58 67 79
84 88 97 98 97 58 27 23 19 18 18 15 13 10 9 7 6 5 5 5 4 8 16 42 67 69 76 79 79 77 76 67 58 60 73 79 63 50 46 40 57 66 72
98 98 95 48 28 25 19 19 18 16 15 12 10 9 8 6 5 6 6 5 6 14 35 62 67 73 74 78 83 84 80 74 76 64 89 84 72 77 46 42 51 65 66

GFSMA_700_rhum_033.txt.gz
RH
48 48 48 49 49 50 49 47 42 36 33 31 32 30 26 28 28 25 20 12 8 8 9 10 11 12 13 14 15 15 15 14 14 14 13 12 12 11 11 10 10 9 8
48 48 48 49 48 48 48 50 46 40 35 32 32 28 29 27 20 13 9 9 10 11 13 15 16 17 17 17 16 16 15 15 15 15 14 14 14 14 14 13 13 12 12
51 48 47 47 47 47 48 51 49 42 36 33 32 29 28 20 16 12 10 11 13 15 17 19 19 18 18 18 18 18 18 18 18 18 18 17 16 16 15 15 14 14 14
49 49 49 50 50 49 49 49 50 44 37 34 31 30 24 21 22 21 18 15 13 14 15 18 19 20 20 21 21 21 20 20 20 20 19 19 18 18 17 17 16 16 16
43 44 50 54 53 53 50 50 51 45 39 35 33 28 30 32 31 30 31 31 29 24 19 16 17 19 20 21 22 22 22 21 20 20 20 19 18 18 17 17 17 17 17
45 48 53 58 59 57 53 53 52 47 41 37 33 35 35 33 36 38 39 40 39 36 30 25 18 16 16 16 17 18 19 20 20 20 19 19 18 18 17 17 16 16 14
45 47 53 58 61 66 58 57 55 50 42 38 38 39 39 42 45 46 46 46 47 46 44 40 35 28 24 22 22 22 22 22 21 20 19 18 17 17 16 14 12 10 9
49 48 55 60 64 68 63 62 70 55 44 41 43 43 45 48 48 47 47 48 48 49 49 47 38 29 25 24 24 23 22 20 19 18 17 15 14 12 11 10 10 10 11
59 52 54 63 72 69 70 76 86 67 46 46 46 47 50 49 49 48 48 49 51 53 54 50 37 28 25 24 23 21 20 18 16 14 12 12 12 12 13 14 14 13 12
62 59 57 73 77 72 78 86 75 90 50 49 49 52 55 55 52 51 52 54 56 55 56 49 33 26 24 22 21 19 16 13 13 14 15 16 15 14 12 11 10 10 10
65 63 62 76 78 81 88 85 82 91 54 51 50 55 58 56 55 56 55 59 60 60 57 40 27 25 23 20 17 14 14 16 17 16 14 13 11 10 10 10 9 9 8
63 65 66 74 74 92 97 90 95 92 67 53 53 58 60 59 60 60 58 58 56 58 56 30 26 23 19 15 15 16 17 17 16 15 13 12 10 9 8 7 6 5 4
64 60 59 63 77 98 100 89 100 94 63 56 57 62 64 64 64 65 64 62 60 58 49 27 23 18 15 16 18 17 16 13 12 11 9 8 7 6 4 4 3 2 2
64 58 56 67 86 96 99 90 96 94 61 60 61 65 65 67 69 70 68 67 65 58 31 25 19 16 17 18 16 13 11 10 8 7 5 4 3 3 2 2 3 3 4
67 56 60 74 96 100 97 100 94 92 63 65 67 68 69 71 73 75 75 73 66 34 25 20 17 19 19 15 11 9 8 6 5 4 3 2 2 3 4 5 6 8 12
64 57 62 83 92 99 96 90 98 82 67 70 71 70 71 74 76 78 78 70 31 25 19 17 20 17 13 10 8 6 5 3 2 2 3 3 5 6 8 11 17 31 39
61 60 66 90 100 98 81 98 100 71 72 75 74 74 79 78 82 82 75 30 24 17 19 20 15 11 9 6 5 4 2 2 2 3 4 7 9 17 31 37 42 45 46
61 67 85 100 94 98 100 97 80 73 75 78 77 90 93 85 88 80 29 23 17 19 17 14 10 8 6 4 3 2 2 3 4 8 13 30 37 43 44 47 47 46 43
71 98 96 94 100 88 98 98 95 78 82 78 90 98 94 94 83 27 21 18 19 15 11 8 7 5 4 3 3 3 4 6 11 33 42 43 45 48 51 51 50 47 46
86 98 100 100 97 100 100 100 96 86 88 98 98 96 98 76 25 19 18 18 14 10 8 6 5 4 3 3 4 5 6 24 39 45 48 48 50 49 52 56 53 51 53
90 100 100 100 100 100 100 99 98 98 98 98 98 97 55 24 18 18 16 13 9 7 6 4 4 3 3 4 7 15 37 42 42 47 45 41 46 48 52 53 52 53 61
99 99 99 99 99 99 98 99 98 97 98 98 92 28 20 18 17 15 11 8 7 6 4 4 4 4 5 9 31 49 50 44 30 47 47 42 48 43 46 48 48 58 65
100 100 99 99 99 98 99 96 100 100 94 43 24 19 18 16 14 10 8 7 5 4 5 5 5 6 13 47 57 53 52 50 48 53 53 44 57 48 54 51 55 63 67
99 99 99 96 92 99 99 100 96 44 26 20 19 18 16 12 9 8 6 4 4 5 6 6 7 16 46 62 64 63 59 60 54 59 69 61 61 54 57 56 62 65 72
97 94 93 92 96 100 88 34 26 20 20 19 17 14 10 8 7 5 4 4 5 7 6 8 19 58 69 75 75 70 72 66 55 60 76 79 64 57 55 52 60 65 75
94 98 100 99 63 29 26 20 21 20 17 15 12 9 8 6 4 4 5 7 8 7 7 15 60 71 75 75 83 87 87 81 78 67 84 79 70 75 49 49 51 62 68

GFSMA_700_rhum_036.txt.gz
RH
50 50 48 50 49 49 49 49 50 49 44 38 34 31 31 28 28 24 17 12 10 9 9 10 12 13 14 15 16 16 16 16 15 15 15 14 13 13 12 12 12 12 11
53 51 49 49 49 48 48 49 50 50 49 43 36 34 31 29 26 19 13 11 10 11 13 15 17 18 18 18 18 17 16 16 17 17 16 16 16 15 15 15 14 14 14
51 51 52 51 48 48 49 48 47 47 49 46 40 35 32 29 23 20 19 17 15 13 13 15 17 19 19 20 19 19 19 20 19 20 20 20 19 19 18 18 17 16 16
52 54 52 50 51 51 49 48 47 48 50 48 42 36 32 28 28 32 32 31 31 30 27 23 19 17 17 18 19 20 20 21 21 21 21 21 20 20 20 19 18 17 17
50 47 47 48 46 48 51 52 52 51 54 51 44 38 33 31 34 32 35 38 40 41 40 39 35 31 26 20 18 16 16 16 16 16 17 18 17 17 17 18 17 17 17
48 50 49 48 48 55 59 64 64 54 57 54 46 39 34 36 36 40 42 44 44 44 45 46 46 44 41 37 33 28 25 22 21 20 19 19 19 19 18 18 18 17 17
51 56 52 46 50 64 66 67 67 58 62 58 47 40 38 39 42 46 47 47 46 46 46 48 48 48 48 43 37 31 27 24 23 22 21 20 19 18 18 17 17 16 15
57 60 58 54 56 67 70 70 68 68 74 69 49 42 43 44 47 49 49 48 46 46 48 49 48 49 48 45 38 30 25 24 22 21 20 19 18 17 16 15 14 12 12
61 68 68 62 61 65 72 73 69 75 82 81 55 47 46 47 51 53 52 49 48 49 50 51 52 51 49 46 35 26 23 22 21 20 18 16 14 13 13 14 14 14 14
65 67 66 66 67 66 76 80 73 82 83 87 75 51 51 50 54 55 54 52 54 56 58 58 57 56 52 43 30 24 22 20 18 15 14 14 15 16 16 16 15 15 14
68 70 71 68 63 64 77 89 82 89 89 92 86 55 54 54 57 59 57 56 59 62 63 62 63 60 50 33 25 23 20 16 15 16 17 17 17 16 15 14 14 13 12
69 73 72 68 65 68 76 93 91 97 90 98 89 74 59 57 60 61 59 60 62 65 68 69 67 58 39 26 23 19 16 17 18 19 18 17 15 13 11 9 8 7 6
70 72 74 68 70 75 74 87 97 96 95 97 99 89 63 60 61 64 64 63 61 61 63 67 65 46 28 23 18 17 19 20 19 17 15 12 9 7 6 4 4 3 2
69 65 77 75 80 81 78 89 98 85 95 100 99 92 65 64 67 68 67 66 65 64 65 69 60 33 23 18 18 20 19 16 14 11 8 6 4 3 2 2 2 2 2
68 71 79 80 82 76 68 90 97 94 99 99 100 97 71 71 73 70 69 72 76 69 65 64 44 23 18 20 21 18 15 11 8 6 4 3 2 2 2 2 2 2 3
70 75 79 78 72 71 74 96 100 100 100 97 99 91 74 77 78 76 78 85 81 75 70 56 25 19 20 20 16 13 10 7 5 3 2 2 2 2 2 3 4 6 8
73 69 76 76 81 71 83 100 100 99 100 100 100 89 76 80 79 77 92 91 85 82 62 26 19 21 19 14 10 7 5 4 2 2 2 2 3 4 6 12 20 28 32
75 69 79 85 77 81 99 99 99 98 100 100 97 79 78 80 79 87 96 94 88 46 24 19 22 18 14 9 6 5 3 2 2 2 3 4 11 26 36 37 37 38 40
76 80 84 74 93 86 100 99 100 98 100 100 96 87 88 86 97 98 95 88 33 20 20 20 16 12 8 6 4 3 2 3 3 4 11 34 40 40 41 42 41 41 42
82 88 81 98 91 100 100 100 99 99 98 99 99 98 97 98 97 96 69 23 19 20 18 14 10 7 5 3 3 3 3 3 4 23 43 45 41 42 44 43 40 40 40
94 96 100 98 100 100 99 99 100 100 98 98 98 97 97 97 85 28 20 20 19 16 12 8 6 4 3 3 4 4 4 5 21 45 46 39 42 44 51 51 48 42 42
100 96 95 100 100 100 100 99 98 99 99 96 96 94 79 26 21 20 19 16 14 9 7 5 3 3 4 5 5 5 8 31 38 45 46 39 49 43 46 49 53 54 57
97 100 100 100 99 99 98 98 99 95 92 95 78 29 22 20 20 18 15 10 8 6 4 4 4 6 6 6 8 16 44 50 43 47 54 34 50 45 54 54 58 62 68
100 99 99 98 98 98 98 98 97 94 72 31 22 21 20 18 15 11 8 6 4 4 4 6 7 7 7 9 28 53 52 50 54 62 68 46 67 57 57 55 61 68 68
99 99 99 99 98 97 98 95 47 27 22 22 21 18 16 11 8 6 4 4 4 6 8 8 8 9 18 56 72 66 68 69 62 65 72 69 65 58 58 55 60 67 72
98 97 97 97 92 62 29 25 22 23 22 19 16 12 9 6 4 4 4 6 7 8 8 8 10 34 73 76 78 81 82 81 82 69 76 75 68 75 52 45 50 58 65

GFSMA_700_rhum_039.txt.gz
RH
48 47 51 50 50 50 51 51 50 49 50 50 48 44 37 32 29 28 23 17 13 11 10 11 13 14 16 17 17 18 18 17 16 16 16 15 15 15 14 14 14 13 13
48 49 54 51 51 51 51 50 50 49 49 49 49 46 41 35 31 27 22 19 17 16 14 13 13 14 16 18 19 19 19 18 18 18 18 18 18 18 18 17 16 16 16
49 50 56 52 52 52 51 51 52 51 49 47 49 49 44 37 32 26 28 31 30 29 28 28 26 25 22 19 17 16 17 19 20 21 21 21 21 21 20 20 19 19 18
49 54 53 54 54 52 52 54 53 50 48 47 50 52 47 39 33 30 33 32 32 35 37 38 38 39 38 36 33 30 27 22 18 17 16 17 18 19 20 20 20 19 19
50 52 55 54 52 48 50 54 55 55 58 54 54 55 50 41 34 34 34 38 41 43 44 43 43 43 43 43 43 42 39 36 33 29 25 22 20 18 17 16 16 16 16
54 54 51 50 50 51 54 60 60 60 65 59 56 57 52 42 37 38 40 43 45 45 45 44 44 45 45 45 44 45 44 41 36 32 29 26 24 22 21 20 19 19 18
57 57 56 56 54 53 56 60 64 68 70 66 63 63 55 44 42 42 44 47 47 47 46 44 45 46 47 48 49 47 45 43 38 31 26 24 22 20 19 19 18 18 17
62 61 61 60 58 60 57 63 70 72 73 71 73 78 61 49 46 46 50 51 51 49 46 46 48 50 51 51 51 51 48 43 33 26 23 21 20 19 19 18 17 16 15
62 62 67 68 67 63 60 67 74 73 72 70 75 77 73 56 50 50 54 56 56 53 51 52 53 53 54 53 52 52 49 43 30 24 22 20 19 17 16 15 14 14 14
59 61 68 77 76 68 67 71 79 80 78 74 81 81 86 76 54 53 55 60 60 59 58 57 57 58 58 58 56 54 50 39 26 22 20 18 16 16 16 17 17 17 17
68 66 65 76 76 74 74 74 78 83 88 83 86 90 86 88 67 56 56 60 64 64 63 62 63 62 61 60 58 57 48 32 23 20 17 17 18 19 19 19 18 16 15
74 66 68 69 74 77 76 75 79 84 96 100 99 96 86 99 75 85 64 63 66 68 67 67 67 65 66 64 62 56 40 25 20 18 19 20 20 19 17 14 12 9 7
75 74 77 74 70 77 80 78 77 85 99 100 99 97 90 90 98 81 78 68 68 68 69 72 70 71 70 66 62 49 29 20 19 20 21 20 17 14 11 8 6 5 4
88 83 85 79 72 73 78 81 81 92 94 100 99 100 92 100 99 98 86 74 71 70 69 68 72 73 70 64 59 38 21 20 21 21 18 14 11 8 6 4 3 2 2
62 76 84 85 80 73 78 86 92 97 99 97 97 100 100 98 98 98 98 84 78 73 69 70 74 74 71 66 40 22 20 22 21 17 12 9 6 4 3 2 2 2 2
57 64 81 79 78 80 87 94 91 98 95 99 99 100 100 95 97 99 97 84 82 80 77 79 80 78 71 44 20 21 22 20 15 11 7 5 4 2 2 2 2 2 2
60 68 76 78 85 91 98 96 98 94 94 100 98 100 99 97 98 97 97 86 82 81 81 82 85 77 38 20 22 20 15 11 8 6 4 3 2 2 2 2 2 4 8
61 71 89 94 87 82 82 96 91 100 99 100 100 99 99 99 99 98 98 89 95 97 96 88 74 25 20 22 17 13 9 6 4 3 3 3 3 3 3 6 16 27 32
66 78 89 98 84 77 86 96 100 100 95 100 100 100 100 99 99 98 97 98 99 98 93 48 21 22 19 15 10 7 5 3 3 3 4 4 4 9 25 36 39 38 33
75 90 89 88 95 100 100 100 96 100 100 100 100 99 99 98 98 97 98 98 90 35 21 21 20 16 11 8 5 3 3 3 4 4 5 7 22 45 47 43 42 38 34
83 88 96 96 100 100 98 94 100 100 100 99 99 97 96 98 98 97 83 26 21 21 20 16 12 8 5 3 3 3 4 5 5 5 13 34 47 44 47 54 51 47 44
81 96 100 100 100 100 100 100 100 99 99 97 97 98 98 98 84 25 21 21 20 17 12 8 5 4 4 4 6 6 6 6 5 22 48 42 42 44 51 47 48 50 51
98 96 100 99 100 100 100 100 98 98 98 97 98 98 72 25 21 21 20 16 12 8 6 4 4 5 6 8 7 7 6 10 35 50 54 35 51 51 59 56 60 57 59
100 100 100 100 99 99 98 99 98 98 97 96 54 24 22 21 19 16 11 8 6 4 4 6 7 8 8 8 8 8 24 47 42 54 74 46 64 60 58 58 62 66 69
99 99 99 100 96 98 98 98 97 72 30 23 24 22 18 15 10 8 5 4 4 6 7 8 8 9 9 10 34 56 60 57 55 58 73 73 69 62 59 54 60 68 68
98 98 98 97 98 96 74 29 24 24 24 20 16 12 9 6 5 5 5 6 6 7 8 9 10 11 29 64 71 73 75 72 74 65 76 82 73 74 55 49 50 58 62

GFSMA_700_rhum_042.txt.gz
RH
48 49 49 49 52 51 52 52 53 52 51 51 51 50 48 45 40 34 29 25 22 19 18 16 14 13 13 14 15 17 18 19 18 18 17 17 17 17 17 16 15 15 14
50 50 49 51 54 53 52 53 53 52 51 50 50 50 50 49 44 36 30 26 26 28 28 27 26 26 25 24 22 20 18 17 17 18 19 20 20 20 20 20 20 19 19
51 52 51 51 57 54 54 54 54 54 53 52 49 45 48 52 48 39 32 30 32 31 30 32 34 36 37 37 37 37 36 34 30 26 22 19 17 17 18 20 21 21 21
51 53 52 53 58 54 54 55 55 53 54 53 51 52 50 54 50 41 34 34 34 35 39 40 41 40 40 40 40 40 40 40 40 39 36 34 31 27 23 19 17 16 16
52 52 53 57 55 56 55 52 52 53 57 57 58 59 53 56 52 43 37 37 38 41 44 44 43 42 41 40 41 42 44 44 42 42 41 39 35 32 29 27 24 22 20
52 54 54 56 58 56 52 53 55 55 60 63 59 60 57 58 55 46 40 40 42 45 46 46 45 43 42 43 46 47 47 47 46 44 42 40 36 30 26 24 22 21 20
52 56 58 62 60 57 58 58 52 51 65 67 63 62 59 60 58 50 44 44 46 48 49 49 48 46 47 49 50 51 51 49 48 47 44 41 36 28 23 20 20 19 19
53 59 63 70 67 60 60 60 59 60 67 71 69 66 62 67 63 57 49 48 50 51 52 53 52 51 52 53 53 53 53 52 50 49 46 41 33 24 21 20 19 18 17
57 62 66 70 71 69 66 68 66 68 69 74 77 74 69 72 72 66 58 52 53 54 56 57 56 55 54 53 54 54 53 52 51 50 48 41 30 22 20 18 17 16 16
60 62 63 69 76 75 73 76 79 77 82 82 88 82 80 84 84 81 75 64 56 56 57 59 61 61 58 54 56 56 55 55 55 54 51 41 27 20 18 18 18 18 18
69 68 77 73 74 74 80 83 88 82 85 94 89 96 94 94 93 84 88 79 66 67 65 62 63 64 62 60 59 58 59 59 58 55 52 39 24 20 19 19 20 20 20
68 72 75 87 82 76 70 82 83 88 89 84 80 94 94 100 97 92 91 92 85 84 76 72 67 66 65 63 62 63 64 65 65 61 50 30 21 20 20 21 21 19 15
68 74 74 75 75 75 75 74 80 87 89 84 89 97 98 100 94 99 98 90 99 90 81 88 74 72 71 71 73 73 74 74 70 59 35 21 20 22 22 20 17 13 10
69 67 69 77 78 79 89 83 77 79 88 90 89 98 100 100 99 100 99 99 100 89 90 90 87 81 78 76 76 76 77 75 67 41 21 21 22 21 18 14 10 8 6
69 70 69 68 67 84 88 84 80 81 86 92 99 100 90 100 100 99 100 100 99 99 96 96 96 88 82 82 86 84 81 74 43 21 22 23 19 15 11 8 6 4 3
44 54 58 63 64 70 75 87 91 91 93 100 100 91 100 94 91 98 99 100 99 100 99 100 96 95 89 90 92 88 71 33 22 23 20 15 11 8 6 4 3 3 3
29 40 52 58 62 76 87 95 98 100 100 98 100 86 99 87 98 99 99 99 98 98 99 100 95 91 96 97 90 48 21 22 19 14 10 7 4 3 3 3 3 3 3
33 34 49 54 61 80 89 99 100 100 100 98 99 99 87 95 100 99 100 100 99 97 97 97 94 95 90 49 21 22 19 15 10 7 4 3 3 4 4 4 4 4 4
36 34 42 59 64 75 95 100 99 100 99 88 100 90 83 100 100 100 98 97 97 97 96 94 90 51 22 21 18 14 10 6 4 4 4 4 4 4 4 4 5 10 21
42 41 56 68 74 80 95 93 100 89 91 99 99 100 100 100 98 99 98 97 97 98 95 47 22 22 18 13 9 6 4 4 4 4 5 5 5 6 14 26 37 43 41
66 73 83 80 94 95 99 96 92 100 98 99 100 100 100 98 98 98 97 97 94 43 22 22 18 14 8 5 4 4 4 4 5 5 6 7 19 36 50 54 52 54 54
85 98 100 100 100 100 99 98 99 96 100 100 100 98 97 98 98 97 93 29 23 21 16 12 7 6 4 5 5 5 6 6 5 7 14 30 45 41 57 55 60 62 62
78 93 96 97 100 97 93 100 100 99 99 99 97 98 97 98 77 24 22 19 15 11 7 5 5 5 6 7 6 7 8 7 11 32 52 31 49 48 56 57 64 63 64
98 98 99 99 100 100 100 98 98 97 97 97 97 76 32 24 23 17 13 8 6 5 5 6 6 7 8 8 9 8 11 26 36 51 69 41 58 53 54 59 65 70 73
99 99 99 99 99 99 99 98 97 97 68 27 24 23 18 13 9 7 6 5 5 6 6 7 8 9 10 10 15 32 50 46 47 55 68 72 64 56 53 52 61 66 70
98 97 97 96 98 97 93 46 24 24 24 18 14 10 8 7 6 6 6 6 6 7 8 9 10 11 14 41 57 59 61 61 66 55 73 73 68 72 51 49 50 57 63

GFSMA_700_rhum_045.txt.gz
RH
48 48 48 49 50 50 52 52 53 54 53 52 51 50 50 49 48 46 42 35 29 25 25 26 25 24 24 23 22 20 19 18 17 18 18 19 19 19 19 19 18 18 17
49 49 50 50 50 51 54 54 54 54 53 52 52 52 49 46 48 49 46 38 31 29 31 30 29 30 32 34 35 36 36 35 34 32 29 25 20 18 18 19 20 21 21
52 53 52 52 52 52 56 56 55 55 54 55 50 48 47 48 48 51 48 41 34 32 32 32 37 38 38 38 38 39 40 40 40 39 38 38 36 34 32 27 22 18 17
56 56 55 53 54 53 57 58 56 56 56 54 50 52 54 57 52 50 50 43 37 34 34 38 40 40 40 39 38 38 38 40 41 43 42 40 38 38 37 35 32 30 26
53 53 54 55 54 53 59 57 57 55 55 55 56 58 57 56 54 52 51 46 40 37 38 42 45 44 43 41 40 41 42 43 44 45 44 44 42 39 37 36 33 30 27
51 52 53 56 55 53 56 58 60 58 58 55 57 63 61 55 55 54 53 49 43 40 41 44 46 47 46 44 43 44 45 47 47 46 46 46 44 42 39 36 32 27 23
53 56 55 58 56 55 59 62 60 58 58 57 59 65 66 57 57 60 58 53 46 44 46 48 49 51 50 49 48 48 49 50 50 49 47 46 46 45 42 37 30 24 20
48 54 55 58 63 62 66 65 62 62 63 62 64 74 69 67 61 66 64 60 54 48 48 49 52 55 56 55 54 51 51 52 53 52 51 51 49 47 46 42 32 22 19
48 54 58 60 60 65 69 69 71 69 69 70 76 82 77 75 73 71 70 66 64 59 53 52 55 58 60 60 58 56 53 53 52 51 52 54 54 54 50 46 37 25 19
76 64 68 64 62 70 71 68 74 76 78 78 86 78 89 78 89 82 78 78 76 73 70 60 55 56 59 59 59 59 59 57 55 53 53 56 59 58 55 51 40 25 19
76 78 71 67 65 65 70 73 77 80 84 86 85 95 91 95 94 96 95 92 88 82 81 78 69 71 76 72 65 61 60 60 60 60 61 62 64 63 59 53 41 25 20
53 61 70 71 70 65 75 78 78 79 84 92 93 93 95 90 91 100 85 98 98 90 88 90 88 86 84 78 82 70 68 67 66 65 66 69 69 66 62 51 33 22 20
61 57 58 60 62 62 75 88 89 83 80 89 92 97 100 94 90 99 92 100 99 98 99 99 94 96 85 89 86 80 77 76 74 75 76 75 75 71 54 31 22 22 23
74 72 68 67 72 77 83 84 89 86 81 83 86 99 99 99 96 92 94 100 100 99 99 99 100 99 99 97 84 89 89 84 83 83 82 86 78 53 25 22 23 22 19
59 68 69 72 72 73 80 83 83 86 92 91 93 96 94 96 97 94 99 97 100 96 98 100 100 100 99 97 92 93 88 91 88 86 88 81 44 23 23 22 17 12 9
39 34 41 56 66 69 70 71 68 73 93 100 98 96 98 96 91 95 99 99 99 99 100 100 100 99 99 100 99 96 92 88 91 88 61 27 23 24 18 13 9 6 5
37 31 36 41 53 60 63 60 63 65 75 84 98 100 100 97 87 99 99 100 99 99 100 100 100 99 98 97 98 96 94 88 57 24 23 22 16 11 7 5 5 5 4
39 35 33 37 41 54 62 70 69 82 90 99 99 100 98 95 99 100 99 100 99 99 99 99 99 98 97 97 97 94 70 26 22 19 13 7 5 5 5 4 4 4 4
53 39 42 42 38 48 57 67 79 94 93 88 81 92 100 100 96 99 100 99 98 98 98 98 97 98 97 97 79 25 22 17 11 6 5 5 5 4 4 4 4 4 5
67 52 49 54 47 41 53 73 80 83 86 96 99 99 99 99 99 100 98 98 100 99 97 97 97 94 48 22 19 13 8 5 5 5 5 5 4 4 6 9 13 19 24
58 56 59 50 47 50 72 85 75 79 83 93 100 100 100 100 98 98 97 94 97 97 97 90 30 21 16 10 6 5 5 5 5 5 5 6 9 21 38 43 43 47 49
80 74 65 90 100 100 85 88 100 100 100 99 100 99 99 99 98 98 97 96 97 61 23 19 12 7 6 6 5 5 5 5 5 6 10 20 35 39 45 48 53 54 54
87 98 100 100 100 99 100 90 99 96 99 99 98 98 96 96 97 91 65 25 21 14 9 7 6 6 6 6 5 6 6 6 10 34 36 27 49 41 48 54 60 63 65
100 99 100 98 99 94 98 99 97 99 98 97 97 97 90 47 24 22 16 11 8 6 6 6 6 6 6 6 6 6 12 25 35 45 47 32 45 40 46 48 58 65 68
99 99 100 100 100 98 98 98 96 96 96 72 35 26 21 15 10 9 9 7 6 6 6 6 6 7 7 7 11 28 41 42 40 47 57 50 47 44 42 43 51 58 67
97 98 98 97 97 97 94 58 26 25 23 18 13 11 11 10 8 7 7 7 7 6 6 7 7 7 9 29 42 45 46 45 48 50 64 54 52 56 42 47 54 62 60

GFSMA_700_rhum_048.txt.gz
RH
48 48 48 48 49 50 50 50 52 52 54 54 52 51 51 50 49 47 45 45 42 33 28 28 29 28 27 27 28 28 29 29 29 27 24 21 19 18 19 20 20 20 19
48 48 48 48 49 50 50 50 53 54 54 55 54 53 52 47 45 45 46 46 45 37 32 31 31 31 34 36 37 37 36 37 36 36 36 36 36 35 33 29 25 20 18
51 50 49 50 50 51 51 51 53 56 55 55 55 55 49 48 49 52 49 47 47 40 34 33 32 37 39 39 39 39 38 38 38 38 39 40 39 37 37 36 36 34 31
53 52 51 52 53 53 54 52 53 58 56 56 55 53 52 51 52 54 52 47 47 44 37 35 36 39 41 41 40 39 38 39 41 41 41 42 42 41 40 37 36 35 34
60 58 56 55 54 55 54 54 55 59 57 57 54 53 54 54 54 52 53 51 49 46 41 37 39 42 44 44 43 41 41 41 42 43 44 44 43 42 42 40 38 37 34
56 57 56 56 56 55 53 52 55 61 60 60 55 55 55 55 57 54 52 53 52 50 45 41 41 44 47 47 47 46 45 44 44 45 46 46 45 44 43 42 40 39 37
57 56 55 55 58 56 55 54 56 58 61 61 60 57 56 57 58 58 54 55 58 56 50 45 44 46 48 50 51 51 50 49 48 46 48 49 48 47 48 48 47 43 41
53 59 60 60 60 58 58 57 56 59 63 64 65 62 62 61 59 65 62 57 61 60 58 53 49 49 50 52 53 55 55 54 53 51 50 49 48 49 49 50 52 52 49
57 57 52 55 55 62 63 60 64 64 67 68 69 74 67 65 63 69 70 70 68 68 66 63 59 56 54 54 54 54 53 54 56 56 56 54 53 51 50 51 53 54 53
58 57 55 59 56 61 69 66 67 70 75 72 76 75 74 73 76 73 76 75 78 82 83 79 73 70 66 61 58 61 68 69 65 59 57 58 57 56 55 54 55 55 56
52 64 76 79 72 63 62 69 66 69 73 73 76 82 86 84 82 83 82 88 92 91 91 94 87 79 77 78 74 72 76 76 75 75 68 62 60 58 57 57 58 59 59
50 45 47 71 73 71 68 65 68 72 71 79 79 84 90 92 90 93 95 92 89 96 89 94 96 87 88 87 90 91 94 90 78 86 78 74 69 67 66 64 65 65 68
60 57 60 58 61 64 67 70 72 71 73 81 84 85 90 97 98 100 99 100 99 95 100 99 93 100 100 100 96 91 90 82 82 89 84 87 84 80 76 72 67 67 67
62 62 61 67 70 67 68 68 65 76 73 78 94 96 92 93 100 99 97 99 100 99 96 98 100 100 99 98 92 97 98 100 99 100 94 94 89 82 77 74 75 71 54
45 50 64 71 73 73 75 73 69 73 75 78 93 96 93 94 94 95 96 94 97 92 99 98 100 99 100 99 98 98 100 99 100 99 100 96 92 86 80 78 61 31 23
48 46 48 58 69 74 72 75 78 82 83 90 90 91 95 97 96 100 100 99 92 100 98 99 100 100 100 99 100 98 99 98 99 97 99 98 95 86 64 31 24 23 20
48 46 43 40 39 40 58 69 73 74 74 74 76 76 85 98 100 99 98 100 100 100 100 100 100 99 98 98 99 97 98 98 97 97 98 97 94 42 24 21 15 11 9
59 51 46 42 38 34 35 53 65 72 76 77 81 86 87 99 97 100 100 100 100 100 100 100 99 98 98 96 97 99 98 96 96 96 67 26 22 17 11 7 6 6 5
71 65 63 51 48 45 41 43 49 58 67 82 81 76 90 96 99 99 100 100 99 99 97 99 98 97 99 96 97 94 95 94 42 21 15 8 6 6 6 5 4 4 4
85 87 83 80 67 68 62 50 46 48 57 72 76 89 97 94 99 100 100 98 99 97 95 97 100 100 97 97 97 69 24 18 12 6 6 6 5 4 4 4 4 5 8
92 94 96 91 94 70 64 58 54 55 57 82 89 100 98 93 99 99 99 99 97 96 97 95 97 99 92 32 21 14 8 6 6 5 4 4 4 7 11 17 23 28 31
83 98 99 98 97 92 84 78 93 100 100 87 80 99 98 99 99 98 98 91 91 95 100 100 42 24 18 10 7 6 6 5 4 5 6 12 31 28 30 31 34 35 36
99 100 99 99 89 96 98 100 100 100 86 100 99 100 100 97 95 94 92 90 88 44 25 19 12 8 7 6 6 6 5 5 6 27 28 24 30 26 36 39 40 40 39
98 98 99 96 100 91 99 99 97 99 100 98 98 97 93 94 94 66 32 24 19 12 8 7 7 6 6 6 5 5 7 18 33 37 30 27 41 39 46 47 53 55 53
100 100 99 98 100 99 98 99 99 98 97 92 79 60 34 24 19 14 10 9 8 8 7 7 6 6 6 6 6 18 32 33 31 38 42 37 43 38 41 46 57 66 67
97 97 98 96 96 97 95 77 41 27 25 21 15 13 12 11 10 9 8 7 7 6 6 6 5 5 6 15 30 32 34 33 34 34 35 32 36 37 28 35 42 56 65

GFSMA_700_rhum_051.txt.gz
RH
47 47 47 47 47 48 48 49 49 50 52 53 54 54 52 52 52 48 37 39 40 42 41 33 29 29 28 28 29 30 31 32 32 32 32 32 31 28 25 21 19 18 19
48 48 48 48 48 48 48 49 48 49 51 54 54 55 54 53 51 44 41 45 45 42 43 37 32 31 31 34 36 36 36 36 36 36 36 36 37 36 35 34 34 32 30
52 50 50 49 49 48 49 49 50 49 50 53 56 55 56 54 48 46 46 42 51 43 44 42 35 32 34 38 39 39 38 36 36 36 37 37 38 38 39 38 36 35 34
57 55 54 53 52 50 50 51 52 51 52 52 56 56 56 53 48 48 50 49 46 49 45 44 39 35 36 40 41 41 40 39 39 39 40 41 42 41 41 40 40 38 36
57 57 57 59 61 57 54 54 54 53 53 53 56 57 57 53 51 51 50 50 49 49 48 46 43 38 38 40 43 43 43 42 42 42 43 44 45 45 43 41 40 40 39
49 54 59 62 61 61 60 58 58 56 56 56 59 59 58 54 52 53 52 51 50 51 50 49 47 43 40 42 44 45 46 46 46 46 45 45 46 46 46 45 44 44 42
46 50 52 59 60 60 60 62 59 58 58 58 59 59 58 57 55 53 53 54 56 54 55 55 54 49 45 44 44 46 47 49 50 50 50 49 48 47 47 46 45 45 46
41 49 53 54 58 66 68 65 62 62 60 61 62 64 63 60 57 57 59 62 61 58 58 60 60 59 55 50 48 49 50 52 53 53 53 53 52 52 51 50 50 49 48
43 43 49 57 59 60 65 65 65 63 66 66 68 69 69 64 62 61 64 68 66 64 66 72 70 69 66 64 61 59 57 55 53 52 57 64 62 57 54 52 51 51 50
43 51 53 56 64 66 65 63 62 62 65 69 70 73 74 71 69 69 68 72 74 72 79 81 81 83 84 78 72 69 70 70 67 65 68 72 73 72 71 68 60 55 53
29 29 54 72 67 71 71 77 68 65 60 70 71 76 80 84 82 80 77 75 76 77 90 88 88 88 86 84 78 80 74 75 81 83 79 78 80 81 79 78 75 72 66
41 46 43 47 60 68 72 81 82 80 77 72 72 70 71 80 84 86 92 93 88 96 99 98 87 83 94 88 92 97 90 95 94 99 93 78 81 80 81 87 80 82 82
26 38 54 58 55 52 52 60 72 76 76 77 80 75 76 77 82 90 99 100 99 99 99 100 91 90 86 99 93 99 99 99 87 90 87 94 96 96 91 98 92 88 83
33 34 40 61 69 67 63 62 61 68 72 73 77 85 87 82 77 96 99 100 100 100 98 100 100 96 98 97 98 99 99 98 99 98 95 98 100 100 99 98 93 91 83
44 43 42 42 45 56 68 71 72 70 70 70 70 74 81 88 80 98 99 98 96 99 100 99 100 100 100 99 99 100 99 99 100 100 100 100 99 95 92 86 81 90 93
48 49 50 48 48 52 66 73 76 82 83 79 77 78 78 82 85 97 100 100 100 100 100 100 100 99 100 100 99 100 98 98 98 95 89 92 82 89 88 84 88 91 88
54 58 57 54 51 47 44 43 58 78 82 79 82 88 90 94 99 100 100 100 100 99 100 100 98 100 99 99 100 98 99 96 96 94 94 86 88 88 92 89 79 53 36
70 70 70 70 64 58 55 45 44 43 50 66 77 83 85 87 90 97 98 97 92 98 99 100 99 95 99 100 98 96 97 89 91 90 92 95 100 95 53 26 18 11 8
42 62 59 73 76 74 69 61 48 46 49 48 54 64 67 81 85 85 92 98 95 99 98 86 99 98 100 98 96 92 94 96 97 99 97 64 24 14 8 7 7 6 4
36 39 47 76 79 90 93 78 70 59 72 69 58 55 59 71 83 81 89 100 98 85 100 99 99 98 98 94 98 100 100 99 75 24 13 8 7 6 5 4 3 4 6
37 44 73 85 87 96 98 90 88 73 71 80 74 63 80 94 98 85 96 99 93 99 99 100 95 90 99 100 100 84 37 17 9 7 6 5 4 4 4 11 19 21 20
35 51 73 83 97 100 96 89 83 93 89 100 99 75 88 100 100 100 93 94 96 94 93 94 99 100 98 54 24 12 7 7 6 5 4 4 8 16 22 22 26 29 30
69 72 87 77 98 98 98 99 99 97 100 100 100 100 95 99 97 98 96 95 100 100 93 61 32 22 14 8 8 7 6 5 5 8 15 25 22 20 29 35 36 36 38
88 91 87 93 93 98 99 93 99 97 98 98 99 99 97 84 94 92 88 63 36 24 18 12 9 8 8 6 5 5 5 6 22 30 24 22 23 21 24 30 35 39 44
88 98 95 92 97 95 97 98 98 100 99 98 91 94 80 54 27 18 14 12 11 10 9 8 6 5 5 5 5 6 21 27 30 28 28 28 34 26 29 29 34 42 47
88 88 86 81 74 67 58 40 36 24 23 18 14 14 13 12 11 9 8 7 5 4 4 4 4 4 5 6 18 28 31 28 30 37 37 38 40 35 20 27 28 29 30

GFSMA_700_rhum_054.txt.gz
RH
48 47 48 47 47 47 47 47 48 48 48 50 51 53 54 54 54 53 48 40 39 43 41 41 40 33 30 29 29 30 31 32 33 33 33 33 33 33 32 32 30 26 22
56 56 49 48 48 48 48 48 47 47 48 47 49 52 54 55 55 54 46 41 41 46 48 41 42 38 33 31 33 35 35 35 34 34 34 34 34 34 34 35 35 34 34
58 57 56 53 51 50 50 49 49 48 48 49 49 50 54 56 56 56 49 39 43 44 48 46 42 41 36 33 35 37 38 37 36 36 36 37 37 37 38 38 38 38 37
48 55 56 56 58 56 53 53 52 50 50 51 52 51 53 57 57 57 52 43 40 43 43 47 46 44 40 36 36 39 40 40 39 38 38 38 39 40 40 40 40 39 39
33 38 46 56 64 65 62 60 60 58 55 55 55 55 53 55 59 58 55 48 43 42 47 46 48 47 44 40 38 39 40 41 42 42 42 41 41 41 42 43 43 42 40
41 37 38 46 53 61 66 63 62 64 64 63 62 60 56 56 60 59 58 52 51 46 45 48 49 50 49 46 42 40 41 43 45 46 46 46 46 45 44 43 43 44 45
43 44 43 42 48 52 54 57 63 64 61 63 64 63 62 60 63 61 61 57 54 54 52 48 50 52 54 53 50 46 45 45 46 46 47 49 50 50 49 48 47 47 46
37 40 42 47 47 52 57 59 57 62 68 66 64 66 65 65 64 64 64 63 60 58 59 56 55 54 57 59 60 58 55 52 50 51 50 49 49 49 49 56 54 51 48
47 40 38 40 49 55 53 60 64 64 68 72 69 67 70 66 68 68 67 67 67 64 64 64 61 67 78 75 75 73 69 66 64 63 62 61 58 58 66 70 71 70 68
30 37 43 47 44 47 54 65 77 77 74 71 70 63 64 71 71 69 72 73 74 71 71 71 73 73 75 80 83 92 86 80 80 75 73 72 72 76 76 79 78 79 77
20 21 32 42 44 60 64 64 73 81 78 79 82 74 72 74 78 75 77 77 80 78 79 84 89 88 87 94 85 91 94 87 88 90 87 89 87 92 96 96 89 88 87
21 21 21 24 35 46 50 52 61 75 84 82 78 78 79 79 77 80 80 81 87 98 99 99 100 100 100 100 92 90 97 100 97 98 97 99 100 97 98 88 96 98 96
31 31 31 35 41 45 55 65 66 65 64 65 69 69 76 78 80 81 87 87 92 98 100 99 100 100 98 100 97 97 100 99 100 97 97 100 98 100 99 93 91 86 82
37 38 40 40 40 61 52 58 72 77 77 76 73 71 73 73 80 82 82 89 99 98 99 100 100 100 100 100 98 97 100 100 100 100 100 100 100 100 100 97 98 100 94
41 42 44 45 45 44 48 50 53 62 77 81 81 87 87 86 82 85 80 79 86 98 98 96 100 99 98 95 94 100 100 100 100 100 99 99 99 99 96 92 94 95 82
38 44 48 50 53 54 54 52 53 54 58 72 81 88 94 92 93 88 90 89 95 100 99 99 100 100 100 100 99 99 99 100 99 98 98 99 100 97 97 93 90 83 82
20 25 33 50 61 63 62 62 60 57 56 54 57 66 95 99 100 100 100 99 99 100 100 100 100 99 98 96 99 99 100 97 97 96 98 99 100 95 89 88 84 85 89
18 18 22 30 34 51 69 70 72 72 70 70 64 57 53 61 82 94 97 100 98 99 100 100 99 100 100 99 96 98 94 93 92 100 97 98 97 96 94 95 84 43 20
15 20 23 30 32 46 54 52 67 79 83 80 82 71 73 59 56 62 68 71 76 74 98 98 100 100 98 92 100 99 100 98 97 98 96 91 87 68 31 17 10 8 7
21 25 28 31 41 56 64 72 84 89 88 87 94 87 90 80 60 59 80 87 94 100 99 99 92 84 89 95 99 100 100 97 96 93 68 31 16 10 8 7 6 4 4
26 26 29 35 45 60 62 84 98 99 96 88 86 92 84 76 72 78 86 99 100 98 90 91 88 94 100 100 100 100 95 70 30 15 10 8 8 7 5 4 6 15 16
37 44 59 63 63 63 70 77 88 98 100 99 98 95 94 98 82 75 82 99 86 90 100 99 100 98 96 90 43 22 15 9 9 8 7 6 4 4 16 22 21 21 22
55 58 59 56 59 67 77 78 83 88 94 97 95 98 85 100 96 92 88 97 99 99 97 94 76 35 16 11 10 9 8 6 5 4 3 10 17 22 21 23 21 19 21
62 69 68 72 74 78 87 89 92 96 97 98 98 98 98 99 99 98 89 66 36 22 15 13 11 10 8 6 5 4 4 4 4 11 18 20 20 24 26 30 30 28 28
67 78 79 60 44 48 48 48 55 63 58 55 43 33 34 26 18 16 14 11 9 6 5 4 3 3 3 3 3 3 4 12 23 24 21 24 31 30 34 36 35 36 38
26 22 19 18 18 17 16 13 10 7 6 5 4 4 4 3 3 3 2 2 2 2 2 2 2 2 3 3 5 14 21 25 23 28 30 30 36 31 25 35 37 42 43

GFSMA_700_rhum_057.txt.gz
RH
48 48 48 48 48 48 48 48 48 48 48 48 47 47 46 49 51 54 56 56 44 39 36 43 41 38 39 35 32 30 31 32 32 31 32 31 31 31 32 32 32 32 31
47 49 53 56 54 50 49 49 49 49 49 49 50 50 49 48 47 51 54 56 50 41 40 41 45 41 38 38 34 32 34 34 34 33 33 33 32 33 32 32 33 34 34
52 53 53 54 57 57 55 53 51 51 50 50 50 51 52 51 50 51 53 56 56 46 42 41 41 44 42 40 38 34 35 36 37 36 36 35 36 36 36 36 36 37 37
42 39 38 38 43 52 56 58 59 59 56 54 53 53 54 54 54 52 51 56 57 52 46 43 43 42 45 43 41 37 36 38 39 40 39 39 38 38 38 39 39 39 38
39 39 37 35 36 39 42 53 62 66 65 64 63 61 59 58 58 56 53 55 58 57 50 47 46 45 45 46 45 41 39 39 41 42 42 42 42 42 42 41 41 42 43
44 42 43 45 44 41 44 50 54 56 58 62 63 64 64 62 61 61 59 56 59 59 55 52 50 50 48 48 49 47 43 42 42 43 44 45 45 46 46 46 45 44 45
52 50 46 44 45 46 47 50 52 54 56 60 66 65 66 68 61 60 63 61 61 63 62 57 56 57 55 52 51 52 51 48 46 45 46 47 47 49 49 50 50 49 48
53 51 50 45 46 45 46 54 59 56 57 64 66 73 80 74 68 64 67 68 68 66 66 66 61 61 63 60 58 62 60 59 56 54 52 51 53 53 54 53 52 53 67
27 37 35 36 38 40 45 50 60 64 63 70 68 72 75 72 75 70 68 69 72 72 70 72 71 68 70 70 71 82 79 89 93 71 65 64 65 65 66 67 70 73 78
25 29 35 35 38 47 53 53 62 64 62 67 79 79 80 82 82 76 69 66 70 71 79 80 79 79 82 80 79 87 95 99 100 98 94 82 82 76 80 81 84 87 88
17 22 29 34 37 37 38 45 47 50 53 64 68 70 78 83 79 83 83 73 69 72 78 86 100 99 97 97 99 100 99 99 99 98 100 100 94 94 98 94 94 99 85
13 13 13 15 18 23 50 50 45 56 59 70 86 94 97 94 97 88 84 81 86 82 84 92 98 100 99 100 100 100 100 100 100 100 99 99 100 96 94 99 100 100 100
28 29 30 31 32 33 36 46 61 53 60 70 76 86 91 99 98 76 98 93 87 88 100 99 100 100 92 98 100 100 99 100 100 100 100 99 100 100 100 99 98 100 99
36 37 38 38 39 40 42 43 42 44 52 56 60 73 82 88 88 82 98 96 96 94 97 98 98 100 100 100 86 100 99 99 100 100 100 100 98 99 100 100 99 100 100
32 40 43 42 41 41 40 42 45 46 46 48 48 55 64 71 84 97 92 96 99 99 98 93 90 88 97 98 94 99 99 98 99 100 100 99 98 99 100 100 100 100 98
10 12 14 16 18 23 31 42 48 53 57 56 57 57 57 58 70 80 98 97 97 98 99 99 100 100 85 100 100 99 99 99 99 99 96 99 99 100 100 100 100 100 100
10 11 13 15 16 18 18 22 30 47 63 68 67 66 56 61 58 58 86 78 83 97 99 100 100 100 99 99 99 99 98 90 97 98 99 100 99 99 100 99 99 100 95
15 17 16 17 19 19 23 28 45 53 50 49 61 79 83 84 75 65 65 68 82 89 99 98 98 94 100 98 94 96 97 94 100 100 100 100 100 99 100 97 94 88 82
24 27 21 21 22 24 26 31 53 57 60 67 87 85 86 90 87 82 72 67 78 100 98 100 99 100 100 100 100 100 100 100 100 98 97 96 95 90 88 75 47 28 18
36 33 28 27 33 42 39 46 62 68 80 94 98 97 91 91 90 80 77 80 69 85 98 97 100 100 100 100 100 100 99 98 97 94 95 90 63 32 18 12 9 8 8
41 45 36 37 52 49 50 56 65 62 76 76 92 100 95 87 88 85 79 75 82 96 90 97 99 100 100 100 100 100 100 82 41 24 18 13 9 8 8 8 6 5 5
47 48 44 53 53 52 57 65 71 71 71 80 96 97 87 87 93 100 100 100 85 94 100 95 100 100 98 96 75 27 16 11 10 9 8 8 7 6 5 6 17 19 17
54 60 61 56 52 53 62 66 68 73 76 81 87 90 91 99 96 97 98 94 97 97 91 68 41 22 15 12 10 7 5 5 4 4 4 4 4 13 24 22 21 22 21
55 63 59 35 26 26 23 22 20 21 28 37 46 46 42 50 58 50 39 29 21 14 11 9 6 4 3 3 2 3 3 3 3 3 7 23 23 24 28 32 31 30 28
28 22 19 19 20 18 13 8 7 6 6 6 5 4 4 3 3 2 2 2 2 2 2 2 2 2 2 2 2 2 3 4 10 17 19 20 24 30 35 37 37 37 36
20 21 22 20 18 15 12 9 7 7 7 7 6 3 2 2 2 2 2 2 2 2 2 2 2 2 3 4 5 7 12 17 20 21 19 22 27 27 31 37 41 45 41

GFSMA_700_rhum_060.txt.gz
RH
46 48 48 49 49 49 49 49 49 49 50 50 50 50 51 50 49 48 46 51 56 56 51 39 38 43 42 39 38 34 31 31 32 32 32 31 31 31 31 32 32 33 33
47 46 48 54 56 58 60 57 52 51 50 50 50 51 51 52 52 51 49 49 53 56 57 46 40 40 43 43 40 37 33 34 35 35 34 34 33 33 33 33 33 34 34
48 50 53 53 52 52 54 58 60 61 59 56 54 53 52 52 52 53 53 51 51 55 57 56 45 42 42 43 44 40 36 35 37 37 37 37 36 36 36 36 36 37 37
44 43 40 36 33 31 31 31 37 48 59 62 62 64 65 60 56 55 56 56 55 55 59 59 53 48 45 45 47 45 41 37 38 40 40 40 40 40 40 40 40 40 40
42 42 42 40 40 39 37 37 34 35 41 50 59 64 64 66 69 67 63 61 60 58 58 61 60 54 52 50 48 49 46 41 40 42 42 43 43 43 43 43 43 43 43
45 40 44 49 48 49 47 46 46 45 44 46 53 57 60 62 65 67 66 64 64 64 63 64 64 61 58 56 55 52 52 48 43 42 43 44 46 47 47 48 48 49 48
48 54 57 56 56 58 58 54 54 55 55 54 57 56 58 62 63 65 71 71 68 68 71 69 68 67 67 64 63 60 58 54 48 46 45 46 48 50 52 52 53 54 54
37 38 42 45 46 47 49 49 48 50 55 60 63 71 72 69 69 65 72 77 77 77 73 74 74 71 73 75 73 71 64 61 56 53 51 51 51 52 55 57 58 58 57
17 23 24 24 24 22 25 34 48 51 60 61 62 71 73 70 76 71 68 73 76 75 74 74 76 77 77 80 81 82 76 69 67 63 58 62 60 59 59 61 62 63 64
21 23 27 30 33 30 32 35 40 45 54 69 66 71 84 82 79 88 84 80 82 80 78 74 78 83 90 90 94 96 90 83 82 82 68 100 100 85 64 67 70 72 76
16 15 17 20 29 52 45 32 30 28 30 33 54 62 69 74 99 98 96 95 91 81 85 98 86 88 94 100 99 100 98 99 97 99 97 98 100 100 99 99 100 99 93
13 12 12 14 16 18 22 26 33 49 57 61 57 58 68 82 82 90 88 84 86 92 94 95 95 99 97 99 100 100 100 100 99 100 100 100 100 100 100 99 98 92 99
20 23 25 27 28 29 31 34 36 44 50 55 54 48 55 71 78 84 88 82 82 94 95 98 98 100 99 100 97 99 100 100 99 99 100 100 99 99 99 99 99 99 100
34 35 36 36 36 36 37 37 36 37 38 41 42 44 45 49 56 64 77 90 96 99 95 94 86 100 100 100 99 100 96 96 100 99 98 99 99 98 99 99 99 99 99
13 10 11 15 19 21 21 24 26 30 32 36 40 44 50 51 54 56 58 64 78 97 92 82 98 97 99 100 99 88 97 100 100 99 98 97 98 99 99 100 98 99 100
8 8 8 9 10 11 13 16 17 18 19 20 28 33 46 59 64 66 62 63 66 94 94 91 90 95 99 99 100 99 99 100 100 98 96 98 100 100 100 96 99 99 100
12 12 11 11 13 15 16 18 20 21 24 36 48 48 46 53 65 70 68 73 71 73 72 77 86 80 95 98 99 99 98 99 90 92 99 100 100 100 100 99 99 99 98
25 27 18 20 22 18 21 22 23 25 34 46 43 50 57 67 80 79 76 82 82 85 74 75 100 96 98 74 90 98 90 100 100 100 96 98 99 100 98 94 90 93 90
35 33 28 30 26 24 26 36 38 34 49 50 54 64 66 85 87 84 85 84 84 83 83 82 86 100 89 100 92 94 98 98 99 98 100 97 94 97 95 93 89 90 84
40 39 36 38 31 31 41 40 39 42 49 56 59 64 58 75 83 84 80 85 86 86 91 100 99 100 100 98 98 99 98 100 99 97 98 96 96 91 80 63 41 24 16
42 42 43 46 39 44 43 40 42 50 58 54 56 57 67 81 82 82 87 95 89 87 99 99 94 99 100 100 99 99 100 99 99 74 37 22 15 12 10 10 9 9 8
49 48 47 46 50 46 44 56 59 56 59 59 58 63 75 81 74 74 89 89 81 81 100 100 100 100 97 87 62 27 16 12 10 7 6 7 6 6 6 6 5 4 6
48 53 61 57 47 44 36 23 14 11 9 9 12 15 17 20 32 51 50 38 45 52 48 41 27 15 12 9 7 6 4 3 3 3 3 4 3 3 4 9 18 20 20
54 60 47 23 20 19 16 11 8 8 8 8 8 7 5 4 3 2 2 2 2 2 2 2 2 2 2 2 2 2 2 2 2 2 3 5 10 17 20 20 23 25 26
23 21 20 21 19 16 14 12 11 11 11 12 11 10 7 5 4 3 3 3 3 2 2 2 2 2 2 2 2 3 3 4 5 10 15 21 20 22 25 28 30 31 32
20 23 23 22 21 21 20 20 21 21 22 21 19 17 15 13 12 10 7 5 3 2 2 2 2 2 2 3 4 6 7 10 14 16 18 21 22 25 31 34 34 34 34

GFSMA_700_rhum_066.txt.gz
RH
46 45 46 48 50 51 53 56 58 60 61 60 59 57 55 54 53 52 52 52 53 54 55 55 56 57 54 55 47 42 42 42 38 33 33 34 34 34 33 34 34 34 34
41 48 51 50 50 54 58 60 61 58 56 54 55 60 64 64 62 59 56 55 54 55 56 56 57 58 60 59 57 49 45 42 43 38 34 37 37 36 35 35 36 37 36
35 42 48 53 60 59 56 52 45 38 34 33 33 36 44 60 67 70 70 69 66 61 58 59 60 60 60 61 61 59 53 50 46 44 39 37 39 39 38 38 38 38 39
30 35 44 53 55 51 45 42 40 39 39 41 42 43 42 42 48 56 62 69 72 72 71 72 73 72 68 65 65 65 62 56 53 50 45 39 40 42 41 41 41 41 41
34 31 38 47 49 45 42 42 42 44 46 48 51 51 50 48 47 47 49 53 55 58 65 73 77 79 78 75 71 68 68 66 62 58 52 44 41 43 44 44 44 44 44
27 30 30 36 40 43 43 44 48 56 62 63 62 55 53 52 52 49 51 55 62 62 65 68 74 82 85 84 83 78 74 72 73 70 62 54 45 44 47 48 47 47 47
24 25 27 36 52 56 57 59 64 60 46 51 46 32 27 32 42 54 53 59 63 66 73 75 81 78 80 85 87 89 87 81 75 78 77 65 55 46 47 50 51 51 51
19 17 14 18 23 28 46 47 52 36 33 29 25 27 32 34 33 39 61 70 72 71 72 73 80 84 87 86 88 90 93 97 93 82 84 87 68 55 47 51 53 54 55
18 17 13 14 16 16 17 18 20 24 24 27 32 48 50 45 43 35 36 32 36 52 66 66 77 83 88 92 93 95 98 100 100 100 99 99 98 66 53 50 54 56 57
15 15 16 18 20 22 24 26 27 24 21 21 28 49 58 42 29 26 43 59 64 60 61 67 80 81 80 79 86 92 96 100 99 99 100 99 100 99 66 53 52 56 61
15 16 18 19 20 20 19 18 18 18 17 17 21 37 28 49 57 61 53 52 55 58 49 44 62 74 90 82 90 96 99 98 99 99 99 98 98 99 99 84 59 62 95
18 20 21 20 19 18 17 17 20 23 25 28 29 32 47 64 63 45 40 37 36 31 39 40 40 45 52 52 61 63 86 82 85 99 99 99 98 98 97 99 98 98 97
22 22 21 19 16 16 17 24 31 37 38 43 52 59 48 44 47 50 51 52 36 24 30 43 44 52 53 55 54 62 70 71 87 98 98 99 96 97 96 98 98 98 98
19 16 16 18 24 29 33 31 29 31 34 43 60 44 45 40 35 33 26 30 38 37 37 45 48 52 62 61 59 60 62 74 80 100 96 99 100 99 96 98 99 99 100
21 25 28 31 26 17 12 10 11 13 17 21 22 22 22 21 21 25 36 44 43 40 43 45 53 58 56 61 67 73 78 84 92 97 100 100 99 98 96 97 98 100 100
32 34 28 16 11 10 11 11 10 10 12 15 17 19 20 24 27 35 44 45 46 50 51 48 49 54 61 60 64 69 83 98 97 100 100 98 98 97 97 98 98 99 100
35 29 17 12 13 17 21 25 18 16 19 18 20 23 24 30 34 46 46 47 49 48 44 43 47 56 66 63 62 77 85 85 93 98 97 98 98 98 98 99 98 99 100
28 18 14 16 21 23 32 33 23 25 24 23 28 37 38 36 40 45 42 44 45 42 41 42 48 61 66 70 68 75 74 78 89 100 93 96 98 98 99 100 100 100 100
19 19 21 23 26 31 36 35 34 30 28 36 38 38 38 42 43 40 41 41 43 41 42 44 49 58 60 57 64 70 70 72 88 87 96 94 99 99 98 100 100 100 100
25 28 30 31 37 41 39 40 39 35 42 40 42 44 47 46 44 48 49 42 51 54 56 50 55 59 62 54 58 57 62 70 68 61 83 96 100 99 99 98 96 97 93
37 35 42 42 40 43 46 44 44 44 45 48 46 41 40 26 23 15 22 43 36 14 5 5 6 3 3 4 5 6 7 9 9 12 23 44 68 74 79 81 67 54 39
43 46 46 49 47 47 49 48 48 33 18 10 9 9 10 12 13 12 9 6 4 3 3 4 4 4 4 4 3 3 2 2 2 3 3 4 4 4 4 3 3 3 4
52 50 53 53 55 52 40 22 16 12 10 11 13 15 16 18 19 19 18 18 18 18 17 15 12 10 7 4 3 3 2 2 2 2 2 2 2 2 2 3 3 2 2
53 50 55 57 38 20 18 15 13 14 15 18 21 23 26 27 28 28 28 28 27 26 23 20 14 7 4 3 3 2 2 2 2 3 4 4 4 4 5 5 6 7 9
49 55 47 23 20 20 18 19 20 22 25 27 28 31 33 33 33 34 34 33 31 27 23 18 13 8 5 4 3 2 3 4 5 6 6 7 8 8 10 11 11 12 13
26 21 21 22 22 22 23 24 26 28 31 33 33 33 34 36 36 35 34 32 27 22 18 15 10 6 4 3 3 4 5 6 8 9 9 10 12 14 15 16 17 17 19

GFSMA_700_rhum_069.txt.gz
RH
46 46 46 46 48 50 50 52 55 57 60 60 61 60 59 59 60 60 58 56 54 54 54 55 55 56 57 57 58 57 54 46 42 42 38 34 34 35 34 34 33 33 33
32 38 44 49 51 52 53 57 61 60 57 50 44 39 37 36 38 48 59 65 66 66 65 61 59 58 59 60 60 60 61 58 51 46 44 38 35 37 37 36 35 35 35
27 29 34 43 50 52 54 54 53 50 43 38 37 37 37 38 38 38 40 50 62 68 70 72 73 72 70 67 65 62 62 62 61 55 50 47 38 38 40 39 38 38 38
39 32 29 35 44 51 50 49 47 43 40 40 43 45 44 46 48 49 47 47 49 53 58 67 75 78 76 76 75 72 68 65 67 66 60 55 49 40 41 42 41 40 41
45 40 34 34 37 43 49 48 44 42 42 43 49 55 59 59 59 57 55 53 54 55 56 58 64 67 72 78 79 78 77 73 70 72 71 67 60 51 42 43 45 44 44
44 37 27 27 36 40 40 43 47 50 53 58 64 64 48 45 50 39 37 40 51 55 60 67 69 72 76 75 74 77 83 85 82 76 77 76 74 65 54 43 45 48 47
30 27 23 22 23 29 39 53 60 61 47 48 53 50 28 24 22 28 34 37 43 53 67 68 69 72 75 79 79 78 78 86 90 85 82 85 86 84 69 55 45 48 51
26 28 25 23 20 19 16 24 31 29 33 23 20 19 19 21 27 42 47 44 43 47 54 58 66 74 76 77 80 86 88 87 90 98 95 82 90 98 97 82 60 46 51
21 22 21 19 17 14 14 16 18 20 28 24 25 25 22 19 20 29 32 25 28 39 56 63 63 63 63 64 71 78 77 91 99 99 99 99 95 84 99 100 94 51 49
18 18 17 15 14 15 16 17 19 25 22 20 19 17 18 18 26 34 30 53 62 50 40 44 43 52 49 52 71 78 84 86 83 95 96 92 98 99 98 98 100 99 50
13 13 14 14 16 17 18 19 19 19 18 17 16 18 21 25 28 31 44 57 46 41 40 47 42 33 32 31 47 51 54 67 76 81 94 99 99 100 99 98 98 94 99
13 14 16 17 17 18 18 18 18 17 17 20 25 33 40 44 44 53 54 41 40 34 27 32 32 35 42 43 43 45 47 54 59 67 84 86 88 94 96 97 98 100 92
17 18 19 20 20 19 18 16 17 21 27 34 42 57 47 42 45 51 43 33 28 24 31 40 45 46 46 50 52 57 60 60 61 67 64 75 84 95 98 92 98 99 97
20 20 19 17 15 16 19 24 28 28 23 20 19 24 34 33 35 31 30 26 25 33 40 43 46 51 50 52 57 57 56 60 59 63 68 82 88 99 98 100 98 98 97
16 15 15 16 19 24 28 26 15 10 10 10 11 14 16 18 21 22 24 27 32 42 43 46 46 46 49 50 52 56 58 53 56 74 86 95 93 98 98 95 98 98 96
17 18 21 24 30 31 21 12 12 15 17 18 14 16 18 19 22 24 30 31 44 47 46 46 43 40 44 44 50 58 61 64 67 73 79 90 98 98 98 97 94 95 97
33 33 34 34 31 20 13 15 20 26 29 21 22 22 21 24 31 34 34 38 44 43 43 39 33 33 36 44 51 54 58 61 70 65 77 78 89 96 96 96 96 96 96
37 37 32 29 21 17 18 22 26 33 30 27 28 25 28 38 36 36 40 46 42 41 41 40 38 32 42 49 52 52 55 58 61 65 71 75 84 83 96 99 98 100 100
38 36 25 20 21 22 24 28 36 36 35 32 30 39 37 39 41 47 46 46 45 45 39 46 43 42 48 43 41 42 48 51 60 61 56 56 74 90 96 99 98 98 94
42 33 26 28 32 33 39 40 39 41 40 42 43 42 45 47 47 40 31 23 44 45 23 4 6 18 7 4 4 4 4 4 4 5 9 11 23 38 40 53 72 80 85
41 33 38 40 45 44 45 46 45 45 46 44 33 19 13 9 8 11 11 11 9 6 6 6 6 6 7 7 7 6 6 5 4 3 3 3 4 6 8 11 17 22 25
42 46 47 48 51 49 50 49 48 36 17 11 10 11 13 15 17 18 19 20 21 21 22 22 22 22 21 17 13 9 7 5 4 4 2 2 2 2 2 2 2 3 3
55 57 56 57 56 56 49 31 18 14 11 12 14 18 21 22 24 26 27 28 29 30 30 29 27 24 21 18 12 7 6 4 3 2 2 2 2 3 3 3 3 3 3
62 61 61 61 54 30 19 17 14 15 18 20 23 25 27 30 32 32 32 32 32 31 30 27 23 20 18 14 11 8 6 4 3 3 4 4 4 4 5 5 5 5 6
61 58 64 54 28 20 19 19 20 22 24 26 30 32 32 32 35 36 36 34 32 30 27 23 21 20 18 13 8 5 3 3 4 4 6 6 7 7 7 8 8 9 9
58 59 38 21 21 21 22 23 25 27 31 34 33 33 37 39 39 38 36 33 30 26 24 23 21 17 13 10 6 5 4 4 5 6 8 9 10 11 11 12 13 14 15

GFSMA_700_rhum_072.txt.gz
RH
44 44 45 45 46 46 47 49 50 52 54 57 59 57 51 45 40 37 37 39 49 58 62 63 62 60 57 57 58 58 58 58 57 51 45 42 38 34 35 34 34 33 32
28 31 35 40 44 46 49 51 53 56 56 54 50 43 38 35 35 36 36 36 35 36 44 56 64 68 68 66 63 62 61 60 60 61 57 50 46 40 36 37 37 36 35
32 31 28 30 32 36 41 47 50 49 49 47 42 41 40 43 45 44 45 47 45 44 42 42 49 59 66 69 71 70 69 68 65 63 63 62 55 49 42 38 40 39 38
40 40 40 36 30 28 32 41 49 50 49 46 44 44 46 48 53 58 60 57 54 54 53 53 54 54 53 53 55 58 63 67 72 72 68 66 66 61 54 46 40 42 41
44 44 45 46 39 34 34 34 38 43 44 44 47 50 53 62 70 67 49 47 48 45 48 51 56 57 62 63 61 62 62 62 64 74 80 75 71 70 68 59 48 42 44
40 40 42 45 38 30 29 31 34 38 43 52 59 60 65 56 55 52 32 28 25 28 34 43 56 63 65 66 68 68 72 75 76 71 73 84 83 78 77 76 65 49 43
26 26 28 29 28 27 24 22 26 32 39 51 62 44 38 35 19 22 26 29 38 50 47 44 41 54 65 72 74 75 75 79 88 91 86 74 83 90 93 89 88 71 49
27 26 26 26 26 26 24 22 23 24 17 23 26 24 23 23 25 17 18 22 35 40 32 33 41 43 45 50 59 69 72 78 82 90 93 92 89 90 88 84 92 98 87
20 19 20 20 21 22 21 20 19 19 19 22 21 25 32 23 19 16 17 22 28 28 52 62 54 48 52 56 56 61 65 69 75 80 85 90 98 98 99 98 100 100 100
15 14 14 15 16 17 17 16 16 16 18 20 20 20 19 18 18 22 25 30 32 39 55 43 39 32 30 35 33 32 40 47 54 74 85 90 86 97 93 97 100 99 99
13 12 12 12 13 13 14 15 17 18 19 19 19 20 19 20 27 35 40 45 47 55 40 40 37 27 25 25 26 26 29 34 44 48 57 62 64 78 86 99 99 91 95
12 12 12 13 14 15 17 19 20 20 20 19 18 19 25 36 63 56 46 39 43 40 29 26 25 33 37 38 38 39 40 44 46 47 48 50 53 68 90 93 90 100 95
12 13 14 16 17 18 20 20 19 16 17 21 28 33 37 39 41 47 40 33 31 22 24 26 32 41 40 40 44 42 43 46 48 52 53 53 58 57 63 74 93 93 99
15 16 18 19 18 18 16 16 17 21 25 27 20 13 13 14 22 24 24 24 24 24 28 33 41 42 45 44 41 43 46 51 53 56 54 56 60 66 72 87 90 95 94
21 20 18 16 15 16 17 20 25 28 22 13 11 13 12 13 14 18 20 22 24 30 33 40 42 42 41 33 36 42 47 54 58 56 58 63 74 74 77 94 91 98 99
20 19 18 19 22 25 28 30 30 22 13 15 20 25 20 18 20 20 23 28 33 35 39 42 41 39 32 35 38 43 48 49 51 55 65 66 73 68 74 100 100 98 99
21 24 25 29 32 32 32 31 24 16 17 22 29 29 22 24 23 25 36 37 36 42 42 39 37 35 32 34 41 45 49 48 47 50 56 56 75 72 76 92 100 98 97
31 33 34 34 35 33 29 22 18 20 25 31 33 28 29 26 34 38 38 41 46 44 43 43 38 44 40 41 43 43 44 47 42 53 58 57 56 67 74 82 94 91 88
38 38 39 39 37 26 21 24 25 29 37 38 36 32 34 40 41 44 47 46 42 46 44 26 8 8 30 32 7 4 4 4 4 4 6 11 18 12 32 71 77 86 95
40 44 45 43 34 26 29 33 40 42 40 40 41 42 41 41 41 26 14 7 7 7 6 6 5 5 5 4 5 6 6 6 6 5 5 4 4 4 5 8 18 34 67
45 49 48 41 33 36 44 45 46 46 44 44 41 23 12 10 11 14 15 16 17 18 19 19 20 21 21 21 21 19 16 12 10 8 6 5 4 3 2 3 4 8 11
52 52 44 42 45 51 52 50 49 49 34 15 11 11 13 15 18 21 23 24 25 26 27 28 28 28 27 26 25 22 18 14 9 5 5 4 3 2 2 2 2 2 2
54 57 57 56 56 56 55 54 35 16 12 11 14 18 21 24 26 28 30 30 30 30 30 30 29 28 26 22 20 19 16 13 11 9 6 4 3 3 3 3 3 3 3
63 67 66 66 64 60 42 19 14 13 16 20 23 25 28 30 30 30 32 34 34 32 31 29 28 25 24 23 21 17 13 10 7 5 4 4 4 4 4 4 5 5 5
72 70 74 70 60 27 18 16 17 21 23 26 29 32 31 32 36 38 38 37 35 32 29 27 25 24 23 20 17 15 12 10 8 6 5 5 5 6 6 7 7 7 7
74 71 77 60 28 19 19 20 23 25 28 32 33 33 35 37 37 38 40 40 39 36 32 29 27 25 23 23 22 20 17 12 10 8 8 7 7 8 9 10 10 11 12

GFSMA_700_rhum_075.txt.gz
RH
42 42 43 44 45 45 46 47 48 49 49 50 52 52 48 42 38 35 35 36 36 37 37 36 35 35 45 61 64 64 62 60 60 60 59 57 50 44 40 35 35 35 34
29 27 27 29 33 37 41 44 46 48 50 51 49 47 43 39 37 38 41 42 45 48 48 46 44 42 40 39 44 54 63 69 68 66 64 62 61 57 49 44 38 37 37
32 33 33 33 33 28 26 29 34 40 44 49 49 47 43 42 42 44 45 50 56 56 51 51 49 49 48 47 46 45 46 51 62 67 71 70 68 65 64 56 48 40 39
37 38 40 40 41 41 36 29 28 30 35 42 47 47 43 41 47 51 56 60 59 54 43 43 41 41 41 45 50 53 60 58 59 64 68 72 75 73 70 69 63 51 41
39 40 40 41 42 42 42 36 28 29 31 36 38 41 44 52 58 60 51 54 48 32 22 25 25 30 35 44 56 61 64 66 64 64 71 76 76 81 82 77 75 72 56
36 36 36 38 39 39 39 35 28 29 38 41 38 37 42 50 52 38 32 24 23 25 25 28 42 46 44 44 45 62 69 70 70 72 69 73 79 83 85 89 88 84 82
26 26 26 26 27 28 29 31 36 38 40 33 38 30 20 19 22 19 24 27 22 20 21 31 44 40 37 34 42 42 43 50 61 68 75 82 79 79 87 89 90 88 91
29 29 28 28 27 27 26 30 33 34 35 37 32 25 20 21 20 26 21 18 19 21 22 29 31 54 58 57 55 58 62 62 62 64 67 74 81 86 88 92 94 94 96
29 29 26 20 18 18 26 29 31 30 26 22 21 22 23 25 28 28 21 16 18 26 30 34 40 56 51 40 36 31 32 34 37 50 56 62 70 85 90 77 84 99 84
31 27 21 17 15 15 16 15 16 18 19 18 20 19 22 23 23 22 23 22 32 43 42 42 50 43 34 29 24 23 24 23 26 28 32 33 43 57 71 85 85 80 100
27 24 22 19 14 13 13 13 14 16 18 19 20 22 21 22 20 21 27 37 58 50 36 40 42 29 24 23 28 31 32 32 33 34 34 36 39 41 46 59 78 88 99
28 25 21 16 13 12 14 15 17 18 19 21 22 21 20 23 30 37 44 41 48 43 37 37 26 26 26 31 36 36 34 35 35 34 34 37 39 42 45 49 63 72 96
26 22 17 14 14 16 17 18 19 19 18 17 17 22 28 34 33 27 30 36 28 26 26 29 26 29 36 44 39 37 40 35 31 32 35 38 37 43 48 52 61 81 91
19 18 16 16 18 19 19 18 17 16 16 19 24 28 23 14 12 14 16 67 26 23 24 24 29 35 41 41 38 37 29 30 34 41 46 46 46 47 49 55 62 68 74
21 18 18 18 19 18 17 17 19 22 24 27 28 20 13 15 16 19 17 21 23 24 26 30 32 40 39 38 34 28 30 36 40 42 42 48 57 55 59 67 72 78 86
23 22 22 21 20 20 22 26 29 31 32 30 21 15 18 24 27 20 22 22 24 30 36 35 42 40 36 31 28 29 36 40 39 40 40 46 54 49 62 67 62 92 97
25 24 24 24 25 28 32 34 35 33 30 22 17 20 25 32 27 24 25 26 38 39 40 43 42 39 38 38 30 32 42 45 42 35 30 39 48 51 59 61 73 93 98
26 26 26 29 34 36 38 38 35 28 22 20 24 28 34 33 30 28 36 40 42 46 44 43 39 13 22 42 42 32 9 5 4 4 4 4 5 12 19 25 55 73 77
36 37 38 38 39 39 40 40 30 23 25 28 33 38 37 33 34 42 44 47 44 19 15 25 32 19 4 3 8 10 4 4 4 5 5 6 5 6 5 5 6 23 55
45 43 42 42 41 42 42 39 29 31 35 42 42 40 40 43 43 44 24 10 9 13 15 15 15 16 16 17 17 16 16 17 17 16 14 11 9 7 6 5 4 3 6
48 46 46 46 48 48 44 37 39 45 48 47 47 47 38 18 11 11 14 16 18 20 21 22 23 24 25 26 26 25 25 24 23 20 15 10 7 6 6 5 3 2 2
49 48 50 52 51 48 47 49 52 51 52 52 31 11 11 12 15 19 22 24 25 27 28 28 28 28 28 28 26 25 23 21 20 18 14 14 12 10 8 6 4 3 3
49 52 55 52 52 56 59 60 56 54 36 13 10 12 17 21 24 26 28 29 30 31 32 32 31 30 28 27 25 24 23 22 19 16 13 11 8 6 5 4 4 4 4
54 56 57 61 63 66 64 63 46 17 12 12 17 23 25 28 30 30 31 35 36 36 35 32 30 28 26 25 25 23 20 18 17 15 14 12 10 9 7 6 5 5 5
60 64 70 72 74 72 67 40 15 12 17 22 25 29 32 32 33 36 37 36 38 40 41 38 34 30 28 26 25 24 25 24 23 21 18 18 16 13 10 7 7 7 7
69 74 77 78 78 68 31 15 16 20 24 27 31 34 34 35 37 36 35 38 40 42 47 48 44 39 35 33 32 32 32 31 29 29 26 25 18 15 13 11 11 10 10

GFSMA_700_rhum_078.txt.gz
RH
39 41 38 36 36 34 34 37 39 40 41 44 44 43 43 42 40 37 36 36 38 43 49 52 46 44 45 47 46 44 46 50 59 65 69 68 65 63 60 52 44 38 36
40 28 27 28 27 27 27 25 23 24 28 30 36 40 42 42 43 41 39 41 47 54 57 60 54 44 44 41 37 38 48 52 51 51 55 64 70 71 68 65 59 50 41
29 32 35 36 36 36 37 36 34 26 23 24 27 31 35 39 42 41 43 51 54 45 48 54 48 28 30 29 32 32 34 50 55 66 65 65 66 68 73 73 69 66 55
34 34 36 37 36 36 37 38 38 37 31 25 24 26 30 36 39 36 41 53 53 31 25 20 21 25 27 30 35 46 56 48 51 62 70 73 71 73 74 75 78 76 72
35 36 37 38 37 34 32 32 33 33 31 28 31 39 45 41 43 35 23 27 27 22 22 20 17 19 24 42 46 45 47 50 52 57 60 59 69 72 78 79 80 82 83
36 34 34 30 29 26 26 28 28 29 30 36 40 39 44 34 30 26 21 23 24 26 22 17 16 18 25 32 33 36 38 41 43 51 73 75 76 75 82 84 80 80 82
33 28 27 28 28 28 28 29 41 40 39 39 47 39 39 36 27 19 16 20 23 22 17 18 22 26 29 29 40 52 54 54 55 59 59 65 70 75 81 88 91 89 88
30 30 30 29 29 28 26 22 20 22 29 33 35 32 23 19 18 20 21 17 19 20 19 22 28 32 36 42 49 52 42 39 35 35 41 49 56 68 77 82 91 92 91
33 32 31 31 30 27 22 18 17 17 17 16 19 31 26 20 19 22 22 20 20 18 20 33 45 43 48 54 44 33 32 28 28 29 29 29 30 39 53 69 76 92 93
34 34 34 33 29 24 22 20 16 15 14 15 17 20 24 24 27 21 24 23 25 28 36 53 45 24 38 40 28 25 24 27 33 35 36 35 34 32 30 40 64 78 93
31 32 33 30 29 27 23 18 15 13 14 16 18 20 22 23 24 23 20 25 37 50 50 86 28 25 28 25 24 25 29 31 37 37 38 39 38 37 40 41 46 60 76
34 34 33 31 29 25 20 16 14 15 16 16 19 21 22 21 19 22 30 35 45 90 96 61 24 25 24 26 27 30 36 36 36 38 34 28 29 34 38 39 40 40 49
33 28 24 22 21 21 17 15 16 16 17 17 18 17 18 22 28 31 28 19 19 59 30 63 26 25 26 29 32 36 36 37 37 27 28 30 35 40 38 38 38 43 51
26 21 20 19 19 18 17 18 18 18 17 17 17 19 22 26 28 19 14 16 25 35 37 24 23 27 32 32 37 34 36 35 25 30 34 36 40 43 43 43 43 52 62
37 27 23 20 20 20 20 20 19 19 19 20 24 27 30 28 19 15 19 25 24 23 25 23 30 34 32 37 35 32 31 28 30 35 33 35 39 42 48 42 46 51 52
41 33 26 22 21 21 21 22 22 23 27 28 32 32 30 22 16 20 27 28 22 24 24 33 36 38 38 35 36 33 26 28 38 40 40 36 36 38 40 40 30 35 49
37 31 27 24 23 24 24 24 28 31 33 35 34 30 24 19 23 28 34 26 27 26 38 37 44 42 39 29 36 35 30 37 36 30 16 5 5 5 8 11 10 7 37
28 27 26 25 25 25 29 32 34 35 36 37 30 23 22 25 31 38 32 30 33 41 43 41 40 42 22 8 6 28 36 14 5 4 4 4 5 5 6 6 6 8 10
28 30 32 32 33 36 38 39 40 41 41 35 26 28 32 40 40 35 34 43 43 42 28 7 12 15 12 8 10 10 8 9 10 12 14 16 16 15 12 9 7 6 5
40 43 44 44 43 42 44 43 43 45 42 34 34 42 45 42 42 44 44 40 18 9 13 16 18 19 20 21 22 23 23 23 24 24 23 22 21 18 13 9 7 6 5
51 49 48 48 47 45 47 49 47 45 40 42 49 48 48 47 40 19 11 12 15 18 22 23 25 25 27 26 27 27 26 25 24 23 21 20 18 17 16 14 11 8 6
53 49 47 48 49 49 51 52 48 49 52 54 53 53 37 12 11 14 18 22 24 26 26 29 28 30 30 29 28 26 25 24 24 22 20 20 17 16 12 9 7 6 4
58 51 46 48 56 54 53 54 57 61 63 61 45 18 10 13 19 23 25 28 30 30 33 34 34 32 30 28 26 25 25 24 23 21 20 19 17 16 14 13 12 9 7
62 54 48 54 59 59 64 68 67 67 55 20 10 11 16 23 26 30 30 33 37 38 38 39 40 40 36 32 28 27 26 25 25 25 25 25 24 24 22 19 17 14 10
63 54 49 60 67 74 77 77 72 41 13 10 15 22 25 29 31 33 36 36 38 40 41 42 45 47 46 43 36 33 32 32 32 33 33 34 32 31 30 28 24 20 16
61 51 60 72 77 82 85 76 39 12 12 18 25 29 33 34 33 35 35 35 36 37 40 46 51 52 50 48 46 44 42 42 42 43 40 40 40 38 37 33 28 23 18

GFSMA_700_rhum_081.txt.gz
RH
38 40 38 31 27 26 24 24 22 20 19 20 24 27 28 32 37 38 39 39 40 48 53 51 49 50 43 37 32 40 45 44 51 53 53 56 59 65 71 69 65 59 50
38 38 27 30 32 33 33 33 33 34 31 25 22 20 20 22 25 29 35 38 38 47 54 50 36 38 23 22 45 50 54 46 45 55 58 64 62 62 64 69 72 70 65
43 28 30 31 32 33 33 33 34 31 32 32 29 24 21 22 29 38 37 31 28 22 25 26 23 22 22 22 54 57 52 66 66 65 60 65 65 68 69 72 71 73 74
32 32 32 33 35 35 32 30 28 28 28 28 27 27 32 36 43 42 34 31 27 20 20 17 19 20 17 18 20 34 55 67 69 67 64 62 68 67 71 70 72 74 76
33 34 34 34 32 27 25 25 26 26 26 28 32 29 31 31 34 40 36 31 24 22 20 21 19 15 15 16 20 29 33 47 57 60 66 63 68 77 80 76 77 80 80
34 34 34 32 27 26 26 26 26 26 27 31 28 33 40 41 38 38 30 23 21 24 22 23 22 16 16 19 26 30 36 46 47 42 52 63 74 81 83 82 81 81 77
35 33 27 26 26 26 26 26 26 25 21 18 17 18 16 19 22 25 21 18 19 21 22 22 26 21 24 32 38 37 42 57 54 44 38 43 73 74 74 82 89 85 86
34 30 32 31 30 28 27 27 26 24 20 17 16 14 11 12 14 18 17 19 19 20 20 26 19 20 36 49 43 45 48 44 35 37 35 33 33 41 60 73 81 89 86
39 36 35 33 30 29 28 28 26 23 21 19 16 14 13 11 12 16 22 20 21 23 23 23 22 31 40 48 42 38 36 28 26 26 29 31 29 28 27 36 55 74 77
40 38 36 33 31 31 30 29 27 26 23 19 15 14 15 18 19 17 20 23 25 22 22 26 32 28 24 19 27 29 24 25 26 31 37 40 38 36 35 33 35 54 57
41 38 36 33 33 33 32 30 28 26 21 17 14 15 16 19 22 24 23 20 24 30 36 40 26 44 25 19 21 22 26 28 33 38 40 38 38 37 35 34 36 47 55
45 42 38 37 34 32 29 26 24 23 20 16 15 17 19 19 19 19 20 24 27 32 38 31 91 49 28 23 22 26 28 33 36 35 37 38 29 32 33 35 34 35 35
39 39 37 32 26 22 21 20 19 18 17 16 17 17 17 18 19 21 23 26 28 22 22 24 35 38 28 24 26 30 30 36 35 35 30 27 34 35 38 39 40 38 35
43 36 32 34 35 31 23 20 19 18 17 17 18 18 19 20 23 26 29 26 17 16 18 30 26 27 26 29 33 31 34 35 33 28 28 33 32 35 38 37 40 43 45
51 46 41 39 39 38 32 24 20 20 19 19 20 21 23 28 30 32 29 19 17 22 32 29 26 26 31 34 36 36 33 31 25 27 34 34 34 31 34 36 39 42 45
60 59 53 47 37 36 30 25 23 22 21 22 22 25 28 32 32 30 23 19 22 29 28 28 27 34 37 42 40 36 32 35 28 33 39 41 34 19 18 15 10 12 12
80 49 41 37 31 25 24 23 23 23 26 26 30 32 35 35 30 25 22 25 32 32 27 28 38 42 44 42 24 19 35 37 38 31 15 10 5 5 5 5 6 6 7
55 43 34 29 27 26 26 26 27 29 33 37 36 37 38 33 24 24 28 34 36 32 30 42 47 38 41 39 28 8 4 6 13 10 4 5 6 9 11 12 9 7 6
46 40 41 37 32 34 38 38 37 40 40 42 42 42 39 29 28 31 38 39 34 39 44 46 14 8 10 11 12 17 18 20 20 21 22 22 22 22 21 18 13 10 8
40 43 38 43 48 46 47 46 45 44 43 45 46 44 37 35 41 43 40 41 45 45 25 9 14 17 20 22 24 25 25 25 25 25 24 23 22 21 19 18 16 14 11
53 52 53 53 51 49 48 47 48 52 50 50 48 44 47 49 46 48 49 41 17 12 15 19 22 25 28 28 28 29 28 26 26 25 23 22 21 20 18 17 16 14 11
63 61 60 58 55 48 46 49 52 54 54 51 52 56 56 55 46 19 11 13 18 22 24 28 28 30 32 32 31 29 27 26 25 24 22 22 20 18 17 16 15 13 12
60 64 64 59 56 51 46 51 54 54 55 59 61 61 51 20 11 13 18 23 26 29 30 33 36 36 36 36 34 30 28 26 26 24 23 23 24 24 23 24 24 23 22
42 55 64 64 60 52 48 58 60 65 70 70 65 36 11 13 20 25 29 32 33 36 38 38 40 41 42 44 44 40 34 30 28 29 30 30 31 32 32 32 33 35 33
46 59 69 67 58 53 62 71 74 77 74 52 14 10 18 25 30 33 34 36 38 38 37 36 37 43 47 49 49 48 45 42 39 39 38 39 39 39 40 41 40 40 38
66 75 71 62 56 71 80 85 86 79 40 11 12 21 28 32 35 36 36 38 37 36 35 36 43 50 52 51 52 51 49 46 46 46 44 45 46 46 45 46 44 42 38

GFSMA_700_rhum_084.txt.gz
RH
42 39 41 32 27 27 28 29 30 30 28 25 22 21 20 21 22 24 28 32 38 40 36 40 33 29 21 21 28 54 51 51 51 40 39 53 57 63 61 61 68 71 68
41 38 38 28 30 30 30 30 31 31 30 29 31 29 27 24 22 25 37 40 38 35 26 22 23 22 19 20 40 58 77 74 69 69 64 56 58 64 65 66 67 67 71
40 41 31 29 28 30 30 29 26 26 26 25 25 25 25 26 36 37 41 45 35 32 26 19 18 20 58 25 40 60 52 73 74 79 78 71 56 60 70 70 70 71 72
39 42 31 31 29 32 31 27 25 25 25 24 25 28 33 33 31 33 36 40 39 32 21 17 17 20 20 16 17 21 26 40 67 70 78 72 71 63 62 64 67 74 77
40 39 32 33 32 31 27 26 26 25 25 24 24 22 20 18 26 32 34 36 30 24 20 18 19 20 18 18 19 22 29 30 31 52 70 74 73 71 77 85 81 77 78
44 34 35 34 33 26 25 25 25 24 24 24 22 20 17 15 14 14 16 20 23 19 18 19 20 20 20 19 22 30 34 36 33 40 50 52 69 77 82 85 86 81 83
43 37 38 36 27 27 28 28 26 25 24 25 23 20 18 16 14 13 13 15 18 17 20 29 22 20 22 28 31 41 40 38 44 48 43 35 38 52 78 95 84 89 84
41 42 39 30 32 32 31 29 27 27 27 26 25 24 21 19 15 13 12 14 19 19 18 20 22 18 22 30 42 41 39 35 35 34 27 24 25 29 32 57 86 98 99
72 62 48 38 36 34 33 31 30 28 27 27 27 25 22 19 16 15 14 14 17 21 23 24 23 38 37 37 28 27 28 24 24 23 24 26 29 31 30 28 30 43 74
76 69 46 40 38 35 33 31 29 29 29 29 28 25 21 18 17 14 14 18 21 23 23 21 24 34 46 38 22 21 23 22 23 26 28 34 36 36 37 36 36 34 49
52 46 44 44 44 41 37 35 33 30 27 25 23 23 20 18 18 19 19 21 20 20 23 26 31 36 38 85 28 22 22 24 28 30 38 36 35 35 35 30 32 35 38
51 49 48 44 42 40 36 31 25 23 22 21 20 19 18 18 20 21 20 20 25 22 26 32 27 36 70 58 38 23 23 28 31 33 36 30 36 28 24 29 32 32 32
58 53 46 42 40 38 34 32 32 32 27 20 18 18 19 19 20 21 21 23 27 30 30 28 18 29 65 35 28 26 29 32 34 35 33 31 24 28 30 38 39 39 37
52 51 50 62 53 49 45 44 40 36 35 29 22 18 20 21 21 23 26 30 32 31 29 20 19 31 36 28 26 32 35 38 36 31 27 23 32 31 30 36 41 42 43
64 71 72 56 60 60 47 39 41 37 34 29 24 22 21 22 24 28 32 35 34 30 22 21 29 40 32 29 34 39 40 36 34 32 26 30 35 35 31 32 36 36 34
78 67 70 79 84 79 48 35 31 26 24 23 23 23 24 26 29 33 36 36 31 24 20 25 29 36 29 34 40 43 36 31 32 28 29 35 35 30 8 5 5 8 6
93 94 96 93 80 69 41 32 28 27 26 25 26 27 30 32 36 38 38 33 26 25 28 33 31 29 34 42 46 38 8 7 25 33 24 7 5 4 4 5 5 5 6
98 84 68 69 61 47 37 40 35 31 33 33 33 37 39 40 41 42 38 28 27 31 38 36 32 36 46 40 43 29 24 5 8 8 8 8 11 13 16 18 18 17 15
96 84 66 60 48 44 44 42 38 43 43 43 43 43 44 43 46 44 35 32 38 42 40 34 42 48 26 13 14 13 15 20 22 23 23 24 23 23 23 22 21 19 15
69 66 54 47 48 48 52 54 50 48 46 45 46 46 50 48 48 43 44 46 44 40 42 51 50 15 11 16 20 22 25 27 27 26 25 24 23 22 21 20 19 18 16
54 50 53 57 59 60 57 55 52 47 45 46 48 49 50 49 46 53 52 48 50 55 51 20 12 18 22 24 26 27 29 30 29 27 25 24 22 21 20 19 17 16 14
60 66 67 66 66 64 62 59 56 49 45 48 50 52 52 51 50 56 57 53 35 13 13 20 26 30 32 32 33 33 31 29 27 25 24 23 23 21 20 20 20 19 18
54 46 44 44 48 56 61 61 57 50 50 55 56 60 64 65 59 33 12 12 17 25 29 30 32 35 38 38 39 39 38 34 30 27 26 25 25 26 26 27 27 28 28
50 48 46 44 42 51 64 64 56 51 59 64 69 72 72 49 12 13 23 27 32 34 33 37 39 41 42 42 44 46 46 44 38 33 31 31 31 32 33 34 35 35 37
56 55 52 50 54 69 70 62 58 66 74 78 78 63 25 11 20 34 31 35 35 37 40 40 39 37 41 47 50 50 50 49 47 45 43 41 41 41 41 42 43 44 43
61 58 58 67 77 72 61 60 71 78 85 82 46 12 13 33 40 32 37 37 38 38 38 37 36 39 47 54 55 54 53 52 51 48 47 46 46 46 47 48 48 48 48

GFSMA_700_rhum_087.txt.gz
RH
44 44 43 41 33 28 28 30 32 33 33 33 34 32 31 28 26 23 24 30 41 42 38 31 24 18 17 19 54 52 61 79 78 65 66 62 49 52 56 60 59 58 63
43 43 41 40 28 29 29 29 28 28 27 26 24 24 25 26 26 29 36 38 42 45 38 34 25 16 17 62 90 61 79 74 82 83 79 74 70 61 51 60 63 64 64
42 43 40 37 30 30 31 30 28 26 25 24 24 24 25 28 33 34 34 36 38 38 36 25 18 16 84 29 22 35 31 52 66 82 85 81 80 74 68 57 61 62 63
42 42 40 35 32 33 32 30 26 24 24 24 24 24 24 22 20 17 18 21 23 24 22 20 18 17 20 23 19 16 17 19 22 27 67 77 82 78 72 67 61 60 58
42 41 40 36 33 34 33 30 26 26 26 25 24 24 23 21 18 17 16 15 15 15 19 20 18 22 20 20 20 18 20 26 29 30 30 46 71 79 82 76 75 79 76
44 41 43 36 35 36 34 27 27 27 27 26 25 24 23 22 22 21 18 15 14 15 18 20 19 18 24 20 18 20 25 30 41 39 38 42 50 54 72 85 85 80 78
45 42 46 38 40 38 29 30 31 30 28 27 25 25 24 26 25 23 19 16 15 17 19 21 20 18 33 18 19 28 34 37 40 37 35 40 44 41 38 52 81 90 92
58 53 49 47 40 32 35 35 33 31 29 29 28 26 23 24 25 23 20 18 16 16 18 18 21 24 22 20 32 28 33 27 29 32 31 29 24 25 27 28 30 53 95
96 81 78 70 76 54 40 36 35 34 32 31 32 31 28 25 25 24 21 19 17 18 19 20 24 25 24 30 75 44 35 26 24 25 24 25 26 25 26 29 28 28 51
82 86 92 84 82 60 41 42 41 38 36 31 27 24 23 22 22 21 20 19 19 20 21 22 23 25 28 36 71 41 43 31 27 24 27 28 30 34 34 36 34 32 32
84 93 93 67 56 52 47 45 40 36 33 30 28 25 22 21 22 22 20 20 19 20 21 22 24 28 30 35 39 64 36 27 25 28 32 30 34 36 32 32 32 31 32
94 95 76 69 52 52 46 41 40 45 42 34 35 35 31 23 20 20 22 23 23 22 23 26 28 31 32 26 24 37 36 25 27 32 31 34 34 32 30 24 26 28 27
94 94 82 62 53 54 50 57 53 52 49 47 46 41 37 32 25 21 21 23 28 30 29 32 32 33 35 26 29 37 31 25 34 33 36 31 29 26 27 31 33 32 32
82 80 61 54 50 66 61 53 57 61 74 41 36 37 34 30 26 24 24 26 31 35 37 34 35 36 36 29 52 32 28 36 36 38 34 27 23 29 30 30 32 34 33
78 64 57 55 67 71 68 62 70 78 65 44 28 26 25 25 26 27 27 30 36 39 39 36 34 30 35 45 40 33 33 40 40 35 33 27 27 33 34 33 32 34 32
80 74 63 69 67 75 89 88 84 84 70 33 32 29 29 30 30 32 34 36 41 42 40 35 30 28 32 46 39 34 42 46 32 34 30 28 35 32 32 13 8 7 6
77 82 93 98 98 79 83 70 62 59 41 40 39 35 36 39 40 40 41 42 46 45 40 32 29 30 36 35 34 45 50 28 6 10 26 28 11 6 5 4 5 5 5
84 92 98 95 91 93 67 60 54 44 42 41 42 41 42 44 45 46 49 48 49 45 36 32 37 41 38 33 45 48 45 24 14 8 12 10 9 9 10 12 15 17 18
90 93 98 95 94 73 60 49 44 45 47 48 46 45 44 47 48 46 49 52 49 42 39 43 50 44 38 51 42 28 28 14 15 19 22 24 23 22 22 22 22 21 20
98 96 89 78 68 54 49 53 58 57 55 54 51 46 44 45 49 52 54 50 46 46 47 47 42 45 56 43 9 15 20 24 26 26 26 26 25 24 23 22 21 20 18
88 79 70 59 52 59 62 64 64 61 58 56 53 48 46 50 53 55 56 56 55 52 50 53 59 58 17 13 22 28 30 30 30 30 29 27 25 24 22 21 20 19 18
73 62 56 62 69 57 46 47 52 58 57 57 54 48 46 53 55 58 60 63 64 67 69 59 17 15 25 30 31 32 34 33 32 30 27 25 24 23 22 21 20 19 18
59 65 65 50 46 44 43 42 42 45 56 60 55 52 57 63 66 68 65 50 30 19 18 23 30 32 34 37 38 38 40 41 41 38 33 29 26 25 24 25 25 26 26
70 54 51 50 50 52 51 48 47 55 62 60 59 66 71 75 74 48 15 13 21 34 36 35 35 38 40 44 41 41 45 47 47 46 41 35 32 30 31 31 33 34 35
56 57 57 56 57 55 52 52 64 69 62 65 75 80 79 66 24 14 25 41 45 40 38 40 42 43 39 38 42 49 52 52 51 50 48 46 43 41 40 40 41 42 43
64 64 63 62 60 57 60 72 69 58 65 77 85 81 51 14 18 37 50 54 54 44 44 41 41 38 37 38 48 56 58 57 56 54 51 49 48 47 46 46 47 48 49

GFSMA_700_rhum_090.txt.gz
RH
47 46 46 44 42 33 30 30 31 32 32 32 30 29 28 27 27 27 28 33 36 34 36 40 37 30 18 43 87 69 79 80 80 72 76 75 70 66 58 51 56 60 60
45 44 44 43 42 30 29 30 30 30 31 31 30 29 28 27 29 31 34 34 36 37 38 37 31 19 36 91 35 43 74 51 74 74 79 80 80 75 74 68 53 54 60
43 43 44 43 42 30 30 31 32 31 29 28 28 27 26 26 24 21 19 18 17 17 14 15 17 20 36 30 23 40 17 16 16 23 53 69 82 81 79 70 66 56 54
42 43 44 43 42 32 32 34 34 32 28 27 27 26 26 24 24 21 20 18 17 15 12 14 16 18 16 18 22 21 19 17 17 19 23 48 60 75 77 80 71 68 69
43 44 44 44 42 34 35 36 34 29 28 28 28 28 28 27 25 25 24 23 20 17 14 13 15 18 20 20 23 19 20 19 21 24 34 34 34 51 74 80 80 78 76
51 48 47 44 44 37 38 39 34 28 31 30 29 29 27 27 27 27 26 24 21 19 17 15 16 16 17 19 20 21 19 24 27 29 37 37 36 38 42 50 73 89 86
63 54 50 44 47 43 44 41 31 34 34 32 31 30 28 29 29 29 27 26 24 20 18 16 17 17 18 18 21 19 22 30 24 23 26 26 31 36 43 41 39 59 84
76 74 58 48 55 54 46 35 37 37 35 36 38 36 34 32 26 24 23 23 22 21 20 20 20 20 19 22 22 25 22 38 28 18 17 19 21 24 24 23 26 28 38
92 92 90 74 77 73 59 52 43 40 41 40 38 32 31 33 26 26 23 22 22 21 21 22 24 22 22 24 29 34 32 39 38 27 22 22 21 23 24 25 26 27 28
97 88 97 96 97 88 91 86 68 47 43 39 35 34 33 32 32 32 26 22 19 18 19 20 22 24 26 28 30 36 36 33 44 38 26 24 26 27 30 30 32 33 35
97 98 98 99 98 100 98 90 68 47 41 39 49 51 47 42 38 36 32 30 25 21 20 21 23 25 28 30 40 43 36 29 47 36 26 26 31 31 32 28 27 29 31
95 95 99 99 98 99 97 68 50 45 48 54 54 50 50 41 40 42 38 33 29 25 23 24 27 29 30 43 42 48 31 27 45 31 29 31 34 33 31 30 24 24 25
100 100 99 97 96 98 81 62 55 54 56 62 61 62 70 60 35 34 34 30 28 27 26 27 29 34 36 39 50 44 34 41 34 30 36 33 34 29 30 24 27 28 30
100 96 98 99 99 87 66 60 57 60 60 62 64 76 60 34 28 26 25 26 25 28 27 31 34 36 37 39 67 43 44 44 30 34 36 36 33 26 26 31 29 29 30
99 98 98 91 79 67 61 58 64 68 68 70 82 77 66 35 36 31 29 30 32 30 32 32 39 41 40 36 45 52 38 38 35 42 38 32 33 27 34 35 32 29 32
87 91 94 87 74 64 62 69 76 79 84 74 66 63 41 41 41 40 39 37 40 40 41 40 45 45 40 34 36 45 50 36 46 44 35 32 29 33 37 37 30 21 15
84 85 92 92 80 81 96 96 90 81 65 60 52 44 43 41 41 42 42 44 45 46 46 47 47 46 39 33 37 43 39 41 50 19 11 31 36 29 21 18 5 5 5
84 88 86 96 97 91 91 77 88 75 58 46 46 45 46 48 49 48 47 47 49 50 49 49 49 44 39 42 44 37 40 50 47 16 5 8 10 9 8 6 6 6 9
75 80 86 94 91 89 77 85 73 58 45 47 50 51 50 51 49 46 45 47 51 54 56 52 49 48 49 52 42 43 53 48 43 19 15 21 22 23 22 22 21 21 21
87 79 88 93 94 78 86 68 53 49 49 53 55 54 54 52 50 46 42 44 49 52 53 52 52 55 56 47 50 60 13 13 17 22 25 27 27 27 25 24 23 22 21
84 92 90 83 88 81 63 50 53 52 46 43 43 46 51 53 50 46 45 49 53 55 56 59 55 51 57 68 49 12 18 26 29 30 30 30 29 27 25 24 23 22 20
77 88 90 84 71 54 55 53 41 38 36 35 35 39 47 54 52 49 54 57 60 62 62 67 73 71 37 15 22 30 31 33 34 33 32 29 27 26 24 23 22 20 18
64 68 70 60 55 57 47 45 44 45 45 42 42 49 58 56 54 60 66 69 60 46 44 31 21 22 32 35 33 36 38 40 42 41 41 38 32 28 26 24 23 22 22
69 61 57 62 56 52 52 52 53 52 48 46 51 61 60 59 67 72 72 42 15 20 33 39 39 37 38 40 44 44 44 44 48 49 48 46 40 32 28 27 28 29 30
61 66 73 59 60 60 59 59 59 53 53 61 63 57 63 72 77 69 35 16 30 40 42 51 62 52 46 45 41 40 48 53 54 54 52 51 48 45 40 37 37 38 38
71 80 64 64 66 66 66 65 62 56 67 66 55 63 79 82 61 21 23 39 46 51 56 71 76 51 60 47 40 45 48 56 61 62 60 56 53 51 48 48 46 46 46

GFSMA_700_rhum_093.txt.gz
RH
50 49 48 47 45 41 34 30 29 30 30 30 29 28 27 27 27 29 30 32 31 33 32 30 30 29 23 95 72 69 46 80 76 58 68 67 74 75 70 66 56 50 56
49 48 47 46 45 43 32 29 30 30 30 29 29 28 27 27 27 25 23 20 18 16 16 14 13 13 18 39 27 22 24 35 33 18 31 44 61 70 77 75 72 65 53
48 47 46 45 45 43 35 30 32 33 32 30 29 28 28 28 26 25 22 21 21 20 18 15 12 12 16 18 17 16 17 19 18 16 16 24 24 40 76 78 76 71 64
47 45 44 44 44 44 41 33 34 36 36 31 28 28 29 28 27 26 25 24 23 22 20 17 15 13 12 16 17 17 19 19 18 16 16 20 30 39 64 72 72 74 71
46 44 42 44 44 46 44 35 35 37 39 31 30 31 30 30 29 27 27 27 26 24 22 20 18 16 15 15 16 17 19 19 18 22 24 28 30 38 37 49 74 75 78
42 43 43 45 46 47 45 38 38 41 34 32 34 34 32 30 30 30 28 26 25 24 23 21 19 17 16 16 17 18 18 18 19 23 24 27 36 38 38 40 43 60 88
56 51 51 53 52 50 49 43 42 44 34 36 36 35 37 36 32 29 26 25 24 23 22 21 20 18 19 19 17 18 19 18 23 26 25 21 26 30 32 31 38 40 52
75 73 69 63 61 54 57 52 52 38 39 40 40 40 40 35 34 35 30 31 26 22 21 20 20 19 20 20 20 20 20 21 21 30 27 21 19 21 23 26 25 24 28
94 97 92 92 88 68 68 76 61 47 44 46 45 41 38 38 44 46 47 43 37 29 27 23 20 20 20 20 20 24 27 22 28 28 38 29 21 21 20 23 25 26 25
96 98 95 98 99 95 94 97 93 79 68 64 47 41 43 49 53 50 48 48 42 35 32 28 24 22 22 25 27 31 32 34 32 28 32 34 22 22 26 28 28 29 32
96 96 99 100 100 100 98 100 98 100 97 75 53 49 52 56 60 64 64 61 44 39 36 32 28 26 27 27 32 36 47 41 36 26 35 32 27 30 31 28 28 28 31
100 100 100 99 100 99 100 99 100 99 96 89 58 51 54 57 63 69 66 48 32 32 32 30 28 27 29 31 35 50 50 52 44 30 40 26 32 34 33 34 30 29 30
86 90 98 99 99 98 98 95 86 84 81 83 78 57 55 58 62 66 59 29 28 27 27 28 30 29 32 33 36 43 51 65 38 37 40 29 33 36 34 32 31 25 23
99 95 97 97 100 97 99 99 90 84 77 70 58 60 62 66 68 73 54 38 38 34 32 32 33 36 38 37 38 43 53 67 35 40 34 31 38 37 34 27 27 29 28
93 98 99 98 97 100 93 90 86 78 67 59 65 71 73 68 72 57 41 43 40 39 38 36 36 42 41 42 41 42 37 42 34 45 35 40 39 37 34 30 33 30 28
80 84 88 90 88 96 86 81 78 70 68 74 75 68 61 57 50 44 42 40 42 42 41 41 44 44 47 48 47 43 35 35 38 38 41 47 37 37 32 34 37 35 31
85 82 81 86 86 87 88 87 78 84 88 82 80 70 55 44 41 41 42 42 43 44 42 44 46 50 52 50 48 44 41 47 43 41 51 37 29 38 37 36 36 25 7
76 77 90 88 89 93 86 84 94 87 72 78 69 52 42 40 42 43 44 45 46 44 42 43 48 52 54 52 48 45 60 52 48 54 55 7 6 13 12 7 6 5 5
65 73 82 82 83 84 89 92 82 75 75 61 49 41 41 41 45 45 46 47 47 45 44 46 49 53 54 53 50 50 54 46 59 58 37 17 13 19 19 20 19 19 18
52 68 81 77 80 82 84 81 74 75 60 46 44 43 41 37 36 38 45 49 49 46 46 47 53 56 58 59 57 53 46 59 32 28 21 19 24 27 27 26 26 25 24
44 56 80 87 84 87 88 75 80 62 48 46 38 34 32 32 33 35 44 51 49 47 48 51 56 59 56 52 54 60 58 18 16 25 30 30 31 30 30 28 26 24 23
41 47 54 68 87 90 88 82 62 55 46 39 39 39 39 39 38 43 51 52 50 52 56 58 62 64 66 69 39 16 21 29 34 34 34 33 31 30 27 26 24 23 22
46 52 59 80 85 82 71 57 55 47 46 46 46 47 45 44 47 56 55 53 60 64 56 54 57 44 23 26 36 47 56 49 37 38 40 39 37 34 30 26 24 23 21
59 68 76 77 76 67 64 61 51 53 55 57 54 48 45 51 58 58 60 66 68 49 17 22 32 37 39 41 46 50 51 53 50 52 52 51 48 44 36 30 26 24 23
76 74 74 69 64 66 64 56 60 63 64 61 54 49 58 58 55 63 70 70 50 20 29 42 52 59 58 57 48 46 58 56 67 81 83 57 53 50 47 40 34 31 31
75 69 66 68 74 75 61 63 67 68 65 60 52 55 64 60 68 75 70 42 22 35 42 55 64 68 53 64 75 52 48 78 67 60 82 88 65 58 54 50 48 46 44

GFSMA_700_rhum_096.txt.gz
RH
47 49 50 50 48 47 43 38 32 31 31 31 30 28 28 28 28 27 26 23 21 18 17 16 15 14 18 34 26 29 22 16 22 39 23 20 48 66 69 75 71 65 58
50 50 50 49 48 46 44 37 32 31 31 31 31 30 29 29 27 26 24 22 21 20 20 19 17 14 19 36 22 18 18 14 15 18 18 16 18 29 51 73 78 75 68
50 50 50 49 47 46 45 41 32 33 34 33 31 30 29 29 28 27 26 24 25 24 23 21 19 17 46 65 14 17 15 17 19 18 18 17 19 26 36 48 75 77 72
49 49 50 48 46 45 45 44 34 34 36 35 33 31 31 30 29 29 28 28 27 26 24 23 22 20 18 21 17 36 22 22 25 22 19 17 20 24 38 65 63 72 70
48 50 50 47 44 44 46 46 41 37 38 38 34 32 32 31 31 30 30 29 27 25 24 24 23 21 19 19 28 42 22 21 24 20 19 22 25 28 33 38 56 68 76
48 50 50 46 43 44 46 48 47 39 41 44 36 34 34 33 35 34 31 28 25 26 24 23 22 22 21 20 25 19 19 19 19 21 20 27 24 22 32 37 37 40 59
46 46 44 45 44 46 50 52 50 45 46 50 35 37 36 38 39 33 34 35 36 37 35 26 22 20 20 21 20 20 19 20 22 22 22 27 31 25 22 30 35 34 41
55 56 59 64 66 65 60 59 54 61 54 48 38 40 40 41 38 37 42 47 46 46 42 35 31 28 24 21 22 22 36 24 25 25 25 29 29 32 23 21 22 27 31
64 74 83 84 89 90 78 74 64 62 66 58 45 46 45 42 40 41 48 51 48 55 57 53 42 35 30 26 23 22 24 23 31 31 29 31 29 34 26 23 23 25 25
84 98 85 91 97 99 98 88 75 77 63 65 62 50 45 42 42 44 46 50 52 54 56 51 38 37 34 30 27 26 29 29 32 38 37 27 24 33 26 24 26 27 26
98 90 97 98 100 99 100 100 100 100 96 90 78 59 59 65 58 54 53 54 53 57 58 41 29 30 31 31 29 29 29 36 35 45 37 31 32 34 26 27 29 28 29
98 98 99 98 100 100 98 95 94 93 100 100 98 97 90 76 71 56 55 55 57 60 60 28 27 27 28 29 31 32 32 37 46 53 45 37 34 37 28 34 31 30 36
99 100 93 98 88 87 93 85 92 89 89 86 88 92 90 78 80 61 59 62 66 69 66 40 39 36 33 31 31 33 35 40 52 90 88 55 41 34 33 37 36 34 32
96 95 99 100 97 98 90 100 97 92 94 84 83 84 80 73 61 56 62 64 65 50 42 41 39 38 40 40 38 38 38 40 54 51 66 64 42 33 38 42 37 30 30
74 81 92 96 98 98 98 98 96 89 86 87 87 81 74 68 62 64 60 54 46 43 42 36 34 40 42 44 45 46 44 46 78 45 53 50 50 45 46 39 35 31 34
73 75 78 85 85 90 93 100 99 92 94 85 75 77 87 89 82 67 53 44 42 40 36 36 37 38 42 45 49 51 51 50 47 41 50 54 44 50 42 38 34 37 38
78 81 83 87 88 93 98 92 92 95 88 85 88 88 78 74 71 52 42 40 40 40 38 36 37 40 42 45 50 53 53 52 46 39 43 49 48 50 41 36 36 40 40
82 83 84 85 86 90 89 90 98 87 83 92 85 72 72 62 49 43 42 42 44 44 41 40 42 42 42 46 51 56 56 53 50 49 51 45 58 16 18 35 26 19 24
60 62 60 64 76 85 88 89 88 87 92 86 72 69 59 46 44 43 41 39 37 38 41 44 44 43 43 48 53 55 54 52 54 56 52 61 50 10 11 14 13 13 11
37 46 56 57 68 77 82 86 85 83 85 72 74 60 47 44 37 32 32 32 33 34 38 44 45 44 47 53 56 56 56 55 50 56 51 57 34 16 21 23 26 25 24
34 43 46 48 57 74 80 81 80 80 85 68 61 49 46 37 36 35 34 36 37 40 43 46 46 48 54 59 58 54 54 63 64 21 16 22 28 31 30 29 29 28 26
40 41 45 46 51 64 80 86 87 86 85 70 48 46 42 42 42 45 44 42 43 50 49 48 52 55 60 65 69 68 39 18 25 31 33 33 33 33 31 30 28 26 25
44 44 45 48 53 60 72 86 89 90 72 58 50 45 49 52 50 44 41 45 52 54 56 58 55 52 63 52 25 32 49 56 51 46 44 44 43 41 36 31 28 24 23
60 57 54 62 68 74 84 91 84 71 64 55 51 57 58 56 49 46 50 56 55 58 63 56 26 25 28 32 43 51 48 54 52 52 59 60 55 54 51 46 40 31 25
72 67 66 70 69 78 83 81 72 68 61 57 61 62 60 49 42 52 54 54 62 67 59 29 27 42 54 56 56 50 48 61 64 66 74 82 78 70 56 50 46 37 29
82 79 79 82 87 87 82 77 80 72 60 61 63 65 61 45 45 60 61 64 68 61 35 25 40 49 55 53 53 59 56 49 68 76 59 70 82 93 79 61 52 49 45

GFSMA_700_rhum_099.txt.gz
RH
37 43 44 46 48 48 47 44 42 38 32 32 32 30 29 29 28 26 25 24 22 21 20 20 20 18 33 90 75 37 34 34 23 23 29 33 20 17 39 62 72 76 72
44 45 48 50 50 50 47 44 40 35 32 32 32 32 32 31 29 27 25 23 22 22 23 23 22 20 34 55 93 74 24 20 17 18 20 19 19 23 23 25 37 68 78
43 48 50 51 50 50 48 46 44 34 33 34 35 34 34 32 28 27 26 25 24 25 25 25 23 23 24 24 44 65 46 33 17 18 21 19 16 18 40 56 47 45 72
49 50 50 50 50 49 48 48 47 41 34 36 38 38 34 31 30 30 30 28 27 26 25 24 24 23 22 21 32 51 34 32 20 19 17 17 16 17 21 27 53 73 66
49 50 49 49 49 49 47 46 47 46 40 38 40 43 37 32 32 31 31 32 30 26 26 27 25 24 22 22 22 23 27 22 19 18 20 17 18 20 23 24 33 48 74
48 48 48 49 50 48 46 44 46 48 48 42 42 44 38 33 34 34 36 33 31 31 37 41 39 36 28 24 21 21 21 21 20 19 19 21 19 21 28 22 26 38 41
48 49 51 51 50 50 48 44 44 46 48 49 46 46 42 35 36 38 37 35 41 46 46 48 53 51 46 35 30 26 23 20 20 19 20 20 23 22 24 26 19 23 30
48 49 48 48 54 48 52 54 50 54 55 66 54 51 43 38 38 41 39 39 45 50 50 53 53 54 51 48 38 33 30 26 24 22 20 22 24 27 25 27 26 22 25
50 49 47 48 60 56 72 79 76 76 75 83 79 67 55 48 43 42 41 43 47 51 52 54 56 56 48 37 36 36 33 29 29 27 25 27 28 31 30 27 28 24 23
74 79 78 68 72 78 81 79 83 93 98 91 94 80 66 49 47 45 48 51 56 56 55 54 56 60 43 28 26 27 26 28 28 29 29 28 37 36 41 37 34 26 25
83 81 82 93 90 97 89 87 98 99 100 100 96 86 91 81 55 68 68 69 59 60 59 56 60 65 53 31 29 28 27 28 29 36 37 40 42 46 45 37 34 27 24
86 80 96 96 82 91 95 100 98 97 74 88 100 96 100 94 94 97 86 85 78 66 58 62 66 67 48 42 40 37 34 33 34 34 40 41 34 34 49 42 32 28 33
83 80 87 97 94 99 98 87 88 86 87 98 99 90 93 99 100 99 99 86 68 58 63 57 46 43 42 39 38 38 38 38 36 38 39 42 50 45 52 53 34 33 35
100 98 99 99 98 98 96 98 91 89 95 94 94 93 88 92 89 81 75 70 64 63 57 51 45 43 39 35 36 36 36 40 40 42 44 49 52 42 51 50 38 40 39
79 80 85 87 93 89 89 95 92 97 99 88 80 88 94 92 84 73 80 80 72 64 51 43 39 37 35 35 38 40 40 43 46 49 50 47 45 40 43 47 43 43 38
72 73 73 77 83 92 92 96 95 98 96 94 97 98 83 77 81 85 74 72 68 54 41 39 35 37 39 37 39 39 40 43 48 50 48 47 42 43 49 45 46 42 38
76 76 72 77 80 84 86 86 92 98 100 96 98 89 86 86 79 70 64 61 48 43 39 40 36 35 38 41 41 42 43 46 48 51 50 45 43 53 51 55 41 39 40
77 80 79 80 78 83 87 88 89 94 94 97 87 89 92 82 71 64 52 43 41 42 40 37 35 36 40 43 43 44 45 47 50 50 48 44 52 47 53 34 24 43 39
80 79 77 73 69 68 72 85 91 93 94 90 88 92 90 75 63 51 43 43 39 33 31 31 31 32 35 39 43 44 47 50 50 52 51 54 51 61 55 8 10 13 12
40 40 39 46 59 64 67 79 90 95 95 89 94 91 88 68 55 45 41 36 34 34 32 33 35 37 42 45 45 48 53 53 53 53 50 53 53 56 28 14 21 24 24
37 36 37 37 44 57 62 71 88 96 94 91 91 85 86 64 49 43 38 41 41 40 40 40 39 46 48 47 51 55 56 53 52 59 57 19 19 26 30 33 30 29 31
36 37 38 40 42 52 55 72 83 90 92 92 86 87 86 58 47 41 45 49 48 45 42 42 50 52 53 53 56 60 64 62 34 22 22 31 42 52 47 50 36 31 29
39 44 47 47 47 48 53 61 81 89 92 91 90 88 70 53 45 49 55 52 46 42 44 53 54 57 54 47 54 54 29 35 46 48 46 48 49 48 44 40 34 33 26
36 51 54 56 55 53 59 62 73 82 88 88 90 75 58 51 55 60 56 44 40 49 54 58 62 58 38 27 25 33 50 50 52 51 49 53 57 59 58 58 55 48 34
37 46 55 64 65 61 62 68 76 83 92 94 81 69 59 56 63 62 55 40 44 55 55 65 64 48 28 39 48 48 48 49 57 64 65 69 72 78 79 72 56 50 41
49 59 59 66 74 70 72 81 99 100 96 84 80 70 60 62 65 62 58 42 49 65 68 67 55 30 36 52 54 56 52 49 52 60 64 68 66 70 84 92 90 67 52

GFSMA_700_rhum_102.txt.gz
RH
22 27 34 38 47 50 47 48 47 44 41 36 32 32 31 30 30 26 25 25 23 22 21 21 21 21 20 24 30 30 32 19 18 15 13 14 15 14 14 13 15 28 53
22 30 33 43 47 46 48 48 47 42 38 34 33 32 32 30 30 28 26 25 25 24 23 23 23 23 22 23 23 23 27 24 21 19 16 16 16 16 15 15 28 23 26
24 32 39 44 45 50 50 49 47 45 38 34 35 36 34 32 30 29 29 26 25 25 25 26 25 24 23 23 22 22 25 24 23 22 19 16 16 15 15 17 20 69 75
33 40 43 47 51 51 50 50 48 48 44 36 36 39 38 35 33 31 31 30 29 30 28 26 26 28 26 24 23 22 23 23 22 21 19 18 16 16 16 17 21 25 61
40 46 47 50 51 50 50 49 48 47 47 46 39 37 37 38 32 33 32 32 34 31 28 32 40 42 43 42 38 32 28 26 25 22 20 20 18 18 19 19 21 22 28
44 47 50 51 50 50 50 50 47 46 48 49 47 43 39 41 40 33 34 36 36 35 40 45 46 48 51 50 51 48 40 32 29 27 25 23 20 22 21 18 20 23 24
47 48 50 49 49 49 51 50 50 47 48 47 56 49 47 44 46 36 36 38 37 38 47 50 51 50 51 53 52 47 42 39 36 33 33 28 24 22 25 24 23 26 22
47 50 50 49 49 50 50 50 50 50 50 62 70 58 57 54 49 41 39 40 40 43 51 55 54 53 53 53 55 46 32 33 35 34 30 28 27 25 24 24 25 23 26
49 49 50 50 49 50 49 52 52 54 66 83 89 88 81 79 66 48 44 44 45 46 51 57 56 56 54 55 57 55 29 26 27 26 24 25 26 29 25 25 28 23 27
58 62 74 58 53 60 61 67 65 61 71 86 98 100 97 97 92 78 65 49 49 65 68 71 69 59 57 59 62 57 34 32 31 30 28 27 24 26 27 27 31 31 34
86 77 97 83 85 84 87 95 96 94 94 95 96 100 100 96 97 95 98 91 71 62 77 84 81 58 59 57 59 44 43 42 40 38 37 37 37 38 37 33 41 35 38
98 84 98 94 88 80 77 84 87 85 97 99 94 87 93 100 99 99 97 97 85 91 94 92 72 59 52 45 44 43 40 38 38 39 42 39 40 37 38 33 32 38 35
99 99 99 91 90 86 86 87 85 87 99 97 72 94 95 94 100 100 100 100 100 95 87 69 61 55 51 46 44 39 36 37 39 42 44 42 42 44 43 40 39 36 33
94 100 100 99 99 80 96 96 85 77 91 95 92 88 87 91 91 96 100 93 80 73 74 67 62 54 44 41 38 36 35 34 37 40 40 43 44 43 44 42 38 34 36
98 99 98 96 98 96 97 97 96 90 98 99 96 97 98 87 88 91 89 78 82 76 70 67 60 45 40 38 36 35 34 36 39 38 39 43 43 47 46 42 36 36 42
85 85 86 81 80 83 92 92 94 99 100 99 99 93 92 97 96 81 82 84 82 73 64 56 47 40 40 40 38 38 39 38 38 37 39 42 45 48 46 39 37 38 45
78 80 79 76 71 74 76 85 77 96 90 90 96 99 99 100 87 90 89 76 71 64 50 44 42 42 41 37 36 35 38 39 41 42 43 44 49 46 44 43 42 48 42
73 76 75 73 77 78 83 84 86 86 90 96 100 96 99 97 93 88 84 73 62 50 41 36 33 31 31 31 31 34 36 38 40 42 42 46 49 47 48 43 53 26 36
56 60 64 69 70 71 72 73 82 81 88 91 90 92 95 87 94 88 80 65 51 45 39 32 31 32 32 34 37 35 36 38 42 44 48 50 53 51 47 58 28 9 14
34 36 38 41 41 39 42 51 60 75 85 93 94 93 98 90 98 90 84 59 46 40 37 38 39 39 40 39 35 36 41 42 43 47 48 48 48 51 55 34 16 18 23
34 34 34 35 36 36 36 40 55 70 80 91 99 94 100 93 96 88 87 54 43 42 44 46 46 43 40 36 38 47 47 48 50 52 54 56 34 20 27 34 39 33 33
32 32 34 38 38 40 42 42 50 63 71 89 100 99 98 96 92 89 86 51 45 52 56 51 46 38 35 44 52 50 50 53 60 50 30 20 27 38 44 48 49 47 44
32 33 33 36 50 53 56 55 60 65 68 80 90 97 95 93 91 93 68 49 51 57 52 42 40 45 47 51 54 49 45 44 32 32 38 40 46 47 49 46 40 40 36
35 36 35 37 46 62 69 71 68 67 73 82 90 94 94 96 96 84 59 52 60 59 48 36 46 52 56 56 51 35 27 36 47 51 51 50 51 57 60 61 60 56 47
34 34 41 47 49 57 75 85 87 85 82 87 95 99 99 99 93 71 59 61 65 62 49 41 57 59 60 57 38 30 32 42 48 53 58 66 69 72 74 77 77 69 52
42 42 40 48 61 65 77 89 99 99 100 100 100 100 100 99 83 70 63 67 65 65 53 47 62 68 64 49 35 50 53 55 53 51 62 65 64 67 71 76 89 86 68

GFSMA_700_rhum_105.txt.gz
RH
36 20 23 21 34 36 38 46 49 47 43 39 33 28 30 28 26 26 25 24 22 22 21 22 22 22 22 23 23 22 22 23 23 22 22 19 18 16 15 15 13 16 21
24 25 22 27 34 39 47 49 48 47 44 37 31 32 31 32 29 26 24 24 24 23 23 23 24 24 24 24 24 23 24 24 25 24 23 22 20 18 16 14 14 16 28
26 25 22 31 37 46 50 51 49 46 44 39 33 32 32 32 29 29 26 26 26 26 27 26 26 26 29 32 32 28 29 28 28 27 25 22 19 18 18 16 15 16 19
24 26 23 36 45 51 50 51 51 49 47 44 39 36 36 35 31 31 29 29 29 31 33 30 29 39 42 44 47 47 44 42 38 34 32 29 24 23 18 16 16 16 20
27 25 32 42 51 52 52 52 51 49 48 48 47 42 38 37 38 34 30 32 32 35 34 34 38 46 51 50 50 48 49 47 45 43 40 36 32 29 22 19 17 17 16
32 28 42 48 50 52 52 51 51 50 48 47 48 48 48 44 50 41 39 33 34 37 36 39 46 49 53 52 51 50 50 48 44 40 39 38 37 33 28 24 21 18 20
32 38 46 50 50 51 51 50 51 51 48 48 47 50 51 52 50 50 48 41 36 38 38 40 44 47 50 52 53 53 53 53 49 36 30 29 27 25 24 26 24 23 23
36 44 47 50 50 51 50 50 51 51 51 51 52 56 57 62 63 61 58 48 40 37 40 42 45 48 51 54 55 54 56 58 47 31 27 26 26 26 26 25 26 28 25
44 46 47 49 50 50 50 51 52 57 62 60 61 62 68 74 79 77 86 58 46 43 45 48 53 57 68 73 65 57 56 59 46 35 35 34 32 30 30 29 26 26 26
59 56 54 53 55 54 60 61 70 81 79 80 79 79 78 87 89 88 98 89 80 73 76 65 77 79 85 78 78 60 53 51 44 43 41 40 38 38 37 34 30 30 27
65 58 64 69 66 75 92 91 94 94 98 98 97 97 99 99 99 91 100 100 100 93 100 90 75 71 84 86 75 51 45 44 42 39 38 37 37 40 41 41 38 37 34
80 89 86 83 99 95 90 88 86 86 99 86 77 77 88 92 82 99 100 97 97 99 91 91 96 90 83 66 59 50 46 44 39 38 37 35 41 39 39 38 39 41 39
98 100 84 88 90 87 90 97 93 88 92 96 66 98 100 98 78 95 100 99 100 99 98 98 83 72 73 69 56 45 41 38 35 36 37 34 36 38 40 40 40 43 40
98 98 100 100 100 91 98 99 98 97 96 100 91 73 77 88 93 100 97 100 100 98 89 78 76 70 67 62 49 41 38 36 36 35 35 35 38 37 38 37 40 43 38
99 100 97 100 100 98 97 97 97 84 99 98 90 87 88 96 100 98 91 86 87 83 78 83 81 71 60 52 42 37 34 34 32 35 38 38 38 39 39 41 41 43 36
89 94 89 95 96 91 98 100 96 97 99 92 95 93 92 94 97 89 88 88 82 85 84 75 69 60 50 42 40 37 34 34 33 34 34 34 36 39 40 42 46 41 38
79 81 84 85 83 83 82 84 89 92 100 99 99 86 99 97 94 94 96 87 88 88 83 73 61 51 44 40 37 34 34 33 32 33 31 30 38 42 43 44 44 40 40
67 71 74 78 81 84 83 81 78 82 84 84 90 98 96 97 96 96 99 90 86 86 74 66 53 46 40 34 33 33 34 36 36 34 36 40 41 41 44 46 46 42 48
47 56 62 68 78 83 82 82 81 81 83 84 85 94 97 100 100 100 96 85 90 88 72 58 48 39 34 35 38 39 39 39 39 42 43 43 45 45 44 46 49 51 20
31 32 34 36 43 47 55 63 68 67 71 79 89 97 98 100 99 100 96 90 92 89 79 53 43 38 40 42 43 44 42 42 46 45 47 50 47 45 45 48 45 18 13
29 29 30 31 33 35 38 39 39 40 48 63 77 91 99 100 100 100 100 95 95 90 85 53 42 43 49 49 45 43 45 47 48 49 52 54 52 49 28 23 32 37 32
33 32 32 32 33 33 36 39 41 42 43 49 65 99 99 99 100 100 98 98 94 87 86 50 46 56 53 44 46 44 50 51 50 54 55 42 26 23 30 42 45 47 49
31 31 30 30 32 34 35 37 44 48 47 49 74 98 98 100 98 98 99 97 96 92 77 51 59 57 42 39 40 53 56 51 47 42 31 31 32 37 40 44 48 40 45
28 30 30 32 32 32 34 38 45 55 59 60 66 89 99 100 99 100 100 99 96 94 66 53 60 55 40 43 50 58 50 33 30 36 46 48 49 50 52 56 56 55 50
24 31 35 36 35 35 36 43 49 55 66 72 72 77 94 100 100 98 98 100 98 84 61 59 63 58 44 52 62 61 36 30 38 48 51 56 60 64 67 68 72 73 71
14 27 33 40 41 43 45 44 56 65 72 80 86 87 90 97 100 100 99 98 99 75 64 64 64 61 51 58 68 55 34 38 46 51 52 57 68 66 65 70 69 75 83

GFSMA_700_rhum_108.txt.gz
RH
84 98 51 24 22 25 30 34 37 46 48 43 39 34 27 24 24 22 24 22 21 21 21 21 21 21 22 23 24 25 27 28 28 27 26 25 24 22 20 19 17 15 15
90 100 77 27 22 29 34 37 45 49 47 43 40 36 32 29 25 25 24 22 23 24 24 23 23 24 25 26 30 33 34 34 34 34 34 32 30 27 26 22 18 17 16
100 97 24 29 26 34 38 43 50 48 47 45 39 34 32 31 30 28 26 24 26 28 28 28 29 27 30 38 40 43 43 42 42 42 42 41 39 35 32 29 22 18 17
94 100 30 51 27 37 40 52 51 50 50 46 42 36 34 34 33 30 27 27 30 31 32 34 32 32 40 45 46 46 46 46 46 45 44 42 41 40 36 34 28 21 19
93 82 73 33 34 42 45 54 52 51 50 49 49 47 41 36 35 33 33 34 30 34 34 34 36 40 46 48 49 49 49 49 50 49 47 44 38 36 36 33 30 26 22
98 61 58 32 39 44 50 52 52 52 51 51 49 48 48 49 49 46 43 40 40 36 34 35 37 40 46 50 52 51 52 53 53 52 51 46 31 28 26 25 24 24 24
99 98 35 32 45 48 52 53 53 52 52 52 49 48 48 48 48 48 50 49 50 48 41 37 39 42 46 53 54 56 57 58 57 54 52 46 30 28 28 26 25 23 22
84 96 36 34 45 49 53 52 52 51 52 53 52 53 52 55 55 55 65 63 73 75 60 42 41 44 46 52 64 73 76 73 70 55 54 42 40 40 37 36 33 28 26
80 44 36 34 45 50 52 52 52 52 54 57 71 77 81 70 71 76 82 85 86 86 61 52 44 48 53 58 77 78 74 74 75 62 47 44 40 36 35 35 36 36 35
51 48 43 44 48 50 55 53 54 56 64 79 83 78 78 94 96 91 91 92 93 97 94 72 60 64 81 85 73 71 78 78 59 45 44 40 34 31 32 32 32 34 34
63 56 49 47 49 50 53 62 73 80 95 92 94 88 88 93 99 99 98 84 98 100 96 96 100 96 96 97 93 85 70 67 52 47 43 37 31 33 31 30 32 33 32
97 90 79 72 81 74 69 82 80 94 94 98 96 98 98 99 94 90 100 87 91 97 99 94 94 96 100 96 81 73 69 60 49 43 39 33 31 32 30 31 31 32 37
99 98 97 95 88 98 94 98 98 99 92 99 98 98 100 98 86 81 100 100 95 88 92 100 95 88 95 79 72 70 65 54 44 39 34 32 32 32 32 33 32 34 36
99 100 100 99 98 99 99 98 100 99 98 100 97 98 99 98 92 99 100 100 95 94 93 99 94 92 78 78 72 66 58 48 40 38 35 33 34 34 34 34 39 38 36
97 98 100 98 96 98 94 95 92 98 100 99 97 97 100 94 95 100 93 88 98 93 96 91 86 82 82 78 68 57 51 42 38 36 33 31 31 30 30 30 34 38 38
100 95 100 96 98 99 100 99 98 91 98 99 100 100 99 83 74 92 97 94 98 94 89 87 85 82 75 66 60 49 45 42 36 32 31 31 32 30 28 33 35 40 41
90 90 97 96 97 98 96 96 92 100 99 98 96 100 92 94 99 100 100 99 96 93 96 88 89 85 71 58 51 45 42 34 32 32 33 34 32 32 35 36 38 40 40
74 75 78 82 84 85 85 87 86 86 88 90 95 99 99 100 100 97 100 100 98 100 98 97 90 80 66 54 46 40 35 34 37 37 38 35 32 38 39 40 40 41 41
37 42 45 52 56 64 72 77 80 81 79 79 80 92 99 97 96 91 100 98 84 100 98 98 94 88 72 53 44 38 38 41 40 40 37 33 40 42 42 42 41 43 46
30 32 34 35 37 41 46 51 58 60 64 68 72 79 94 95 99 100 100 84 100 93 99 98 98 89 81 52 43 43 46 46 45 42 38 44 45 45 46 45 45 44 32
29 28 29 30 30 30 33 37 40 41 46 49 54 58 63 67 83 92 100 93 100 100 99 98 96 90 84 55 44 48 52 46 41 40 48 48 45 49 52 46 26 28 28
26 27 29 30 32 32 32 32 33 34 39 42 42 42 46 56 80 76 93 93 97 100 99 98 98 94 87 56 47 54 47 36 42 49 49 47 49 44 34 25 33 40 44
15 15 17 17 20 27 30 31 31 34 35 36 39 46 48 57 99 99 99 100 96 100 95 91 97 92 88 55 52 52 38 34 45 52 48 46 35 29 27 30 36 42 44
6 6 6 7 10 20 25 28 31 32 33 36 43 56 57 60 90 96 98 99 96 99 100 99 99 96 79 56 60 52 39 44 53 50 37 34 37 44 47 49 51 54 53
10 10 9 8 7 14 29 34 35 35 35 43 55 71 80 94 100 97 100 99 100 98 94 100 97 96 67 62 64 54 42 57 57 46 33 42 49 51 54 58 63 68 70
14 14 13 12 10 8 15 32 39 38 38 37 51 73 97 100 100 100 98 100 98 100 99 98 100 95 68 66 64 56 49 63 53 39 38 46 51 56 65 68 66 68 70

GFSMA_700_rhum_111.txt.gz
RH
84 78 84 88 61 25 21 22 27 34 41 43 40 37 30 26 26 25 23 22 22 22 22 21 22 22 23 24 24 28 32 34 34 35 36 38 38 38 36 33 31 27 20
65 75 98 90 49 30 23 24 29 38 48 47 42 39 34 29 28 26 24 24 23 25 26 25 24 25 26 26 32 37 39 41 41 42 43 43 42 41 40 39 37 34 27
78 87 99 96 60 27 29 26 32 38 46 44 45 41 37 33 29 28 27 27 26 29 28 29 31 31 29 32 38 43 44 43 44 45 46 46 46 44 41 39 39 38 35
96 93 99 95 51 31 31 32 35 42 48 46 45 45 40 34 32 30 30 30 28 30 31 32 34 34 33 37 41 45 45 47 48 50 50 50 47 46 42 34 32 30 29
97 99 100 100 68 35 36 40 39 48 51 49 51 49 47 43 37 33 34 35 36 35 32 32 33 35 37 40 44 48 48 50 50 53 55 54 52 50 41 30 27 26 24
99 100 99 100 82 38 44 42 43 53 52 52 53 51 50 49 48 48 48 47 48 45 45 43 40 36 37 39 42 49 55 55 56 63 66 66 58 48 39 33 32 30 29
92 100 100 98 67 54 68 52 50 55 54 53 52 52 51 48 48 48 48 49 54 55 56 68 66 52 40 41 45 51 58 62 70 69 67 67 66 51 44 42 39 36 35
87 97 96 98 96 82 52 58 58 55 55 53 52 53 53 52 52 53 62 67 70 70 79 83 85 66 51 44 52 53 59 73 72 68 66 68 56 45 39 35 31 30 30
87 100 100 99 62 49 50 53 53 55 54 53 53 56 56 54 65 76 74 83 83 85 90 91 90 78 57 51 62 65 74 86 83 76 71 60 47 43 38 31 28 28 27
99 99 99 96 95 44 45 52 54 54 53 53 56 58 68 76 84 87 83 91 98 94 92 97 100 91 63 59 72 86 98 90 85 76 65 53 46 42 32 28 27 27 26
98 98 97 99 68 50 50 53 53 53 53 56 62 67 77 85 89 96 84 99 99 100 97 100 100 100 84 88 99 99 90 95 82 76 64 52 45 38 33 30 28 27 27
98 98 96 86 58 56 52 63 65 68 69 68 74 84 90 94 100 99 97 99 98 97 97 100 92 100 97 89 88 96 94 75 69 73 60 48 40 34 31 29 27 27 29
99 98 97 91 88 79 77 92 93 73 72 83 87 97 98 97 99 99 98 97 98 98 98 98 99 100 99 98 87 89 83 75 66 62 54 43 38 34 31 30 28 27 30
100 100 99 100 100 100 100 98 97 94 97 88 80 84 97 99 99 99 99 99 99 99 100 100 99 100 92 96 92 82 82 76 65 56 48 41 36 32 30 27 27 28 33
99 98 100 100 97 99 100 98 98 99 96 96 96 100 100 100 100 98 99 100 100 100 100 99 100 100 100 90 82 76 70 66 58 48 42 38 34 31 30 30 30 29 33
98 99 100 98 100 98 99 92 100 99 98 99 98 98 100 100 99 98 100 98 100 100 100 100 100 100 94 93 88 79 68 55 49 43 39 33 32 32 32 30 29 33 34
100 99 99 99 98 98 98 100 93 99 99 99 97 99 97 99 98 99 100 98 99 100 100 100 100 97 94 91 82 66 54 50 45 38 32 31 34 34 34 28 34 35 36
72 75 78 78 78 80 78 80 79 82 84 83 83 85 93 94 99 100 92 99 100 100 100 100 100 100 100 90 82 70 51 44 39 35 33 35 38 37 33 32 37 38 39
65 65 64 64 64 67 75 79 80 80 80 80 80 80 77 76 76 79 98 100 100 99 100 99 100 100 97 95 84 76 59 46 39 36 37 39 40 38 32 35 37 42 41
32 32 32 33 34 33 36 36 38 46 61 66 75 80 81 79 80 77 100 94 95 100 99 100 100 98 99 100 97 82 71 48 42 42 44 43 39 34 33 37 42 45 44
32 32 30 29 29 28 28 28 29 30 32 35 40 45 52 60 67 74 96 99 100 100 97 100 99 100 98 98 99 96 77 50 46 50 46 38 34 37 41 40 46 45 30
19 19 19 19 21 22 25 28 29 30 31 31 31 31 33 38 42 44 58 64 100 99 100 100 98 98 100 98 99 96 75 52 53 52 42 35 39 46 44 45 41 31 34
6 6 6 6 6 6 6 7 9 12 19 26 30 32 34 36 40 45 51 66 59 97 99 100 98 99 92 94 99 91 84 55 51 50 37 40 50 48 45 35 28 29 36
11 11 11 12 12 12 12 11 10 8 7 10 20 27 32 37 50 58 60 72 83 94 98 99 99 98 98 97 94 96 75 58 56 50 43 50 50 42 33 34 38 44 47
11 11 10 11 11 12 12 12 12 12 11 11 16 29 35 37 45 63 70 94 100 92 94 79 83 86 100 96 99 99 75 58 61 51 53 54 42 36 40 44 47 52 57
9 9 8 9 11 9 10 12 13 12 12 16 24 33 45 56 80 100 98 100 100 100 100 98 100 98 100 98 99 98 74 64 66 55 57 51 38 40 46 50 54 62 65

GFSMA_700_rhum_114.txt.gz
RH
81 77 91 68 81 94 36 26 21 19 23 28 29 30 29 26 24 23 23 21 22 23 22 22 23 24 24 24 24 26 32 36 38 40 41 42 44 44 44 42 40 39 38
79 77 89 77 87 97 35 28 26 29 27 28 31 36 33 30 28 26 25 25 26 25 26 26 26 27 27 28 28 33 38 41 43 44 44 46 48 48 47 44 41 38 36
92 90 93 87 84 99 38 29 32 32 32 33 35 40 38 33 31 29 28 29 28 28 31 31 30 32 33 33 33 37 43 45 46 47 47 49 51 50 50 47 43 35 30
64 88 99 94 76 99 60 30 31 37 41 38 46 44 45 40 35 32 32 32 34 35 32 32 33 34 34 35 36 39 41 45 50 49 49 53 57 57 58 50 42 34 30
56 72 68 76 79 95 94 34 35 38 46 47 52 50 50 48 45 36 34 33 35 38 40 39 38 37 36 36 36 38 41 46 52 52 53 60 65 63 60 57 45 39 36
45 49 54 67 90 100 100 45 44 43 45 50 53 52 51 51 50 48 47 48 49 49 51 49 49 51 56 57 52 42 40 47 54 56 60 63 62 61 60 55 46 41 37
49 49 59 61 91 94 100 76 52 57 50 52 56 53 53 53 52 48 48 49 50 53 61 59 60 74 79 79 66 48 46 51 56 60 61 58 77 68 62 52 42 36 32
49 44 61 76 87 97 99 94 76 62 57 58 57 55 54 53 53 52 53 54 64 74 79 74 84 88 86 90 86 64 57 60 62 70 81 87 76 70 56 46 42 34 29
54 90 90 84 100 100 98 100 97 69 61 63 64 63 56 54 54 54 57 62 72 82 87 87 92 89 95 98 92 81 62 69 69 86 91 84 80 67 53 46 38 30 28
86 98 99 96 99 97 97 100 99 90 70 65 62 58 56 54 57 56 65 73 76 85 90 87 98 99 100 97 96 90 77 94 99 93 86 87 80 67 52 44 36 28 25
94 95 94 99 94 100 99 96 86 72 66 72 69 58 57 57 61 64 72 69 77 92 98 100 100 99 99 99 97 100 98 95 86 92 86 68 71 66 48 40 31 27 26
99 99 99 97 99 99 97 99 89 72 66 62 59 60 66 71 78 76 89 91 90 95 98 95 99 99 98 99 99 100 99 93 96 79 80 67 62 57 47 35 30 28 26
100 99 100 99 99 98 96 95 91 81 76 74 76 94 98 98 96 100 98 89 95 87 97 98 99 100 100 100 100 99 100 86 84 84 77 70 60 51 39 32 29 28 24
99 100 100 100 98 100 98 98 81 64 71 87 99 100 99 99 91 99 97 95 96 97 97 100 98 100 99 100 100 100 99 97 82 75 69 65 54 41 34 30 29 27 26
100 100 99 98 100 100 99 99 99 99 98 100 99 100 99 100 100 96 99 98 100 100 99 97 99 98 100 99 100 100 100 90 82 75 62 52 44 37 32 29 29 28 28
99 98 98 100 99 100 100 100 100 98 99 98 98 98 100 99 99 99 100 99 100 99 98 96 100 96 100 100 100 99 100 98 87 59 48 45 40 34 30 30 32 31 26
99 100 100 100 100 100 100 98 98 99 100 98 97 100 96 98 99 98 100 99 93 100 89 100 84 98 100 100 100 99 99 98 76 53 46 42 36 32 31 32 32 32 26
95 88 93 94 99 100 100 98 98 99 100 100 100 100 100 100 100 96 94 99 100 100 100 92 87 98 100 100 100 99 99 97 81 60 47 40 37 36 37 38 36 33 29
84 82 78 80 82 84 86 90 91 90 87 83 80 81 84 85 84 84 86 88 92 100 100 100 98 98 99 99 99 99 100 99 89 73 50 43 40 40 42 41 38 33 33
39 36 34 33 34 35 36 36 37 36 35 36 38 41 46 51 58 66 75 82 86 85 86 94 100 100 99 98 99 98 99 99 99 95 62 45 47 49 44 40 37 37 37
34 33 32 32 32 31 30 30 30 30 30 30 31 32 32 33 35 38 40 42 48 64 89 91 95 98 97 99 100 100 98 99 99 95 87 48 51 47 39 38 43 46 43
13 12 10 9 8 8 7 7 6 6 7 7 8 12 17 23 28 31 34 36 38 46 54 67 100 89 98 98 97 99 100 99 99 96 60 51 50 45 38 44 48 47 46
9 10 10 10 10 9 9 9 9 9 9 9 10 10 11 10 9 9 19 28 34 43 59 82 98 96 98 98 99 90 99 99 94 93 76 50 53 44 42 50 50 44 33
10 9 8 8 7 7 7 7 6 6 6 6 7 6 8 9 12 15 25 36 42 66 96 100 100 98 94 98 98 99 98 99 98 92 74 57 55 50 48 52 46 31 28
7 7 7 6 6 6 4 4 3 3 3 3 4 8 11 12 12 18 31 44 66 100 100 98 98 98 99 90 98 99 97 98 92 86 68 62 58 50 51 44 33 36 44
7 6 5 4 3 3 3 4 6 9 8 9 10 12 15 16 16 12 16 30 40 51 80 95 96 84 98 88 100 92 98 95 91 91 72 63 61 55 49 37 41 48 48

GFSMA_700_rhum_117.txt.gz
RH
61 88 94 93 90 76 96 89 35 27 26 31 30 29 30 30 30 27 23 23 23 23 24 24 23 24 25 24 25 26 28 34 39 41 42 44 45 46 47 47 46 44 41
64 73 83 91 95 81 86 100 51 30 32 34 36 34 33 35 33 31 28 27 26 27 27 26 27 28 28 30 31 31 34 38 43 44 46 47 46 48 52 52 48 45 42
84 81 80 80 89 99 86 97 81 32 34 35 43 38 37 38 37 35 30 30 30 31 32 31 31 32 32 34 34 35 36 39 44 45 46 47 49 51 55 58 55 53 48
63 69 72 73 88 95 100 92 100 36 38 41 48 48 50 41 41 40 33 32 33 36 36 36 33 33 33 33 34 35 36 38 41 43 45 47 51 53 53 55 54 55 51
51 50 51 58 63 74 85 92 98 90 43 50 55 54 55 49 46 46 42 37 36 37 40 43 43 42 43 44 46 50 55 56 48 42 42 45 50 54 55 73 69 62 53
44 41 39 47 56 60 65 75 82 98 68 67 59 56 58 54 52 50 50 50 50 50 52 55 58 54 53 60 77 77 74 68 57 52 50 50 55 54 57 73 68 61 45
43 38 35 35 44 45 50 63 94 95 97 77 65 60 59 58 54 53 53 52 51 53 55 58 72 72 67 82 84 83 84 83 80 68 64 57 55 58 73 78 69 53 43
43 39 34 33 44 46 46 54 84 91 98 95 79 66 61 60 56 54 55 55 55 57 58 68 82 81 79 85 86 87 88 94 82 78 63 65 73 86 83 82 65 49 43
32 27 25 34 39 47 59 69 83 86 98 100 96 90 72 65 58 57 57 59 60 63 67 77 78 83 89 91 97 93 98 93 97 90 87 98 94 85 75 76 63 48 41
24 31 47 71 82 88 89 78 80 92 99 98 97 94 86 77 64 58 58 60 70 72 78 69 73 78 89 93 97 100 99 98 99 95 94 94 86 79 64 66 64 49 36
74 72 58 86 93 96 92 91 93 99 100 100 100 98 95 87 68 65 65 74 81 85 80 84 93 97 100 99 100 99 100 99 100 99 100 94 75 80 68 61 56 46 33
93 77 92 88 89 96 97 100 96 100 98 99 100 99 97 97 82 88 94 99 100 92 91 98 99 90 94 98 99 100 100 100 100 98 100 80 85 75 72 61 51 39 31
95 87 85 89 99 99 100 100 96 100 99 97 97 96 96 95 99 99 100 98 99 99 100 98 96 96 99 100 100 97 100 100 100 100 94 93 80 73 67 56 45 35 29
90 88 89 95 100 99 97 99 100 99 97 99 99 98 99 98 100 99 99 99 99 99 97 83 90 94 100 100 97 100 100 100 100 99 96 92 73 64 59 51 41 34 30
98 98 99 96 99 99 100 100 100 100 100 99 100 99 96 98 98 99 100 99 98 96 90 96 99 100 100 97 98 98 100 100 100 99 96 89 78 60 51 44 37 31 30
100 100 100 98 100 100 100 100 100 100 100 100 99 98 99 100 100 100 98 100 100 100 100 98 100 100 99 98 96 97 97 100 100 99 95 98 64 48 44 41 34 30 33
100 100 99 100 98 98 99 99 100 99 100 100 100 100 100 100 97 99 100 99 100 100 97 100 98 100 99 99 98 98 100 96 98 99 98 88 62 51 44 38 33 34 35
100 100 100 100 100 100 98 98 100 100 100 99 98 100 100 99 94 90 89 92 92 90 90 86 83 88 100 98 88 98 100 99 99 100 97 90 67 52 44 39 38 36 37
97 90 82 81 80 83 84 86 88 96 96 96 90 84 80 76 68 61 62 65 73 79 84 84 81 81 87 92 98 99 99 100 100 99 100 97 92 62 45 40 41 43 42
49 44 40 37 36 35 35 36 37 37 35 35 33 31 31 30 30 31 31 30 30 31 34 39 48 58 84 92 96 95 98 100 99 99 100 99 97 95 67 50 38 42 38
33 32 31 30 28 27 25 24 24 22 20 19 18 16 15 14 14 13 13 16 21 25 31 34 35 38 56 80 99 98 99 99 99 100 100 99 98 96 78 52 44 41 38
12 9 7 6 6 7 7 8 8 8 8 8 8 9 9 10 10 11 11 11 11 10 11 23 35 48 54 72 100 94 94 99 74 100 89 100 99 99 65 51 48 39 38
10 9 9 8 7 6 6 6 6 6 5 5 5 5 6 7 7 7 9 10 12 15 20 32 42 51 97 99 97 70 73 97 98 93 100 100 96 86 57 54 52 43 49
8 7 6 6 6 5 5 5 4 4 4 3 3 3 3 3 3 4 4 8 12 14 14 14 24 34 72 89 84 100 99 100 98 98 98 95 87 86 78 60 49 45 53
6 6 6 6 5 5 4 4 4 3 3 2 2 3 3 4 4 5 7 8 10 13 16 16 39 89 70 87 96 78 89 99 98 99 98 99 99 86 71 59 51 50 50
7 6 6 5 5 4 4 4 3 3 3 3 3 4 4 4 4 5 6 7 9 12 16 16 49 96 100 91 100 92 99 98 97 98 98 98 98 86 69 61 53 50 35

GFSMA_700_rhum_123.txt.gz
RH
59 60 67 74 72 74 75 77 81 85 96 68 35 26 26 28 34 34 35 31 28 25 24 25 27 27 31 34 26 27 29 30 32 37 40 41 41 41 42 42 42 43 43
71 76 73 72 67 78 89 94 95 88 76 98 82 36 27 29 34 36 38 35 33 30 28 29 30 30 29 37 38 31 33 34 35 36 38 38 39 41 45 45 45 47 48
61 74 80 81 86 82 86 88 90 99 93 79 78 85 42 29 33 37 39 42 38 36 33 32 34 33 32 33 34 34 37 34 35 36 40 53 62 60 56 54 59 57 57
56 59 66 80 84 87 85 86 85 80 82 82 91 88 88 44 33 34 40 41 44 42 40 36 36 38 39 40 36 36 38 42 45 54 65 66 69 69 69 67 66 66 63
58 63 54 67 77 82 83 73 73 71 68 73 74 78 81 79 48 38 40 43 44 45 48 47 44 41 42 49 51 50 51 52 63 68 70 71 71 77 75 71 74 75 74
58 57 58 61 60 63 67 58 51 50 50 49 53 57 70 82 82 79 65 52 47 48 54 55 52 52 53 54 57 61 62 64 73 79 76 79 76 85 80 74 77 73 75
65 62 54 51 49 47 44 40 40 40 37 42 59 55 58 60 77 80 58 55 56 76 55 57 57 58 57 58 62 80 86 81 83 83 85 80 83 87 92 86 79 73 72
70 58 55 49 43 43 43 42 40 39 36 29 47 60 65 62 63 67 86 60 87 69 58 60 61 66 62 65 76 91 98 98 93 87 76 77 83 100 91 93 90 78 73
72 61 61 55 50 49 44 40 35 28 28 30 52 92 69 69 63 84 88 89 97 76 67 68 80 75 78 87 83 82 97 98 86 77 80 87 86 90 96 94 98 85 71
79 74 62 53 50 45 40 33 28 20 26 43 46 46 56 77 100 99 100 84 92 79 70 71 74 78 83 92 88 90 96 91 93 98 95 87 95 88 92 98 98 91 77
77 67 51 54 46 41 32 28 24 34 54 84 89 88 71 93 99 100 96 92 100 95 87 83 72 84 79 95 89 96 94 98 100 90 97 94 97 97 96 96 96 88 79
60 57 63 59 51 38 29 53 75 74 88 92 91 90 94 99 95 99 98 99 100 100 100 98 95 82 80 78 94 96 98 100 99 99 94 95 97 98 98 99 99 91 82
57 62 70 52 43 38 48 87 91 88 89 100 100 99 98 93 95 98 98 98 99 99 98 100 99 100 98 100 98 100 99 98 99 97 93 98 97 87 94 98 98 97 90
74 74 52 46 50 64 88 96 92 92 97 95 88 100 95 98 92 100 100 100 98 98 99 98 100 100 100 100 100 99 100 96 99 100 96 94 88 89 93 92 100 94 85
65 61 59 54 46 54 79 89 95 93 90 99 100 100 98 99 100 100 100 100 100 98 98 96 98 95 100 94 98 97 98 91 99 90 88 87 93 90 90 98 100 99 90
63 55 56 42 43 67 92 91 94 96 99 100 98 100 100 100 100 100 98 100 100 99 98 92 92 98 96 96 94 91 93 93 92 92 88 90 97 92 99 98 92 98 97
68 65 51 63 90 93 100 98 99 100 100 100 100 99 99 98 100 99 99 98 98 98 99 93 99 100 92 85 83 82 83 83 85 86 89 97 100 99 92 100 99 97 100
81 86 87 100 100 100 100 100 100 98 100 100 100 100 100 99 98 99 100 97 98 99 100 99 94 85 71 51 36 31 31 31 34 42 64 83 100 99 92 100 100 100 100
100 100 100 100 100 100 100 100 100 100 99 100 99 100 100 100 99 99 97 96 92 85 72 53 36 29 27 27 25 24 23 23 25 30 35 36 93 86 90 100 99 100 100
100 99 94 97 100 98 83 66 64 57 49 51 50 50 53 51 45 40 36 31 28 24 22 18 14 9 8 8 9 9 9 9 10 11 13 36 51 56 100 80 100 98 99
41 38 36 36 34 33 32 30 29 28 27 25 22 17 14 11 10 9 8 8 8 8 8 7 6 6 5 5 4 4 4 5 6 8 10 13 41 57 100 90 100 99 99
20 16 13 11 8 8 7 8 8 9 9 9 8 7 6 6 6 5 5 4 4 4 3 3 3 2 2 2 3 3 3 3 4 5 9 12 35 81 100 100 100 100 99
10 10 10 10 9 8 7 7 7 6 6 6 5 5 4 4 4 4 4 3 3 3 2 2 2 2 2 3 3 3 4 5 5 9 33 16 37 50 88 98 97 98 99
9 8 7 7 7 7 6 6 6 5 5 5 5 6 5 5 4 4 4 3 2 2 2 2 2 2 3 3 4 4 5 7 10 12 58 76 52 95 98 96 98 98 98
8 8 8 8 7 7 6 6 6 6 6 6 6 6 6 6 6 5 3 3 2 2 2 2 2 2 3 3 5 6 9 12 15 24 49 70 80 91 84 97 97 97 98
8 8 8 8 8 7 7 7 7 6 6 7 8 9 10 9 5 4 3 3 2 2 2 3 3 4 6 8 11 16 20 21 81 27 38 80 97 86 94 93 93 100 99

GFSMA_700_rhum_126.txt.gz
RH
69 62 57 57 69 69 64 68 69 70 76 83 87 83 56 32 24 25 26 26 26 25 24 23 23 24 24 27 31 38 27 30 32 33 36 38 40 39 40 51 55 54 56
71 61 62 62 63 64 70 78 81 79 82 81 78 75 84 74 47 28 26 29 29 29 28 27 27 28 27 28 28 30 36 35 35 34 35 35 37 51 60 61 62 61 64
70 69 69 66 76 79 77 75 85 85 90 79 83 84 78 79 79 55 34 29 31 32 32 31 31 32 32 32 32 31 35 38 44 36 38 48 65 68 66 65 69 68 66
77 68 68 66 67 75 86 87 86 88 86 83 77 80 88 85 82 83 66 45 36 34 34 39 36 34 37 38 39 38 37 42 47 52 56 66 70 71 72 71 73 72 69
82 72 65 60 61 74 82 81 87 87 81 77 73 66 68 68 69 84 79 66 49 64 44 42 45 46 43 45 46 50 52 54 58 59 66 75 81 77 73 74 78 81 76
73 75 70 61 69 68 72 72 81 88 78 58 50 47 46 46 47 55 69 85 87 64 60 62 49 44 49 51 54 56 60 62 70 71 75 79 83 84 73 74 75 86 86
65 69 69 69 67 65 68 67 71 61 43 39 42 40 38 46 61 58 66 70 87 87 69 55 58 58 66 55 57 60 64 84 89 90 87 85 82 75 72 82 80 84 95
62 79 77 67 74 65 54 55 53 44 44 44 42 39 40 38 49 51 69 59 72 83 76 62 61 74 64 58 62 65 74 93 89 95 90 79 73 74 81 92 93 91 86
72 74 85 76 76 57 55 53 48 48 46 43 37 35 35 31 40 47 89 66 62 82 88 69 71 90 66 64 67 69 88 97 92 87 92 85 84 85 90 97 98 98 91
72 82 87 82 82 62 60 53 52 51 46 38 31 28 28 35 61 58 50 85 72 87 95 89 84 90 80 73 72 76 90 92 98 98 92 96 97 89 90 95 96 98 99
72 72 92 89 83 70 67 59 55 48 41 31 26 35 42 49 83 99 98 86 98 98 99 99 98 98 98 96 89 82 86 97 99 100 98 88 98 96 92 93 97 98 96
56 70 79 86 87 85 71 59 52 44 33 29 70 73 95 94 100 98 99 100 100 99 100 100 100 100 100 100 100 99 98 95 93 99 99 95 95 96 89 91 93 89 90
27 54 78 86 87 80 61 59 54 37 36 74 86 98 91 97 99 99 98 99 99 100 100 99 98 99 100 100 100 99 99 99 99 96 92 98 93 93 88 86 84 90 95
42 58 70 73 70 66 65 62 42 49 81 98 95 93 98 99 98 93 96 93 96 93 99 97 100 99 100 100 100 100 100 98 99 95 89 86 86 87 79 82 80 86 90
47 61 66 62 61 65 64 46 45 50 84 98 90 88 98 100 100 99 100 100 99 96 95 97 99 98 98 98 98 99 96 95 86 89 87 90 85 84 80 77 83 89 92
62 72 69 70 67 62 52 49 41 40 76 97 92 94 100 99 100 99 100 100 100 100 99 98 98 97 92 89 92 88 92 87 82 77 77 79 83 83 82 79 76 88 91
79 79 72 64 58 62 59 50 39 85 99 99 99 95 100 100 100 100 100 99 100 99 99 99 99 98 94 88 92 89 93 81 58 40 32 31 34 40 50 73 80 95 88
63 69 74 72 66 60 60 73 95 100 100 100 100 100 99 99 99 100 100 100 100 100 99 99 99 95 89 87 71 47 31 28 24 20 15 12 12 14 21 28 44 71 86
65 86 73 69 71 77 97 100 100 100 100 100 100 100 100 100 100 100 99 100 99 100 99 94 75 54 34 26 18 10 7 7 7 6 6 6 7 8 9 10 11 17 97
91 92 99 99 100 100 99 100 100 100 93 80 83 88 74 63 84 90 79 64 51 43 30 21 13 8 8 7 6 4 4 3 3 2 2 2 3 4 5 7 11 18 68
99 99 80 56 66 100 98 66 42 37 33 30 30 27 22 17 12 11 9 8 8 7 6 5 4 4 4 3 3 3 3 3 3 2 2 2 2 3 4 6 8 18 38
30 29 23 15 11 16 13 12 9 8 8 9 8 8 7 6 6 5 5 5 5 4 4 5 5 4 4 3 3 3 2 2 2 2 2 1 2 3 3 7 13 26 47
9 11 11 12 12 11 9 8 8 7 7 6 6 5 5 5 5 5 5 6 6 7 7 6 6 4 3 2 2 2 1 1 1 2 2 2 3 3 5 8 20 48 65
11 10 9 9 8 8 7 7 6 6 5 6 6 6 6 6 7 9 11 12 11 10 7 5 4 3 2 2 2 2 2 2 2 3 5 5 8 10 15 59 68 82 97
9 9 8 8 8 8 8 7 7 7 6 6 6 7 10 13 14 13 15 18 18 13 8 5 3 2 2 3 3 3 4 5 6 7 10 12 15 24 19 87 74 68 87
9 9 9 9 9 9 8 8 7 7 6 8 13 17 19 19 19 18 20 23 19 11 7 3 3 3 5 5 5 7 10 12 13 12 12 18 30 56 32 38 79 75 77

GFSMA_700_rhum_129.txt.gz
RH
75 77 69 61 64 63 69 70 63 66 64 64 64 80 84 80 62 46 38 26 27 29 28 26 24 22 21 20 20 22 38 51 32 31 34 35 37 38 39 59 62 61 60
84 79 72 68 62 60 66 68 74 77 75 72 76 75 75 69 71 78 71 50 36 31 32 32 31 29 26 24 23 24 29 31 37 40 36 34 36 43 61 66 68 68 68
84 76 68 70 68 68 77 74 74 76 85 89 88 88 85 82 82 78 76 71 60 46 42 37 39 38 37 30 28 29 28 32 37 40 42 43 52 66 71 74 71 70 70
77 78 63 68 70 70 82 81 80 82 82 82 86 83 82 85 86 86 84 83 78 66 49 41 44 42 44 42 36 32 32 34 43 50 57 64 71 79 80 80 75 73 68
60 69 69 72 72 71 75 80 80 88 91 89 86 84 82 78 74 67 66 70 75 76 71 48 54 51 51 48 47 45 40 39 49 61 62 67 76 79 83 85 78 72 70
53 59 63 68 81 68 64 65 73 82 87 95 93 79 63 56 47 44 46 48 52 74 85 87 82 60 57 55 52 55 61 52 53 64 73 72 77 80 85 82 82 80 84
50 51 65 68 78 77 65 70 78 78 82 86 86 58 44 45 42 39 40 49 58 66 83 80 89 86 72 59 61 67 73 59 56 61 63 81 90 92 83 83 80 90 96
42 62 54 65 72 72 71 77 76 74 73 74 63 52 46 47 46 37 34 35 47 56 71 69 77 78 75 66 67 73 72 66 66 67 70 77 92 92 85 86 92 92 95
15 44 76 66 67 73 77 77 75 66 61 58 54 54 54 47 39 34 29 26 25 49 74 59 64 92 94 80 78 92 75 72 75 77 88 87 89 86 76 81 84 93 97
14 37 46 56 70 80 90 88 78 61 57 51 54 54 49 42 39 30 31 45 43 54 68 93 80 90 93 89 90 96 99 98 91 87 90 96 86 80 85 85 92 92 97
18 15 43 71 66 72 82 87 85 65 62 59 57 55 47 38 29 46 43 50 82 99 97 79 89 96 99 88 98 100 99 95 97 92 94 90 81 87 100 96 97 95 98
28 54 27 34 80 82 83 92 92 81 70 67 60 49 42 32 28 67 74 91 99 92 98 99 98 99 99 100 98 100 98 100 98 99 100 96 98 94 98 86 96 91 93
24 41 46 54 74 76 86 91 90 86 85 71 53 45 34 30 64 70 92 100 92 99 98 99 99 98 100 100 100 97 98 98 100 100 91 90 98 96 93 90 83 85 80
28 54 52 59 55 73 80 90 94 87 82 66 52 35 42 63 91 92 98 98 100 99 90 89 98 100 98 100 99 100 100 100 99 99 99 98 86 82 92 92 91 89 83
49 53 63 72 48 52 70 76 79 76 63 56 46 42 61 89 74 85 94 100 99 98 98 96 99 100 100 100 99 100 100 100 100 95 92 94 89 88 82 76 74 74 75
62 57 70 72 63 72 79 71 59 56 60 57 49 44 65 95 93 88 100 99 98 99 100 100 99 98 87 94 100 100 100 98 95 89 84 64 56 46 38 33 32 34 38
53 40 51 66 58 52 50 64 69 64 64 60 54 46 49 86 99 100 100 99 100 100 100 99 98 100 99 99 99 94 89 72 60 42 28 22 19 14 10 10 10 12 16
52 53 58 78 82 88 89 83 76 66 52 55 52 96 99 100 100 100 100 100 99 100 98 97 98 100 100 100 94 58 51 29 15 8 7 7 6 5 5 4 4 5 6
62 57 46 51 58 59 61 61 62 60 94 97 91 100 100 100 100 100 100 100 100 100 100 100 99 93 70 42 17 8 6 5 5 5 4 4 3 3 3 2 2 2 2
94 60 73 63 97 97 86 76 78 68 98 100 99 100 100 100 98 71 56 78 82 84 68 32 15 8 6 5 5 5 7 7 8 6 5 5 4 3 2 2 2 2 2
100 99 95 98 100 99 100 98 94 99 85 69 58 50 40 31 24 15 11 9 8 7 6 5 5 5 6 8 10 12 13 13 12 10 9 7 5 3 2 2 2 2 2
97 96 80 41 18 100 98 83 42 23 15 11 10 10 9 8 7 6 5 5 5 6 6 8 12 15 15 16 18 18 18 16 17 12 10 6 3 2 2 2 2 2 2
11 12 10 10 11 12 12 11 11 9 8 8 7 6 6 5 6 6 6 7 9 12 16 19 21 23 23 19 19 18 13 12 10 6 4 3 2 2 3 4 4 4 4
12 12 11 10 9 9 9 8 8 7 6 6 6 6 6 6 7 10 13 15 17 19 22 26 25 20 18 15 13 11 8 7 5 3 2 2 4 6 8 9 9 8 24
10 10 10 10 10 9 9 8 7 7 6 6 6 6 8 13 17 20 23 24 23 23 25 24 19 17 12 8 6 6 3 4 3 2 4 5 9 10 13 18 19 54 69
12 11 10 10 10 10 10 9 9 8 8 7 8 11 17 23 26 30 34 32 30 29 28 23 19 15 9 5 3 3 4 5 4 4 8 10 13 17 20 28 36 56 73